GFSSGP_850_thetae_003.txt.gz
Theta_e
310 311 314 316 312 307 311 314 312 314 333 334 333 332 331 334 333 328 336 336 333 324 321 321 323 326 327 330 331 334 332 336 337 336 334 333 331 329 325 324 323 323 327 329 327 325 323 325 324
311 312 314 315 310 310 311 312 315 321 335 335 335 335 336 338 337 338 337 337 336 331 321 318 319 319 322 324 328 329 333 334 330 324 325 329 333 334 333 332 332 332 332 331 328 325 324 326 325
313 313 313 307 306 312 313 313 319 329 331 326 336 337 337 338 338 337 336 336 334 331 324 321 320 319 318 320 321 321 324 326 326 322 326 325 328 330 329 328 327 327 327 324 323 324 325 324 325
313 314 311 307 312 313 313 314 314 322 329 334 336 334 337 338 335 334 335 333 326 325 323 321 321 320 319 318 319 319 319 320 320 320 319 317 316 319 320 319 318 319 323 326 325 324 324 325 324
313 312 306 308 311 312 312 322 325 325 327 329 329 334 337 337 331 328 331 328 323 322 321 320 318 317 317 317 318 318 319 319 318 318 317 318 320 319 317 316 315 313 317 324 327 330 328 327 324
313 310 307 309 310 311 312 317 320 324 325 327 331 333 336 334 330 334 334 328 324 320 320 321 322 321 320 316 317 318 319 319 318 317 317 319 320 318 317 316 318 320 319 320 322 319 316 314 319
309 305 308 309 311 310 312 314 313 312 316 321 327 333 335 331 333 333 334 331 329 325 322 321 321 318 317 316 317 320 319 319 319 318 318 318 317 316 315 315 315 317 318 320 318 317 318 320 324
313 305 308 308 310 311 310 314 314 314 314 324 323 326 335 331 334 335 336 335 333 331 326 324 322 318 315 317 321 324 323 321 320 318 317 317 317 317 314 311 310 312 315 318 320 321 321 323 323
312 306 308 311 311 312 312 313 315 315 318 317 324 323 326 333 335 335 336 336 334 331 330 330 325 319 316 315 320 325 325 323 323 321 319 318 317 315 312 311 310 311 312 313 314 317 319 320 322
310 306 310 311 311 311 313 313 314 314 320 326 324 323 325 332 336 334 334 334 333 330 330 328 321 317 316 316 318 324 325 324 323 324 319 316 315 311 310 310 309 310 311 310 310 313 313 317 319
312 311 312 314 314 313 314 315 315 313 315 324 323 323 326 332 334 334 333 332 329 331 331 325 320 318 316 315 319 321 322 320 322 319 317 315 313 311 308 307 307 307 308 309 306 308 310 311 315
314 314 315 315 315 315 315 316 315 315 315 317 319 320 324 326 325 322 323 329 332 331 329 321 319 317 316 314 314 317 319 323 323 320 315 314 312 310 311 312 310 307 307 307 306 307 308 308 307
315 315 316 317 317 316 316 315 314 316 316 317 320 324 324 322 322 324 325 327 325 329 325 320 317 316 315 315 312 315 321 323 323 322 319 316 316 312 310 310 309 308 308 308 307 306 306 306 306
318 317 317 318 317 316 315 315 315 317 316 316 318 323 323 323 323 325 327 325 323 323 319 317 316 315 315 314 313 314 318 320 321 322 320 318 316 309 308 308 308 308 308 308 307 306 304 304 303
318 316 314 316 317 316 316 312 312 316 315 316 317 321 324 324 324 321 320 321 322 320 318 316 316 315 314 313 313 312 314 316 316 314 312 310 309 308 308 307 306 306 307 307 307 305 304 304 305
314 313 313 314 314 315 313 311 312 314 316 315 316 319 319 318 316 318 319 319 320 318 317 316 315 314 314 312 312 311 311 310 311 312 311 310 309 308 307 307 306 305 305 305 305 304 305 306 306
310 313 314 315 315 315 313 311 312 316 316 316 315 316 317 317 316 317 317 318 318 317 316 315 315 313 312 312 311 311 311 310 309 309 309 309 309 308 308 308 307 304 305 305 305 306 306 306 305
315 313 313 314 314 314 315 312 311 316 314 314 314 314 315 315 316 316 316 316 317 316 315 315 313 312 313 312 312 312 312 311 310 310 309 308 308 307 308 309 307 306 305 305 306 306 305 305 304
315 315 316 315 314 316 316 313 313 312 312 312 312 313 315 316 316 316 316 315 316 315 315 314 313 313 313 313 312 312 312 312 311 310 309 309 308 308 307 307 307 306 306 306 306 305 305 305 303
315 316 315 314 314 315 315 315 309 310 311 311 313 315 315 315 315 315 315 315 315 314 314 313 313 314 313 313 313 313 313 312 312 312 311 309 309 308 308 307 306 306 307 306 306 305 305 304 303
313 316 315 316 314 315 315 316 312 312 313 313 313 314 314 315 315 314 314 314 314 314 314 314 313 313 313 313 312 312 312 312 312 312 312 312 310 309 307 306 306 307 307 306 306 305 305 304 304
315 314 315 315 317 317 314 317 315 312 313 313 312 313 314 315 315 315 315 314 314 314 313 313 313 313 313 312 313 313 313 313 313 312 310 311 312 310 308 307 306 307 307 306 305 304 304 304 303
315 314 314 317 316 317 315 314 315 312 314 312 312 314 315 315 315 315 314 314 314 314 313 313 313 313 313 313 313 313 312 312 311 309 309 310 311 311 308 307 306 307 307 305 304 303 303 302 301
315 316 315 315 315 317 317 316 313 313 313 313 313 314 314 314 315 315 314 314 314 314 314 314 314 313 313 313 313 312 311 310 310 308 308 307 307 308 307 307 306 307 305 304 303 300 298 297 297
314 315 314 314 314 317 316 315 313 314 313 313 313 314 315 315 315 314 314 314 314 314 313 312 312 312 311 311 310 310 309 308 307 307 306 305 305 305 306 306 305 305 304 303 298 296 296 297 298
317 316 313 317 315 316 315 318 316 314 314 313 316 314 315 316 316 315 314 314 313 312 312 311 311 311 311 309 309 307 306 306 306 306 305 304 304 305 304 303 303 302 298 295 297 298 299 299 299
318 316 315 313 304 310 315 317 314 313 314 314 315 314 314 314 314 313 312 312 312 312 311 311 310 309 307 306 305 304 304 303 304 305 303 303 303 303 302 300 298 297 297 299 299 300 298 296 294
316 315 316 312 313 319 319 317 317 316 315 314 312 311 312 312 312 312 312 312 312 311 309 308 307 306 305 304 303 303 302 301 303 303 302 302 301 300 297 297 298 299 299 297 294 293 292 292 292
315 315 315 316 313 317 315 317 314 314 313 313 311 312 312 312 312 312 312 312 312 309 307 307 306 305 304 304 304 304 301 301 301 301 301 301 298 296 298 299 298 295 292 292 292 292 292 292 292
316 315 314 315 315 311 308 316 313 313 313 312 312 313 312 312 312 312 312 311 308 307 307 305 304 303 304 305 305 303 301 300 300 299 299 297 297 298 295 294 293 291 291 290 291 291 290 289 288

GFSSGP_850_thetae_006.txt.gz
Theta_e
310 311 313 316 311 307 311 313 311 316 333 333 332 331 332 335 332 327 335 336 325 321 322 326 331 333 332 335 336 338 336 336 336 335 333 332 329 326 330 333 329 325 325 326 327 329 328 325 324
311 312 314 314 309 310 311 312 325 324 334 335 335 334 336 337 336 335 335 335 332 322 318 321 323 325 325 328 328 329 330 332 330 326 327 331 333 329 327 325 324 324 325 327 331 329 324 324 326
313 314 313 306 306 311 314 313 327 331 331 329 336 336 336 338 336 336 335 334 332 324 320 318 317 318 319 319 320 320 322 323 324 320 322 324 326 332 333 332 330 326 325 325 324 323 324 325 324
314 313 311 308 311 312 314 315 327 328 331 334 336 334 336 338 334 332 330 329 327 322 321 321 319 317 315 315 315 315 315 316 317 317 318 317 318 321 320 316 313 313 318 324 326 326 324 325 324
313 312 306 308 311 312 314 319 321 324 327 328 331 334 336 336 331 332 327 323 321 319 318 316 316 315 314 314 315 315 316 317 317 317 316 316 318 320 319 319 318 318 318 319 321 325 326 327 327
312 309 306 308 310 310 312 317 321 324 325 330 331 333 334 332 329 330 328 323 321 318 317 317 319 317 316 316 317 318 318 318 318 318 318 320 319 318 316 314 314 315 316 318 319 318 316 314 316
308 304 307 308 309 311 311 312 312 314 317 323 328 332 334 335 334 332 331 327 325 322 321 321 320 319 319 318 319 320 321 319 319 318 318 318 317 316 316 314 312 311 311 314 318 319 319 320 320
312 304 308 308 308 310 310 313 313 314 316 323 325 331 332 331 334 335 333 331 330 328 327 325 324 319 316 315 316 319 320 322 320 319 318 317 317 317 315 312 309 309 310 311 312 314 314 314 315
312 305 307 310 310 312 311 312 313 315 319 318 324 323 326 328 334 335 336 333 331 330 328 330 325 318 316 315 314 316 317 320 322 322 319 317 317 316 311 310 309 309 310 310 308 308 309 310 313
308 306 311 310 309 311 312 312 313 315 320 323 322 323 325 331 333 334 335 333 329 329 327 329 324 319 316 314 314 314 314 314 317 317 319 317 315 314 311 309 309 309 309 309 309 307 308 309 310
312 311 311 313 312 312 313 314 314 314 315 320 319 323 327 332 334 334 333 331 326 329 330 330 324 319 316 315 316 314 314 315 317 319 316 315 314 313 311 309 310 310 308 307 308 306 307 310 308
313 313 313 314 314 314 313 314 314 313 315 316 318 320 323 327 329 332 333 328 328 328 331 330 321 317 315 315 314 313 314 318 321 322 320 317 315 313 311 310 310 310 309 308 308 306 306 307 307
315 314 315 316 315 315 315 314 314 314 316 316 317 323 323 323 323 327 328 326 329 330 329 329 319 316 315 314 313 313 315 318 319 320 320 319 318 317 315 310 308 308 308 308 308 308 307 306 305
317 316 316 316 316 316 315 315 315 316 316 315 316 321 323 322 320 322 324 325 327 326 327 323 317 315 315 314 313 313 313 314 315 315 317 318 316 312 309 308 308 307 307 307 308 308 307 305 304
317 316 312 314 314 315 315 312 312 315 314 315 315 321 322 322 321 322 322 323 323 322 326 320 316 315 314 313 312 312 311 311 310 311 313 312 311 310 309 308 307 307 306 306 307 307 306 305 304
311 310 312 313 313 314 312 312 311 314 315 316 314 317 323 322 324 326 321 320 320 322 322 318 316 315 313 312 311 311 311 311 310 310 309 309 309 308 308 307 307 307 307 305 304 305 305 304 305
308 312 313 312 313 314 313 312 312 313 315 317 315 314 321 325 325 318 317 317 320 322 319 316 315 313 312 312 312 312 311 311 311 311 311 310 309 308 308 307 307 307 307 306 305 305 305 306 306
314 312 313 313 313 313 314 312 311 312 313 313 312 312 315 316 316 316 316 316 316 317 316 315 314 312 313 313 313 312 312 312 312 312 312 311 310 309 309 308 307 307 307 306 306 305 305 305 305
314 313 315 313 313 315 314 312 309 309 310 311 310 311 313 314 315 315 316 316 315 315 315 314 313 313 313 313 313 313 313 312 313 312 312 312 311 311 309 308 308 307 307 306 306 306 306 305 305
314 315 312 312 313 315 314 314 309 310 310 310 312 314 315 315 315 315 315 315 314 314 314 313 313 313 313 313 312 312 312 312 312 313 312 312 312 310 310 309 309 308 307 307 306 306 306 306 305
313 314 314 315 313 314 312 314 311 311 312 312 313 314 314 315 315 314 314 314 314 314 314 313 313 313 312 312 312 311 312 313 313 312 311 311 309 309 309 310 309 307 307 307 306 307 307 306 306
315 313 314 314 316 317 312 316 314 310 312 310 312 313 314 314 314 314 315 315 314 314 313 313 313 312 312 312 313 312 312 311 311 310 309 308 308 308 308 308 309 309 307 307 306 307 307 306 305
315 314 315 315 315 315 314 313 313 310 313 312 312 313 314 314 314 314 314 314 313 313 313 312 313 313 313 313 312 311 310 309 309 308 307 307 306 306 307 307 306 307 307 306 307 307 306 306 304
314 315 312 313 313 316 316 315 313 312 312 312 312 313 314 314 314 314 314 313 313 313 313 313 313 312 311 311 311 309 307 306 306 305 304 303 304 304 304 304 304 304 306 305 306 305 304 302 301
313 312 311 313 313 316 315 314 312 313 312 312 313 314 314 313 312 312 313 313 314 313 312 311 311 311 309 308 307 307 306 304 303 302 301 301 303 303 303 302 303 304 304 303 303 302 300 298 297
316 314 311 315 313 314 313 317 315 313 312 313 313 312 314 314 314 314 313 313 312 312 311 311 309 309 308 306 305 304 303 302 301 301 300 300 303 302 302 302 302 302 300 299 298 298 298 297 298
317 315 314 312 302 309 314 315 314 312 313 314 313 313 312 312 312 312 312 312 312 312 312 310 307 306 306 304 303 303 302 301 300 301 300 301 302 301 301 300 299 298 297 297 299 299 298 299 297
315 313 314 311 312 316 316 315 315 314 312 310 309 311 312 312 312 312 312 312 312 311 308 307 306 305 304 303 302 302 302 300 299 299 300 301 301 300 298 297 298 298 298 299 299 298 293 292 292
315 314 313 314 312 312 313 315 312 312 311 310 310 312 312 312 312 312 312 312 312 309 308 307 304 302 301 301 303 303 301 299 298 299 299 299 298 297 297 297 297 297 295 292 291 292 292 291 291
314 314 312 309 312 309 307 312 311 311 311 311 312 312 312 312 311 310 310 311 311 308 308 307 305 304 304 304 303 301 299 298 299 298 297 296 295 295 294 296 294 292 292 291 290 290 290 290 289

GFSSGP_850_thetae_009.txt.gz
Theta_e
310 311 313 316 317 316 315 316 313 326 334 333 332 331 334 335 332 333 334 334 322 321 325 331 332 333 335 337 338 337 334 335 336 335 333 331 329 330 334 334 333 328 325 325 324 327 329 329 325
311 312 314 314 317 319 321 316 319 331 335 334 334 335 336 335 336 333 334 328 322 320 321 321 322 323 324 324 323 327 330 331 329 328 329 331 331 330 328 328 326 325 325 327 329 328 326 323 326
313 314 313 313 314 317 323 319 333 333 329 332 336 335 336 337 334 333 332 328 322 319 318 318 318 318 316 315 317 319 321 324 326 321 324 324 324 329 332 332 331 328 323 322 323 324 323 325 325
314 313 312 319 317 314 320 324 332 331 330 335 335 335 335 336 333 332 330 328 322 319 318 316 315 315 316 317 317 317 319 319 320 321 321 320 322 324 323 320 316 313 314 318 321 326 326 325 325
313 312 315 318 318 318 318 319 325 327 328 331 332 335 335 337 331 327 326 323 319 318 316 316 316 315 315 315 316 316 317 318 318 317 317 317 318 319 319 318 318 319 320 319 320 320 321 322 322
312 311 317 319 316 312 316 317 323 325 328 330 332 333 334 329 329 325 322 320 319 317 317 318 317 316 315 316 317 317 318 318 318 318 317 317 318 318 316 316 314 311 310 311 315 318 318 317 318
311 311 311 310 312 312 312 311 315 318 320 324 328 332 334 329 328 326 322 321 321 322 321 321 319 316 316 316 317 319 320 319 319 318 317 317 316 316 316 315 313 309 309 310 313 316 318 317 319
311 310 310 310 311 312 310 312 312 315 319 325 327 329 334 331 332 331 327 327 326 326 325 324 323 318 316 316 316 315 314 318 319 319 319 317 315 316 316 313 311 309 309 310 309 309 309 310 312
312 312 312 311 311 312 311 313 313 318 320 319 322 324 324 330 333 333 331 330 330 329 328 328 324 318 316 315 314 312 311 313 314 316 318 317 315 315 315 311 309 309 309 309 309 309 307 308 309
311 313 312 310 310 312 312 312 312 315 319 323 322 323 325 329 332 333 333 330 327 327 327 328 326 319 316 314 314 312 311 313 314 316 315 317 316 314 314 312 309 309 309 309 308 308 308 306 309
312 314 312 312 311 313 313 314 313 315 318 318 318 322 324 329 332 333 331 327 326 328 329 329 328 319 315 314 314 313 312 313 315 316 317 317 315 313 313 311 310 310 310 310 308 308 308 306 308
315 312 313 313 313 314 314 314 313 314 315 316 317 320 322 328 329 331 332 329 326 328 329 330 329 318 315 314 313 314 315 316 318 317 317 318 318 317 316 315 314 310 308 309 309 308 308 308 307
315 314 314 314 314 314 314 314 314 314 315 315 317 321 322 324 324 327 327 329 328 328 329 330 328 318 315 314 313 313 314 315 314 314 314 315 316 315 314 311 309 308 308 307 307 307 308 307 306
316 315 314 315 314 315 315 314 314 314 315 315 315 319 322 321 322 323 328 328 325 327 328 329 326 317 315 313 312 312 312 311 311 310 310 311 312 311 311 310 309 308 307 307 307 306 307 306 306
315 315 314 313 313 314 313 315 315 314 314 314 314 318 322 323 323 322 326 325 325 327 327 327 324 316 314 312 312 311 311 311 311 311 311 310 309 309 309 308 308 307 307 307 307 306 305 305 305
314 314 317 314 315 315 314 318 316 313 313 315 315 314 322 325 323 322 323 325 323 323 324 327 321 315 313 312 312 312 311 311 311 311 311 311 311 310 310 309 309 308 307 307 307 306 305 305 305
314 315 315 316 313 316 317 319 316 313 313 314 314 314 316 323 324 325 325 322 318 320 322 325 318 314 312 312 313 312 312 312 312 312 312 311 311 311 311 310 310 309 308 307 307 307 306 306 305
316 315 315 315 315 317 317 317 315 310 309 311 312 312 313 321 323 322 316 316 316 319 324 321 316 313 313 313 313 313 313 313 312 312 312 312 311 311 311 311 310 309 308 308 308 307 306 306 305
314 314 316 315 314 317 316 316 313 311 310 310 310 311 313 315 315 315 315 315 315 315 317 316 314 313 313 313 312 312 312 312 312 312 312 312 312 312 311 310 310 310 308 308 307 308 307 306 306
314 315 314 314 313 316 317 316 312 312 310 310 312 313 314 314 315 315 315 315 315 314 314 313 313 312 311 311 311 311 311 311 312 313 313 311 311 310 309 309 309 309 309 310 308 308 308 307 306
315 315 315 316 315 314 315 317 315 312 311 312 313 313 314 314 314 314 314 314 314 313 313 312 312 311 311 311 311 312 312 312 312 312 310 309 308 307 307 307 307 307 307 308 310 308 307 309 307
317 313 316 316 318 320 314 320 317 313 313 312 312 313 314 314 314 313 313 313 313 312 312 312 312 312 312 312 311 311 310 309 309 307 306 305 304 304 304 303 304 305 305 305 306 307 307 308 308
318 314 315 316 318 318 319 319 318 314 314 313 313 312 313 313 312 312 312 312 312 311 312 312 312 311 311 311 310 309 308 307 305 304 303 302 301 301 300 301 301 302 302 303 303 305 306 305 307
314 316 314 314 317 322 317 318 318 317 315 313 313 312 312 312 312 313 312 313 313 313 312 312 311 311 311 310 309 307 305 304 303 302 301 300 300 300 300 300 301 301 302 302 303 304 303 302 302
317 315 319 323 323 323 316 317 317 315 312 312 312 311 312 313 313 312 312 313 312 312 312 312 312 311 310 309 307 305 303 302 301 300 299 298 298 299 299 302 301 301 301 302 301 300 298 298 298
317 317 321 319 322 321 315 319 317 314 313 312 312 311 312 312 312 312 312 312 312 312 312 311 311 310 308 306 304 303 301 301 300 299 298 298 298 299 301 301 300 300 300 298 297 297 297 297 298
318 320 314 315 306 319 318 317 315 314 314 313 311 311 311 312 312 312 312 311 311 311 312 311 309 307 304 301 300 301 302 302 300 298 297 297 299 300 299 298 298 298 298 298 298 298 298 297 296
316 314 319 318 321 319 318 318 318 315 315 312 311 312 312 312 312 311 310 310 311 311 310 308 307 306 304 304 304 304 303 300 298 297 297 298 299 298 297 298 295 295 294 295 294 292 291 291 291
318 317 315 316 317 322 321 319 315 314 314 313 311 311 312 312 311 310 310 309 310 310 309 307 307 308 306 305 305 303 300 298 297 296 297 297 297 297 294 294 294 295 296 294 292 291 290 290 290
314 315 313 316 314 315 315 316 312 313 313 312 312 312 312 312 311 310 309 309 310 310 308 305 307 305 304 304 302 300 298 297 296 296 295 296 295 292 293 293 294 295 294 293 292 291 290 290 289

GFSSGP_850_thetae_012.txt.gz
Theta_e
310 311 314 317 321 325 326 326 329 335 335 335 333 332 335 336 336 338 335 331 328 333 335 332 331 333 334 336 338 337 335 336 336 333 332 332 331 333 334 334 333 332 327 325 325 325 327 327 327
311 313 315 318 322 323 325 325 329 334 334 334 334 334 332 333 334 335 333 326 325 324 329 329 328 330 330 333 335 334 334 335 334 333 332 331 330 330 332 332 330 326 325 327 329 327 324 324 324
312 314 318 321 322 325 325 327 334 334 333 334 334 335 335 332 334 334 331 322 320 321 324 322 321 320 320 320 322 324 327 327 327 323 326 327 329 330 330 331 332 330 327 322 320 322 324 323 325
314 315 319 322 322 324 326 330 330 332 334 334 329 331 334 336 335 334 329 321 324 324 321 317 316 316 316 316 316 317 318 319 319 320 321 321 320 320 320 319 316 315 315 316 317 319 323 328 327
313 317 323 323 324 325 328 330 331 330 331 333 332 333 333 337 336 333 331 326 324 323 317 315 315 315 315 315 316 316 317 318 318 318 318 317 318 319 319 317 316 314 314 314 315 318 319 319 318
317 320 322 323 323 325 326 326 326 325 327 330 330 330 332 335 333 332 326 326 325 318 316 316 316 316 316 316 316 317 318 318 318 318 318 317 317 317 317 316 315 311 308 310 312 315 318 319 319
319 321 321 321 322 321 321 321 323 323 324 324 327 328 332 333 331 329 327 325 318 321 323 321 317 317 316 316 316 318 319 319 319 319 318 317 316 316 317 316 314 311 309 310 311 310 310 311 311
315 318 317 318 317 316 315 316 316 319 324 328 327 324 329 330 332 330 328 327 328 327 327 324 320 317 316 316 315 315 312 317 318 319 319 317 316 316 316 316 311 310 309 309 310 310 310 308 309
313 317 317 316 316 316 315 316 316 319 321 321 323 325 327 332 333 333 331 330 331 330 327 326 326 318 316 315 315 312 311 313 314 314 315 316 322 316 315 314 311 310 309 309 310 308 308 309 307
317 318 316 315 316 317 316 316 316 317 318 320 323 326 330 334 334 334 334 330 332 332 330 328 326 319 315 315 315 315 313 324 320 321 316 317 314 314 314 313 312 310 310 310 309 309 308 309 315
317 317 316 315 315 316 316 315 315 316 317 317 318 324 330 333 334 333 332 327 328 330 332 332 329 320 316 321 323 326 325 324 323 315 316 320 316 321 321 323 321 319 316 315 314 310 315 311 309
317 316 316 315 315 316 316 316 316 316 316 317 318 322 327 330 330 329 329 328 327 329 332 335 331 322 316 322 325 325 325 325 325 326 315 319 324 324 322 322 321 319 319 317 317 317 310 307 308
318 318 317 316 315 316 315 317 318 317 316 315 320 324 325 327 327 328 328 327 329 331 334 336 335 326 316 314 318 315 314 324 322 324 322 312 322 323 321 318 317 317 317 317 317 317 316 312 308
319 319 318 317 317 317 318 318 318 317 316 316 319 323 325 326 325 326 328 329 331 332 334 336 331 326 316 314 312 312 312 317 317 321 319 311 311 316 317 317 316 316 316 316 316 315 312 312 310
318 320 320 318 318 318 316 319 319 316 316 316 317 320 324 325 325 325 326 329 331 330 332 334 329 326 316 313 312 312 313 311 315 317 311 311 311 313 311 316 316 316 315 314 315 315 313 311 311
320 320 320 319 319 319 320 321 319 318 317 318 318 318 322 324 326 328 330 329 326 326 328 331 327 326 316 312 312 313 315 311 312 312 312 312 311 311 311 315 316 315 313 315 315 315 314 313 311
319 318 319 320 319 320 321 321 321 317 316 319 318 318 319 323 327 326 323 323 323 321 320 328 328 322 315 312 313 312 312 313 316 312 312 312 312 312 312 312 313 313 313 312 314 314 314 313 311
318 318 319 318 319 319 320 321 319 316 315 318 319 318 317 321 324 322 324 321 316 317 321 327 326 319 314 312 312 312 312 312 312 312 312 312 312 312 311 311 311 312 315 314 314 314 313 312 311
318 318 319 318 318 320 321 320 318 317 317 318 317 317 318 320 318 316 315 315 314 316 323 322 320 316 313 312 312 313 313 313 313 313 312 312 311 310 310 309 310 309 312 313 311 313 314 314 312
318 319 319 319 318 320 321 320 318 317 317 317 318 317 318 317 316 316 315 315 315 315 315 316 315 313 312 311 311 311 311 312 312 312 312 311 310 308 306 306 306 308 309 310 311 312 313 314 313
320 319 320 320 320 320 321 322 319 317 317 316 317 317 317 317 316 315 315 314 314 314 314 313 312 311 311 311 312 312 312 311 311 310 309 308 306 304 302 302 302 301 304 307 308 310 311 311 312
320 318 320 320 321 322 321 323 320 318 318 317 317 317 316 316 315 314 315 313 312 312 312 312 312 312 311 311 310 310 310 310 309 308 307 305 304 302 301 300 299 300 301 304 306 307 308 309 310
321 319 320 321 322 322 323 323 322 319 318 317 317 316 316 315 315 315 314 314 313 312 312 311 312 311 311 310 310 309 309 308 308 307 306 304 303 302 302 301 298 299 300 302 301 302 305 307 308
319 320 320 321 324 326 323 323 323 321 319 318 316 316 316 316 314 314 314 314 314 313 312 312 312 311 311 310 308 307 306 306 306 305 303 303 302 302 302 301 298 300 301 302 302 302 302 303 303
321 322 324 327 327 326 320 321 322 318 317 317 317 317 316 316 315 315 314 314 314 313 312 312 312 311 310 309 307 305 305 304 304 304 303 302 301 301 301 300 302 302 301 301 301 300 300 299 299
321 322 325 324 324 323 320 321 322 318 317 316 316 315 315 315 314 314 314 313 313 313 312 312 311 310 309 308 307 303 300 304 303 302 300 299 299 299 299 301 301 301 301 301 300 301 298 298 298
321 323 319 322 317 325 321 321 319 318 317 316 316 316 315 315 314 314 313 313 313 312 312 311 311 311 310 308 305 303 304 304 302 298 297 297 297 299 300 301 300 299 299 298 297 296 296 294 293
320 319 322 321 327 318 317 319 319 320 319 316 316 316 315 315 314 314 313 312 312 312 312 311 310 309 308 307 304 304 303 300 298 297 297 298 299 300 300 299 298 297 296 295 296 295 294 294 294
321 321 319 319 321 321 320 317 319 318 317 316 316 315 315 314 314 313 312 311 311 311 310 309 309 307 305 304 303 302 300 298 297 297 297 297 297 296 297 296 296 295 295 295 294 293 294 293 293
318 319 318 319 318 319 320 317 316 317 316 315 315 314 314 314 313 313 312 311 311 309 308 306 306 304 303 302 301 300 298 297 297 297 297 297 297 296 296 295 295 294 294 294 293 292 292 291 291

GFSSGP_850_thetae_015.txt.gz
Theta_e
310 311 317 320 323 326 330 331 332 332 333 333 331 332 332 335 339 341 334 329 335 340 339 335 333 333 335 338 339 339 337 336 335 334 333 333 333 332 332 333 332 332 330 326 325 325 326 327 326
315 315 317 321 324 327 328 327 331 333 331 329 329 330 330 333 334 335 330 329 334 338 339 334 332 333 335 335 334 333 334 334 334 333 332 331 330 330 330 330 329 328 329 330 327 322 319 321 323
313 315 318 322 324 326 327 327 332 331 330 331 330 330 331 332 332 332 328 329 331 333 336 325 321 320 321 322 323 327 328 327 326 325 325 326 325 323 325 327 328 324 318 315 315 315 318 322 325
315 316 319 323 327 327 328 331 330 330 331 331 327 331 335 333 332 331 327 326 327 328 325 316 316 316 316 317 318 318 319 320 320 320 319 318 318 318 319 319 318 317 317 316 316 318 319 320 320
316 319 323 324 326 327 329 328 328 330 330 329 327 327 334 336 333 329 326 324 324 325 324 315 315 315 315 316 316 317 317 318 318 318 318 318 318 318 318 316 316 314 310 309 310 313 316 318 318
319 322 324 325 325 326 328 328 327 326 326 325 327 329 333 334 331 329 327 324 324 326 326 315 316 316 315 315 316 317 318 319 319 319 318 318 318 317 317 317 316 313 309 309 309 310 309 310 311
320 324 324 324 324 324 324 323 323 323 324 323 324 328 331 330 330 327 325 324 324 326 327 327 322 316 316 315 314 315 316 317 319 319 318 318 317 316 316 316 314 311 309 309 309 309 309 309 308
320 323 322 322 322 320 319 319 320 321 325 323 324 326 330 330 328 327 325 324 326 327 329 330 329 328 329 327 313 312 310 315 318 318 318 317 317 321 318 317 315 311 309 309 310 310 309 308 309
318 320 319 319 319 318 317 318 317 319 320 321 321 325 327 331 329 327 326 327 329 329 332 331 330 329 327 326 319 315 313 313 317 319 319 321 327 326 325 323 315 313 310 311 310 310 310 309 311
319 320 319 318 319 318 317 317 317 319 319 320 322 323 329 331 329 328 327 328 329 330 331 330 332 329 327 324 326 328 326 328 328 329 329 328 328 327 322 324 321 320 319 315 319 317 314 317 318
319 319 318 317 317 317 317 317 316 318 319 320 321 322 328 329 329 329 329 328 328 330 329 330 336 332 328 327 324 326 326 327 327 329 329 327 327 327 326 325 324 323 322 321 321 320 320 320 319
318 318 317 316 316 317 317 317 317 318 318 317 319 323 327 328 329 329 329 326 327 328 328 330 334 329 317 326 325 325 325 326 326 327 327 326 325 325 324 323 321 320 319 319 319 319 319 320 318
318 318 316 316 316 317 317 318 319 317 317 317 320 323 326 328 328 327 328 327 327 328 329 330 332 337 330 325 325 326 325 326 325 326 325 324 323 323 322 321 320 318 318 318 318 318 318 318 316
319 320 320 319 319 318 319 319 319 319 317 317 319 322 324 325 326 326 327 327 328 328 329 330 332 335 331 324 325 325 326 325 324 322 320 312 318 322 321 320 319 318 317 317 317 317 317 317 315
320 321 321 321 320 320 319 320 320 319 319 318 318 321 323 324 324 325 327 327 327 328 328 331 333 335 330 325 324 322 321 318 320 320 320 318 316 319 319 319 319 318 318 317 317 317 317 317 316
321 322 323 322 321 321 321 323 321 320 320 319 320 319 321 323 324 324 325 326 327 326 326 328 333 334 329 323 322 321 320 320 320 320 320 320 319 316 314 318 318 317 317 318 317 317 316 316 316
321 323 321 322 321 322 322 323 322 321 320 320 320 320 320 322 324 326 327 326 324 324 323 326 332 331 327 323 321 321 321 319 319 319 317 317 317 316 314 313 315 316 317 317 317 316 315 316 316
321 319 320 320 321 320 321 321 322 320 320 320 321 320 320 321 324 327 323 322 320 322 325 327 331 328 325 321 320 318 317 317 317 316 316 316 315 315 314 315 314 314 315 314 315 315 316 315 315
319 319 320 321 320 320 321 321 321 321 321 322 322 321 320 321 324 322 320 320 321 324 326 327 326 324 319 317 316 316 316 316 315 316 315 315 314 312 311 311 311 311 311 311 311 312 313 313 314
320 321 321 321 320 320 322 322 321 320 321 321 321 321 322 321 320 319 320 320 320 320 319 318 317 316 315 315 315 315 314 315 315 315 314 312 311 310 309 309 309 308 308 307 306 307 310 311 312
322 321 323 322 322 322 322 323 321 320 319 320 320 320 320 319 318 318 318 319 319 318 317 316 316 316 314 312 314 314 314 314 314 313 313 312 311 309 308 307 307 307 307 307 307 307 308 309 309
323 321 321 322 322 323 323 324 323 321 320 320 320 319 319 318 318 318 318 318 318 318 317 316 315 315 314 312 313 313 313 313 313 312 311 310 308 307 306 305 305 305 306 305 306 307 307 308 308
323 322 322 322 323 323 323 322 324 321 321 320 320 319 318 318 318 318 318 317 317 317 317 316 315 315 314 314 312 312 312 312 311 310 309 307 306 305 304 304 304 305 304 305 306 306 306 306 307
321 323 323 324 325 326 325 324 326 324 322 320 319 319 319 318 318 317 317 317 317 317 317 316 315 314 314 313 312 311 310 310 309 308 307 306 305 304 303 303 303 303 305 305 305 304 303 301 301
323 324 328 328 328 328 323 321 325 321 321 320 319 319 319 319 319 318 317 317 316 316 316 315 315 315 313 312 311 311 309 309 308 306 305 303 302 301 301 302 303 303 303 302 302 301 301 299 299
322 324 328 325 326 324 323 321 324 321 319 319 318 318 318 318 317 317 316 316 316 315 315 315 314 314 313 313 312 310 309 307 305 304 302 301 300 300 301 302 303 301 301 301 300 300 299 298 297
323 324 321 325 322 326 322 322 322 321 320 319 318 318 318 317 316 316 316 315 315 315 314 314 313 312 311 311 310 308 306 305 303 301 300 299 300 300 301 301 300 299 299 298 298 298 296 295 295
322 321 325 323 326 320 319 318 322 322 321 319 318 318 317 317 316 316 315 315 314 314 313 312 311 311 310 308 307 306 305 303 300 299 299 299 299 299 298 298 298 297 297 297 296 295 295 295 295
323 323 321 319 321 322 320 319 319 319 319 318 317 316 316 316 316 315 314 314 313 313 312 311 309 308 307 306 304 303 302 301 299 299 299 298 298 297 297 297 297 296 295 295 294 295 295 294 294
320 321 320 320 318 319 320 320 318 318 317 316 316 316 316 315 315 314 314 313 313 312 310 308 307 305 304 303 302 301 300 300 299 299 297 297 296 297 297 295 295 294 294 294 293 293 293 293 293

GFSSGP_850_thetae_018.txt.gz
Theta_e
310 311 315 319 322 323 324 331 333 333 333 331 331 330 332 336 340 339 332 337 340 339 335 335 334 334 336 338 338 336 335 335 335 334 333 332 332 331 331 331 331 330 328 328 329 327 324 318 315
311 316 317 319 323 325 329 330 332 331 329 327 330 329 332 334 334 330 333 338 340 342 338 332 332 334 334 332 331 332 332 332 331 330 327 327 327 327 327 327 327 328 325 317 315 315 315 316 317
313 317 317 321 323 324 328 330 332 329 328 330 330 333 332 332 332 329 332 336 337 339 330 326 322 320 319 318 319 322 324 324 323 322 322 320 319 319 319 319 318 317 317 316 315 313 314 316 317
315 316 316 320 323 327 327 331 330 329 330 330 329 332 332 332 330 328 329 331 332 325 316 315 314 315 315 315 316 317 318 318 319 318 318 318 318 318 318 318 316 315 312 309 309 310 312 315 317
317 318 319 323 327 329 330 329 328 329 329 328 328 333 334 332 328 326 326 327 327 316 314 315 315 315 315 315 315 315 317 318 318 318 318 318 317 317 316 316 316 314 309 308 309 309 309 308 308
316 318 321 324 327 328 328 327 328 330 328 325 328 332 334 331 328 325 324 325 325 322 315 316 316 315 315 315 315 315 317 317 318 318 318 317 317 315 314 315 315 312 310 309 309 309 309 309 308
318 319 320 326 326 326 327 325 324 324 325 324 326 331 332 330 329 325 324 323 325 326 320 318 317 317 319 315 311 312 311 315 317 318 319 316 317 319 316 315 315 312 310 309 310 310 310 309 309
318 319 320 324 323 323 321 323 322 323 324 323 325 330 330 330 327 325 324 324 325 328 329 330 329 327 329 327 314 310 310 312 313 316 316 326 328 327 326 323 319 314 313 311 311 312 310 310 309
318 320 322 321 321 319 318 318 318 320 321 321 325 326 329 329 326 325 324 326 327 329 331 330 328 328 327 325 325 323 318 329 328 330 325 330 328 327 325 323 324 323 321 318 318 319 317 317 318
319 320 319 319 319 319 318 318 317 320 319 321 324 330 330 328 327 326 326 327 329 330 331 330 330 327 324 324 327 328 327 328 327 328 326 329 326 327 325 326 325 323 321 320 322 320 320 320 320
319 319 319 318 317 318 317 317 318 319 319 321 321 329 330 329 328 327 327 328 329 329 330 332 329 328 330 325 325 327 327 327 328 330 329 327 325 326 325 324 323 321 320 320 319 320 320 320 319
319 318 317 317 317 317 317 317 317 318 319 319 321 324 329 328 328 329 328 328 328 329 329 332 332 322 318 327 326 326 327 327 327 327 326 319 322 322 319 321 318 319 318 318 318 318 318 318 319
318 317 317 316 316 317 317 318 319 318 318 318 322 323 327 327 328 329 329 327 327 328 329 330 331 328 331 320 325 324 323 327 325 326 324 313 314 315 316 318 319 318 318 317 317 317 317 317 317
318 318 318 318 318 317 318 319 319 319 317 318 321 324 326 328 328 328 328 327 327 328 329 329 333 331 328 324 325 322 325 325 323 322 322 314 314 314 314 314 314 316 318 318 316 316 317 317 317
320 320 320 320 319 319 319 320 319 319 318 318 319 321 324 325 326 326 327 328 327 329 329 330 329 336 332 326 324 323 323 319 320 320 320 319 317 314 314 314 314 316 316 315 314 316 317 316 316
320 322 322 321 321 321 320 322 320 320 319 319 318 319 322 324 324 325 327 327 327 327 328 328 333 334 333 325 323 322 321 320 319 320 320 320 319 318 315 314 314 315 315 313 313 313 315 317 316
321 322 323 322 321 323 321 322 321 321 321 321 320 320 320 322 324 324 325 326 326 325 324 324 331 333 332 326 323 322 321 318 321 320 318 317 317 316 316 314 313 313 313 311 311 314 315 316 316
321 321 320 320 322 320 320 321 323 322 321 321 320 321 320 320 323 326 326 324 322 322 323 326 332 332 328 324 322 319 318 317 317 317 316 316 316 315 315 313 311 312 312 311 311 312 312 311 310
320 320 320 322 321 320 319 321 322 321 322 322 322 322 321 324 324 323 322 321 322 326 328 330 329 327 322 319 317 317 316 316 316 316 316 316 314 313 312 311 310 309 309 309 309 309 307 306 308
320 321 321 322 321 320 320 322 321 321 322 322 322 321 323 322 321 322 322 321 322 322 322 321 319 317 316 316 316 315 315 315 315 314 315 314 313 312 311 310 308 307 306 306 305 307 309 310 310
322 321 324 322 321 322 321 322 321 321 321 321 321 322 321 320 320 320 320 320 319 318 318 317 317 316 315 313 315 315 313 314 314 314 314 313 312 311 308 307 306 305 305 305 305 302 303 307 309
322 323 322 321 322 323 322 322 322 321 320 320 320 320 319 319 319 319 320 320 319 318 317 316 316 316 315 314 313 314 313 314 313 312 311 311 310 307 306 306 304 304 304 303 302 306 306 306 307
323 322 321 322 323 323 322 323 324 322 321 321 321 320 319 320 319 319 319 319 318 318 318 317 316 316 315 314 314 313 312 311 311 310 309 308 306 306 305 302 302 302 301 303 305 306 306 306 306
321 324 324 324 324 330 323 324 326 323 322 321 320 320 319 319 319 319 318 318 318 318 317 317 316 316 315 314 313 312 311 310 309 308 307 306 305 301 300 300 300 302 304 304 304 303 302 301 300
323 324 331 333 334 333 325 321 326 323 322 321 320 320 320 320 319 319 318 318 317 317 316 316 316 315 314 314 313 312 311 310 308 306 305 303 300 300 299 301 302 303 303 301 300 300 300 300 299
323 323 333 329 331 327 322 321 323 322 320 320 320 319 319 319 318 318 317 316 316 316 316 315 315 314 312 312 311 311 309 307 306 305 303 300 299 299 299 300 298 299 300 300 299 299 298 297 296
323 324 320 325 324 328 321 324 322 321 320 319 319 319 319 318 317 317 317 316 316 315 314 314 313 312 311 310 308 307 307 305 304 303 300 299 299 299 298 298 298 298 298 298 297 296 296 295 295
321 320 325 329 328 323 319 320 323 322 321 320 319 318 317 317 317 317 316 315 315 314 314 313 311 310 309 308 306 305 304 303 302 300 300 299 299 297 296 297 298 297 297 296 295 295 294 294 295
322 323 321 320 323 325 323 319 318 318 320 319 318 317 317 317 316 316 315 314 314 313 312 311 310 308 306 305 304 303 301 300 300 300 300 299 297 295 295 296 295 295 294 293 292 293 292 292 292
319 320 320 327 321 326 324 320 318 318 318 318 317 316 317 316 315 314 314 314 312 311 311 309 307 305 305 304 303 301 300 300 300 299 297 296 295 296 295 294 294 293 293 293 292 291 291 291 291

GFSSGP_850_thetae_021.txt.gz
Theta_e
310 310 316 317 318 317 319 323 330 329 327 331 333 335 333 333 335 335 341 340 339 336 336 335 336 336 337 337 335 332 332 332 332 331 329 327 326 324 323 323 324 324 323 320 317 315 315 315 315
310 316 317 318 318 319 322 328 327 325 327 332 332 332 330 330 334 339 340 340 337 334 334 333 333 335 333 326 324 324 324 325 324 321 320 319 318 317 317 318 317 316 316 315 313 311 310 311 313
310 316 317 316 317 319 323 328 325 326 329 331 333 332 331 329 331 339 341 340 340 333 330 330 325 320 318 317 317 317 318 318 318 318 317 316 316 316 316 316 315 315 313 309 308 308 308 310 313
314 316 315 315 317 322 328 327 328 329 330 331 332 331 330 329 333 336 336 336 333 324 317 315 314 315 315 315 315 316 316 317 317 317 317 317 316 316 315 315 315 314 310 308 308 308 308 308 308
317 317 314 317 320 327 325 327 328 327 328 333 333 330 327 328 329 332 332 330 316 314 314 315 315 315 315 314 314 314 314 316 316 317 317 316 315 314 314 315 315 312 310 308 309 309 309 309 308
316 316 315 317 324 326 324 325 329 328 327 333 333 330 326 326 326 327 326 325 313 315 315 316 316 315 314 313 311 312 312 314 316 317 316 315 315 316 317 314 314 312 311 309 309 310 309 309 309
316 315 316 316 321 325 323 323 322 325 323 331 333 330 327 326 324 324 325 323 316 316 317 318 317 320 318 312 309 308 310 312 312 313 315 324 325 324 323 319 318 316 315 313 312 313 314 312 310
317 315 316 317 322 319 321 319 324 322 321 330 331 330 328 327 324 324 323 324 327 327 327 329 326 326 325 320 310 310 313 317 323 323 328 327 325 324 322 325 323 323 319 319 320 319 317 316 316
319 313 315 315 316 316 319 316 318 322 322 327 327 330 329 326 324 323 324 326 328 330 330 329 328 324 326 325 327 323 323 322 323 323 328 327 326 325 324 325 323 322 319 320 320 318 319 319 318
316 313 314 315 314 313 316 316 317 319 322 329 329 330 329 326 324 324 326 327 328 330 330 329 328 321 324 325 327 327 327 327 328 326 324 326 326 326 325 324 322 319 319 319 317 317 317 318 318
317 314 314 315 316 317 315 316 318 318 316 328 329 329 327 326 325 325 326 328 329 330 331 330 325 327 327 325 327 327 327 326 327 329 327 319 324 324 322 318 316 316 317 317 317 317 317 317 317
315 315 316 316 316 316 314 316 316 317 319 322 330 330 328 328 326 326 326 327 329 330 331 331 329 316 325 327 326 326 327 326 328 327 322 314 316 316 314 314 313 314 316 316 316 316 314 314 315
314 314 316 316 317 317 317 317 317 317 319 321 329 329 328 328 327 328 328 327 328 329 330 328 328 317 316 318 323 323 326 326 326 323 319 314 314 314 313 313 314 314 314 315 315 315 313 315 316
316 316 315 316 317 317 316 318 318 317 318 321 327 329 328 327 328 328 329 328 327 328 328 329 332 330 324 321 318 315 321 325 322 321 319 318 315 315 314 314 314 314 315 316 316 315 313 314 316
318 316 316 316 317 317 318 317 316 317 317 320 323 327 327 327 328 328 328 328 327 328 329 331 330 325 324 327 320 321 326 322 321 320 319 319 319 318 317 316 314 314 314 314 313 312 311 312 311
318 317 317 317 317 318 317 316 316 318 317 319 319 322 325 327 327 328 326 328 328 328 330 331 329 329 329 326 324 321 321 321 318 320 320 320 320 319 318 316 315 313 313 312 311 311 311 313 315
318 316 319 318 319 318 317 317 317 319 319 318 319 319 321 324 326 326 327 327 326 325 325 330 331 330 329 325 323 321 321 320 319 320 317 317 318 317 316 315 314 312 311 310 311 311 311 312 313
319 317 319 318 318 318 317 317 317 319 320 321 320 319 319 322 324 324 324 324 323 323 323 330 330 329 325 324 322 320 320 318 317 317 316 316 316 316 314 313 312 312 309 308 308 307 308 308 306
318 318 318 318 318 318 318 315 318 320 321 320 320 321 322 322 322 322 322 322 322 324 322 326 329 328 325 319 318 317 317 316 316 315 314 315 314 314 313 312 310 308 308 306 305 305 304 303 303
319 320 321 319 319 318 317 318 317 319 320 320 321 321 321 321 321 322 322 323 324 325 326 327 325 320 317 316 316 315 315 314 315 315 314 313 312 312 311 310 309 307 306 305 304 304 304 302 303
321 321 320 320 318 319 319 317 318 319 320 320 320 320 320 320 320 320 319 319 318 318 317 317 316 315 315 314 315 315 314 314 314 314 314 313 312 310 310 309 306 305 303 302 302 301 301 305 306
323 322 321 320 319 319 317 318 318 318 318 318 318 319 319 320 320 320 319 318 317 317 316 316 316 316 315 315 314 314 313 312 311 311 310 310 309 309 308 306 304 300 298 298 300 304 305 305 305
322 321 321 321 320 320 320 319 318 317 319 318 318 319 319 319 319 319 319 318 318 318 317 316 316 316 315 314 314 313 312 311 310 310 309 309 308 306 304 299 298 299 301 303 304 304 302 301 300
320 322 322 322 321 321 325 322 324 319 320 319 318 319 319 319 319 318 318 318 318 317 316 316 316 316 314 313 313 313 312 311 311 310 309 307 305 300 298 299 300 300 300 300 300 300 299 298 299
321 321 322 323 323 323 325 324 324 320 319 319 318 319 319 319 318 318 318 318 317 316 316 316 316 316 314 313 312 311 311 310 309 308 305 303 299 298 298 297 297 298 298 297 296 298 297 298 296
322 322 318 326 322 321 322 323 320 318 319 319 319 319 319 319 318 318 317 316 316 316 315 315 314 314 313 311 310 309 308 307 305 303 302 300 299 299 299 297 296 297 297 297 297 297 296 295 294
321 319 319 321 320 317 320 321 319 318 319 319 318 319 319 318 317 317 316 316 315 314 314 314 313 311 310 309 308 306 305 303 302 301 300 300 299 299 297 294 295 296 296 295 294 293 293 293 293
319 318 320 317 320 321 318 322 323 320 320 320 318 317 317 316 315 315 314 314 314 313 313 312 311 310 308 307 306 305 304 303 300 300 300 300 300 298 294 294 294 294 294 293 293 292 292 291 291
319 321 319 318 316 317 316 316 316 319 320 319 316 317 316 315 314 314 314 314 313 312 311 310 309 307 305 305 305 304 303 299 299 299 299 299 299 294 295 294 293 292 291 290 290 290 290 290 291
318 319 319 314 318 313 313 315 315 315 316 317 315 315 315 314 314 313 313 312 311 310 309 308 306 304 304 303 304 303 301 299 299 299 299 298 297 294 294 293 292 291 290 290 290 290 289 289 290

GFSSGP_850_thetae_024.txt.gz
Theta_e
310 309 314 317 317 316 317 319 328 329 331 332 333 331 330 332 334 338 341 339 338 336 335 336 336 335 335 335 331 330 329 328 326 323 320 319 317 317 316 316 315 315 315 314 313 312 310 310 311
309 315 317 317 316 319 322 325 332 331 331 329 330 334 335 337 341 341 339 337 336 336 335 336 335 335 332 325 322 320 319 318 317 317 316 315 315 315 315 314 313 313 313 309 308 308 308 309 311
310 316 316 314 315 316 323 325 325 329 331 332 331 330 330 334 339 340 338 335 335 334 334 333 333 323 317 315 315 316 316 316 316 316 315 315 315 314 312 311 313 313 310 307 307 307 307 307 307
314 316 315 314 314 316 326 325 330 331 331 331 329 328 331 337 339 339 340 338 332 331 331 322 315 314 315 315 315 315 315 316 315 315 315 315 314 312 311 312 313 312 310 308 308 309 309 309 308
316 317 313 315 318 325 324 325 329 330 331 329 329 328 329 336 338 337 334 332 327 319 314 315 315 315 314 314 314 314 313 314 314 315 316 314 312 311 311 312 313 311 311 310 309 309 309 309 309
316 315 314 315 320 326 322 327 331 331 328 327 327 327 328 334 334 332 328 318 314 314 315 315 315 314 313 311 310 310 311 313 314 314 312 312 315 317 316 315 315 315 314 313 313 313 314 313 311
315 313 315 314 316 322 322 326 327 332 332 331 327 325 326 332 331 327 319 314 315 315 316 317 318 317 311 308 307 309 310 311 311 313 317 319 317 317 319 319 319 318 316 316 317 315 314 315 314
317 313 315 314 321 321 321 321 327 331 329 329 327 326 323 325 325 325 321 315 317 321 325 324 321 319 316 311 309 310 313 315 317 319 323 322 321 320 319 319 319 318 318 316 315 313 313 314 315
317 313 312 314 318 317 316 317 322 331 331 328 330 325 324 324 324 323 323 326 328 329 328 328 321 322 325 326 325 324 323 323 320 320 323 320 318 320 318 317 317 316 316 316 314 313 314 313 314
315 311 313 313 315 313 315 318 319 325 329 328 328 326 324 324 323 323 326 327 329 329 329 329 319 323 324 326 327 327 326 325 325 325 321 316 320 321 321 318 314 313 313 314 314 314 314 313 313
313 313 313 314 315 316 315 316 319 325 326 329 327 326 324 323 323 323 326 326 328 330 329 330 322 323 324 325 327 327 327 326 326 326 325 317 317 317 314 313 312 313 314 314 314 314 315 314 314
313 313 315 315 314 315 314 316 315 318 325 326 329 327 325 324 324 324 325 327 329 330 330 330 320 318 324 326 326 326 326 326 327 327 323 315 315 316 314 313 313 314 314 314 315 315 315 315 312
312 313 314 316 316 315 315 315 316 315 325 327 329 328 326 325 325 325 326 327 329 330 330 330 319 326 323 324 325 326 326 325 325 326 321 317 314 314 314 315 315 315 316 316 317 317 317 315 312
314 314 314 315 316 316 316 316 317 317 326 329 328 328 326 324 325 327 326 326 329 330 331 330 326 318 324 321 322 320 324 327 326 323 320 319 318 317 316 316 315 315 314 314 314 315 314 312 311
315 313 314 314 316 316 318 317 314 319 328 329 329 328 327 326 327 327 328 327 327 329 330 330 329 324 323 327 324 320 322 324 322 321 320 320 320 319 318 317 317 315 313 312 312 311 311 311 310
316 314 315 316 315 317 316 315 315 319 326 328 329 328 327 327 327 328 328 328 328 328 330 331 330 328 326 325 326 323 321 321 320 320 320 320 320 319 319 317 316 314 313 313 312 311 310 309 308
314 314 316 317 315 316 315 315 315 316 321 324 327 327 326 325 326 326 327 327 327 328 330 330 331 328 327 326 324 321 321 321 320 320 317 319 319 318 317 316 314 313 313 312 311 309 307 305 304
315 316 316 316 316 316 316 315 315 315 316 317 315 319 322 324 324 325 325 325 326 329 331 331 328 326 325 324 322 322 321 319 317 316 315 315 315 314 313 312 311 311 311 310 307 306 305 302 302
316 316 316 317 317 317 315 316 317 318 317 318 320 321 322 323 324 325 326 328 330 330 330 328 327 324 323 321 320 318 316 315 314 315 314 313 313 313 312 312 311 309 308 306 305 305 302 301 300
318 318 318 317 318 316 315 315 317 316 317 320 320 320 321 321 323 323 322 323 323 320 318 318 318 318 316 316 315 315 315 314 314 314 314 313 312 312 311 309 309 307 306 305 304 300 298 299 302
320 319 320 319 318 316 314 316 317 317 319 319 320 320 320 319 319 319 319 319 319 318 316 315 315 315 315 314 314 314 314 313 313 313 313 311 310 310 309 307 306 304 301 298 298 300 302 303 302
322 320 319 319 317 317 315 316 316 316 316 316 317 320 320 319 319 318 317 316 316 315 315 315 315 315 315 315 315 314 313 313 312 312 311 310 309 308 306 303 297 296 295 298 300 302 300 300 300
320 320 320 320 318 319 319 315 316 317 318 317 316 319 320 319 318 318 317 317 317 317 317 316 315 315 314 315 314 313 313 312 312 311 310 309 308 305 299 297 296 296 295 295 297 297 295 298 298
319 321 320 319 318 319 323 318 318 316 317 317 317 318 319 318 318 318 317 318 317 317 316 316 316 315 315 315 314 313 312 311 311 310 308 307 305 299 297 298 298 297 294 296 296 296 297 297 296
317 319 319 321 320 321 323 323 321 318 317 317 316 317 318 318 318 318 317 317 317 316 316 316 315 315 314 313 312 311 310 309 307 305 304 303 299 298 298 299 297 294 294 295 295 294 293 293 293
320 319 316 326 319 318 318 322 319 318 318 318 318 318 318 318 318 318 318 317 316 315 314 314 314 313 313 312 311 309 308 307 305 303 302 299 298 299 299 299 294 293 293 294 293 293 292 292 292
320 317 317 318 315 315 319 319 318 317 318 318 319 319 318 316 316 315 315 314 314 313 313 313 312 311 310 309 308 307 306 305 303 302 299 298 298 299 299 296 293 293 293 293 291 291 290 290 290
316 316 318 314 318 320 316 320 320 318 318 316 315 315 316 315 315 315 314 314 313 312 311 310 310 308 307 306 305 304 303 303 303 301 299 299 298 299 299 295 293 293 292 292 290 290 290 290 289
317 318 316 314 313 316 315 314 313 318 318 314 314 314 315 314 314 314 313 312 311 311 309 308 307 305 304 303 302 302 302 302 301 300 299 299 299 298 297 294 293 293 292 290 290 289 289 289 289
317 318 315 311 316 311 310 312 314 313 314 315 314 314 314 313 313 312 311 311 310 307 305 304 303 303 302 302 301 301 302 301 301 300 300 298 298 298 297 296 293 292 290 290 289 289 288 288 288

GFSSGP_850_thetae_027.txt.gz
Theta_e
309 310 315 318 317 315 316 318 327 329 331 331 333 333 333 336 335 336 339 339 337 335 336 336 335 334 334 333 330 329 328 325 321 317 316 315 314 314 314 313 312 312 312 309 308 308 308 309 311
309 316 317 317 316 317 323 323 331 331 331 333 334 335 336 341 340 340 339 338 336 335 336 336 335 334 334 328 324 321 318 316 316 315 315 314 314 314 311 310 312 312 308 307 307 307 307 307 307
312 316 316 313 313 316 321 325 330 330 330 331 329 330 333 340 339 339 338 337 336 336 336 336 335 332 322 317 316 317 316 315 315 314 314 314 313 310 309 311 312 311 309 308 308 309 309 308 308
314 316 314 313 313 314 321 324 329 330 330 330 330 330 334 338 339 338 336 336 336 336 335 334 326 316 315 315 315 315 314 314 314 313 314 314 311 309 310 311 311 310 310 310 309 309 309 309 309
316 315 313 313 314 322 322 327 330 330 329 329 329 329 332 335 339 337 335 335 334 333 329 318 315 314 314 314 313 312 312 312 313 314 313 311 311 312 312 313 313 313 313 312 312 313 313 313 310
315 314 312 318 321 321 320 331 330 328 328 329 330 330 333 340 337 335 334 332 330 318 315 315 315 314 312 311 310 310 311 312 312 311 312 316 316 316 316 316 315 313 313 314 314 312 313 314 314
314 312 314 314 320 323 324 325 329 328 329 328 329 323 339 338 331 326 327 318 315 315 315 315 314 311 309 308 308 309 309 310 311 314 317 317 317 316 314 314 313 312 312 312 311 311 311 311 312
317 312 314 314 322 325 323 322 330 331 329 326 327 324 332 331 322 316 314 315 315 316 318 319 316 313 308 308 309 310 312 314 316 319 319 319 319 317 316 313 313 313 313 312 312 312 312 312 311
316 313 313 314 323 324 325 317 328 330 327 327 328 327 331 325 317 314 315 317 321 325 324 318 319 321 319 321 319 319 320 318 317 319 320 318 317 316 314 313 313 313 313 313 314 314 314 313 313
315 312 313 313 315 317 318 324 329 329 328 326 325 327 329 323 321 318 316 321 327 327 327 324 316 321 326 326 326 325 322 322 322 322 317 316 316 317 315 313 313 314 315 316 316 316 316 316 315
313 313 312 312 316 319 316 321 322 327 327 326 323 326 325 324 323 321 321 322 324 328 328 326 321 323 325 325 325 324 324 321 321 321 320 314 316 316 314 314 314 315 316 316 316 316 316 316 316
313 313 313 314 314 314 312 316 324 319 327 326 325 324 324 324 323 323 322 324 328 329 329 327 321 324 323 324 325 323 323 325 324 322 322 317 314 315 314 315 315 316 316 316 316 315 314 315 314
312 312 314 314 314 314 314 315 315 316 327 326 325 324 324 323 323 323 320 325 328 329 329 329 324 323 323 324 324 325 324 325 325 325 325 320 315 315 315 315 316 314 314 314 313 313 312 312 312
313 312 313 315 315 315 314 315 316 318 327 326 326 324 324 323 323 322 323 326 328 330 330 329 323 323 324 323 323 324 325 325 325 325 324 321 320 319 319 318 317 316 315 314 313 312 312 312 311
313 312 313 313 315 315 317 315 314 324 327 327 326 326 325 325 324 323 324 325 327 329 330 330 323 323 323 323 324 323 322 325 324 323 322 321 320 320 319 319 318 316 315 314 313 312 312 312 310
314 312 313 314 314 314 314 313 314 325 327 327 326 326 325 324 324 324 324 324 326 328 330 329 322 325 325 327 326 323 324 324 322 322 321 320 320 320 319 317 316 314 313 313 312 312 312 311 308
311 314 315 317 314 314 314 314 314 322 327 326 326 326 326 325 325 326 326 326 325 327 330 329 322 328 326 325 325 323 323 320 319 319 319 319 319 319 318 316 313 312 312 312 311 310 308 306 305
314 316 314 315 314 314 315 313 313 318 324 321 322 324 324 324 325 325 326 327 326 326 330 329 329 327 326 325 324 321 321 320 318 317 317 317 316 315 313 312 312 311 310 310 309 307 306 305 303
315 315 315 315 315 314 315 313 312 312 314 318 320 321 323 326 328 327 327 328 327 328 329 329 327 327 324 323 322 321 320 316 315 314 314 314 313 312 311 310 309 309 308 307 305 303 301 298 298
317 315 317 317 316 314 313 313 315 316 317 318 319 319 321 323 324 327 329 330 330 329 326 324 323 323 320 318 317 315 314 314 313 313 313 312 311 311 311 310 309 306 304 300 296 295 295 297 299
319 318 318 318 316 313 314 314 315 317 318 318 318 318 319 320 320 321 322 322 321 319 317 316 316 315 315 314 314 314 314 314 313 311 311 311 311 310 310 307 301 297 296 295 293 294 296 297 296
322 319 318 318 315 314 313 316 317 315 315 316 318 319 318 318 319 319 318 317 316 315 315 315 315 314 314 313 313 312 312 312 312 312 311 311 310 309 306 301 296 296 295 294 293 294 295 296 295
319 318 318 318 316 317 319 315 315 316 317 316 317 318 318 318 317 317 316 316 316 316 316 316 315 315 315 315 314 314 313 312 311 311 310 308 306 303 298 296 296 295 293 292 292 293 294 294 295
318 319 318 317 316 318 321 315 315 315 316 316 316 319 318 318 317 317 317 317 316 316 316 316 315 315 315 314 314 313 312 311 310 308 306 301 300 298 297 296 295 295 293 292 292 293 293 293 292
317 318 318 320 318 320 318 320 317 316 315 316 316 318 318 318 317 317 317 317 316 316 316 315 315 314 313 313 312 311 310 308 306 304 301 302 301 300 298 297 298 297 293 292 292 292 292 291 291
319 317 316 325 319 317 317 321 318 316 316 317 318 318 318 317 317 317 317 317 316 315 314 314 313 312 311 310 309 308 307 305 302 301 301 301 300 300 299 298 298 297 293 292 292 292 291 290 290
319 316 315 315 312 315 317 318 317 317 315 316 317 317 316 316 317 317 317 316 315 314 313 312 311 310 309 308 306 304 303 302 301 301 301 300 300 299 299 299 298 294 293 292 292 291 290 289 289
315 315 318 312 316 319 315 319 317 317 316 315 314 314 315 315 315 314 314 314 313 312 311 310 308 307 306 304 302 302 301 302 301 301 300 300 299 299 299 298 295 294 293 292 291 290 289 289 289
316 316 314 313 311 314 313 314 310 315 315 313 312 314 314 314 313 313 312 312 311 311 308 305 305 303 302 302 301 300 301 301 300 300 299 300 299 299 298 296 294 293 292 292 290 289 288 288 287
316 317 312 308 313 309 309 311 311 313 314 314 313 314 314 313 312 312 312 311 310 307 305 303 303 302 302 301 300 300 300 299 297 296 297 298 298 297 296 296 296 294 290 290 290 289 288 288 288

GFSSGP_850_thetae_030.txt.gz
Theta_e
310 309 316 317 315 315 316 317 324 329 332 331 334 336 337 338 336 336 339 338 337 337 336 336 335 334 333 332 331 329 327 323 318 316 314 313 313 313 311 310 311 310 307 307 306 306 306 307 307
309 314 317 317 315 315 319 319 331 331 333 333 333 335 337 341 339 340 339 339 337 335 335 335 335 334 333 329 326 321 317 315 314 314 313 313 313 309 310 311 310 308 308 308 308 308 308 307 307
312 316 316 310 312 315 318 326 331 331 330 329 329 331 335 339 340 339 339 338 336 336 336 336 335 334 328 320 315 315 315 314 314 313 313 313 309 309 310 311 310 309 309 309 309 309 309 309 308
315 316 313 311 314 314 318 327 330 329 330 330 330 329 331 337 339 339 337 336 336 336 336 336 335 325 316 314 315 315 314 313 312 313 313 309 309 310 311 311 311 311 311 311 312 313 313 311 309
315 314 308 312 314 318 318 328 329 329 329 329 328 329 332 338 339 337 337 336 336 336 336 333 320 315 314 314 314 312 310 311 312 312 310 312 313 314 315 315 313 313 315 313 311 312 313 314 315
315 312 309 321 321 320 325 330 329 328 328 329 331 331 335 337 337 335 336 336 336 335 327 316 315 314 313 312 310 309 310 311 310 312 315 315 315 314 313 312 311 312 311 310 311 310 310 310 311
313 308 310 323 325 322 323 330 328 328 329 329 332 327 338 337 336 335 334 334 333 319 314 315 314 311 310 308 308 309 310 310 313 317 316 316 315 314 312 312 312 311 311 311 311 311 312 312 312
316 309 312 314 325 326 321 329 327 329 329 329 332 334 337 337 332 333 333 327 316 315 315 314 312 309 307 308 309 310 311 314 318 318 317 316 315 314 313 312 312 312 312 313 313 313 313 313 312
314 312 311 312 323 325 325 324 326 328 326 326 327 331 335 331 329 327 321 315 315 317 318 316 313 309 308 309 311 314 316 316 318 317 316 317 316 315 314 313 313 313 314 315 315 315 315 315 314
313 312 314 312 322 323 323 325 324 327 326 324 325 331 332 322 320 316 315 316 320 323 320 318 320 318 320 319 319 319 319 317 319 318 316 317 317 316 315 314 314 314 315 316 316 315 315 315 314
313 313 311 312 318 322 318 322 325 327 327 325 328 332 328 319 315 314 315 318 321 325 324 318 321 323 324 324 323 322 320 321 322 322 318 315 317 317 315 315 314 315 315 315 315 315 314 313 313
314 312 312 312 314 321 318 320 326 327 325 327 326 328 324 317 316 315 316 319 324 326 326 319 322 323 325 325 324 324 323 323 324 323 322 318 314 316 315 315 315 315 315 315 315 314 313 312 312
312 312 312 312 315 318 318 317 324 318 326 325 327 327 324 321 320 319 317 320 325 327 327 324 322 323 324 326 326 326 325 326 326 325 325 321 318 317 316 317 316 316 316 315 314 313 312 312 312
312 311 311 313 313 313 313 313 316 317 326 324 325 325 323 323 322 322 321 322 326 328 329 327 323 325 325 326 326 326 326 326 326 326 325 323 320 318 318 319 319 318 317 316 314 313 312 312 311
312 312 311 312 313 313 315 314 315 323 325 324 324 324 324 324 323 323 322 322 326 328 329 328 324 327 326 326 325 325 324 325 326 325 325 323 321 319 319 319 319 317 315 314 312 311 311 311 310
312 311 311 312 314 313 313 311 313 326 325 323 322 322 323 323 323 323 323 322 325 326 329 328 326 327 324 325 325 324 324 324 324 324 325 322 321 320 320 318 315 313 312 311 311 310 309 309 308
310 312 314 316 313 313 313 313 311 325 325 323 322 322 322 322 322 322 323 323 324 325 327 329 327 326 326 323 325 323 324 324 321 320 321 319 319 318 317 314 313 312 311 310 309 308 306 305 304
312 314 313 315 314 313 313 311 312 317 325 322 323 323 324 324 324 325 325 325 325 324 325 328 327 325 325 325 323 322 320 319 318 318 317 316 315 314 313 312 311 310 310 309 305 301 299 297 295
313 314 314 313 314 311 313 315 314 312 319 319 320 322 323 323 324 325 325 325 325 325 328 328 327 324 323 322 320 320 320 318 314 314 313 312 311 310 310 310 310 309 306 300 297 296 295 294 294
314 314 316 316 314 312 314 314 315 316 316 318 319 320 323 325 326 328 329 329 329 328 327 325 324 320 318 319 318 316 314 314 314 313 311 311 311 311 311 309 305 301 297 296 295 294 293 293 293
318 317 318 317 314 311 313 313 315 315 317 317 318 320 324 326 327 326 325 324 323 321 319 317 316 316 314 313 313 312 312 312 312 312 311 311 310 307 303 300 297 296 295 294 293 292 292 291 292
320 318 317 316 313 315 312 315 316 315 315 316 317 319 320 321 321 322 321 319 317 315 315 315 314 314 314 314 314 313 313 313 312 312 311 309 303 300 299 300 299 296 296 294 293 292 292 292 292
319 316 317 316 315 316 318 316 315 316 318 316 316 317 318 320 318 318 316 315 315 316 315 315 315 315 315 315 314 314 313 312 311 310 308 303 301 300 299 299 298 297 297 296 295 293 291 291 291
316 318 316 315 315 317 320 315 314 316 316 316 316 317 317 317 316 316 316 316 316 316 316 316 315 315 314 313 313 312 311 309 308 305 301 300 301 300 298 298 298 298 298 297 295 292 291 291 291
316 317 317 320 317 319 317 316 315 313 314 316 316 317 317 317 316 316 317 316 317 316 315 315 315 313 312 311 311 309 308 306 303 302 301 300 300 299 299 298 298 298 298 295 292 292 291 291 290
317 316 317 324 319 318 316 320 317 315 315 318 318 318 318 317 316 317 317 317 316 315 315 314 312 311 310 309 308 306 303 302 301 301 301 300 300 299 299 298 299 298 296 293 294 292 291 290 289
318 315 313 315 312 314 316 317 316 314 313 316 318 318 317 317 317 317 317 316 315 314 312 312 311 309 308 307 304 302 301 302 302 301 300 299 299 299 299 299 298 296 294 294 293 292 290 289 289
315 314 316 311 315 318 314 316 317 317 315 314 314 316 316 315 316 316 314 313 312 312 312 310 308 306 305 302 301 301 301 301 301 300 299 297 297 298 298 298 297 297 295 295 293 291 290 289 288
316 315 311 312 310 312 311 315 310 316 315 314 314 315 315 314 314 313 312 311 312 312 309 308 305 304 303 302 302 300 300 300 299 295 294 293 292 292 292 294 295 295 295 294 292 290 289 288 288
315 315 310 308 312 308 308 310 310 311 314 315 314 314 313 312 311 311 311 311 309 308 308 304 303 303 302 301 300 299 298 296 294 293 293 293 293 292 291 294 295 295 293 292 290 289 289 288 288

GFSSGP_850_thetae_033.txt.gz
Theta_e
312 309 313 316 319 320 323 318 324 333 335 335 336 336 337 338 338 338 339 337 337 337 336 336 335 334 333 332 332 332 330 327 320 315 314 313 313 310 310 310 308 307 307 307 307 307 307 307 307
309 309 316 316 319 320 323 320 332 334 335 335 335 335 331 331 338 339 338 338 337 337 336 335 334 333 333 332 330 327 320 315 314 313 313 312 309 310 311 310 308 308 308 308 309 308 308 308 308
308 315 315 317 318 320 322 332 336 334 332 329 330 333 331 330 331 338 339 338 337 336 335 334 334 334 332 328 321 316 315 314 313 312 312 308 310 311 310 310 310 310 310 311 312 312 312 310 310
312 315 312 317 317 317 322 333 331 331 330 330 329 330 335 335 331 336 339 338 336 335 335 335 334 332 326 317 315 314 313 312 312 312 309 310 311 311 311 312 313 314 313 311 311 312 313 313 313
314 313 315 316 318 321 320 330 330 330 330 329 329 329 334 338 337 338 339 337 335 335 335 335 333 323 317 315 314 312 311 312 312 310 311 313 314 315 313 313 313 311 310 310 310 310 310 310 310
316 311 315 325 326 323 329 330 329 329 329 328 330 331 335 339 338 338 337 336 336 335 335 332 321 316 315 314 312 311 311 311 311 315 315 315 315 313 312 312 311 311 311 311 311 311 311 312 311
315 314 316 327 326 325 330 330 330 329 329 329 330 334 337 339 336 336 335 335 335 335 327 317 315 314 314 312 310 311 311 311 316 316 316 315 314 313 312 312 311 311 311 311 312 312 312 312 312
315 314 317 325 328 328 325 328 327 327 327 329 332 335 336 340 336 334 335 335 335 323 316 315 313 312 311 309 310 310 311 316 317 318 316 315 314 313 312 312 312 312 313 313 313 313 313 313 313
314 316 315 318 328 328 327 328 325 326 327 326 328 335 335 336 335 335 334 332 319 315 314 313 310 309 308 310 310 311 315 318 317 317 317 316 315 314 312 312 313 313 314 315 315 315 314 314 314
314 316 316 314 324 325 324 326 326 328 326 324 326 334 336 333 334 333 328 316 315 316 317 313 309 308 309 310 313 316 317 318 318 317 317 317 316 315 314 313 314 314 315 315 316 315 315 314 313
314 317 314 314 323 324 325 323 327 327 328 325 328 335 334 330 329 321 315 315 318 320 318 317 315 315 316 318 319 320 319 321 322 320 317 318 318 318 317 316 314 315 315 315 315 315 314 313 312
315 312 313 312 318 319 323 322 327 328 325 327 327 333 328 320 316 314 314 317 322 323 320 320 322 323 323 324 324 324 323 324 325 325 323 320 320 319 317 317 316 316 315 315 315 314 313 312 312
314 312 311 312 314 318 321 324 327 323 323 326 329 329 324 316 314 314 315 318 324 325 324 320 323 324 324 325 326 326 326 326 327 327 325 323 319 319 318 317 317 317 317 316 316 315 313 313 312
312 311 311 311 313 315 317 315 324 319 325 327 328 327 324 320 316 314 315 318 325 327 326 322 323 324 325 325 325 326 326 326 326 326 325 324 322 320 319 318 319 319 318 317 315 313 312 311 311
311 313 312 312 313 313 315 314 314 321 324 328 328 326 323 319 317 317 316 317 324 327 327 327 323 325 325 326 326 325 324 324 325 324 323 323 323 320 319 319 319 317 315 312 311 310 309 308 307
313 313 314 313 313 312 314 315 311 323 323 324 324 324 323 320 320 319 318 320 323 325 327 327 325 326 326 325 325 324 321 322 324 324 323 323 321 320 319 317 314 312 311 310 310 308 305 302 300
314 315 315 315 313 314 314 314 314 323 322 321 321 322 323 323 323 323 323 323 323 324 326 327 327 326 325 322 320 322 321 322 322 321 320 319 317 316 314 312 311 310 309 308 304 300 298 296 296
316 316 315 316 315 314 315 317 316 315 323 321 321 321 321 322 323 322 322 322 322 323 323 326 327 326 324 320 322 321 320 319 319 319 317 315 313 311 310 310 310 309 305 300 297 296 296 295 294
314 315 316 315 313 318 318 319 317 315 320 320 321 322 322 322 323 323 324 325 324 325 325 326 327 326 322 322 320 318 318 317 314 314 313 311 310 310 310 309 304 300 298 297 296 296 296 295 294
315 317 317 316 313 317 317 319 318 317 317 319 320 321 322 323 324 326 326 327 326 326 326 326 325 320 320 319 317 315 313 313 313 312 311 311 310 309 306 303 300 299 299 298 297 296 296 294 293
318 319 318 318 315 315 316 319 319 317 317 317 317 319 322 325 327 329 328 324 323 322 319 319 316 315 315 314 313 313 312 312 312 312 311 310 310 307 302 299 297 297 296 296 297 297 297 295 292
321 317 316 316 317 320 314 320 319 318 319 318 317 320 324 326 324 323 321 317 315 315 314 314 314 314 314 314 314 313 313 313 312 311 310 309 305 301 300 298 297 297 297 297 297 297 296 293 293
320 317 317 316 318 319 320 319 318 319 321 320 319 319 319 320 320 318 316 314 315 315 315 315 315 314 314 314 314 313 313 311 310 309 307 302 301 300 299 299 298 297 297 298 298 295 292 292 291
317 319 318 318 319 322 321 319 319 321 321 321 319 317 317 318 317 316 315 315 315 315 315 315 315 315 314 314 312 311 310 309 307 304 301 300 300 300 299 299 298 298 298 298 295 293 293 292 291
319 321 323 325 326 325 318 319 321 316 317 321 319 318 317 317 316 315 315 315 315 316 316 315 315 314 313 311 310 309 307 305 302 301 300 301 300 300 299 299 299 299 299 297 295 293 295 292 291
318 320 325 323 325 324 317 322 321 317 315 319 319 318 317 317 316 315 316 316 316 316 315 315 314 312 310 309 308 306 303 302 301 302 302 301 300 299 298 298 299 299 299 297 296 295 295 292 291
318 318 316 318 313 320 319 319 318 316 316 317 318 317 317 317 316 316 316 316 316 315 315 313 312 309 308 306 304 302 302 301 301 301 300 299 296 295 294 293 292 293 297 296 296 294 293 292 290
317 315 319 317 319 318 316 318 320 319 317 317 318 317 317 317 316 316 316 316 316 314 312 310 307 306 305 303 302 301 301 300 300 298 296 294 293 293 293 292 291 293 294 295 294 293 293 291 289
318 317 314 315 314 315 316 316 316 318 318 318 318 317 316 316 316 316 315 314 312 310 309 306 305 304 303 303 301 300 299 298 296 295 294 293 292 292 292 291 291 293 294 295 294 293 290 289 289
315 316 315 317 313 313 314 316 310 314 316 316 317 314 315 315 314 314 313 311 310 308 306 305 303 304 302 301 300 298 297 296 294 293 293 293 293 291 290 290 290 293 293 294 292 292 289 289 289

GFSSGP_850_thetae_036.txt.gz
Theta_e
315 311 309 318 323 325 327 326 330 337 341 337 337 337 340 340 340 344 341 340 340 338 338 336 335 334 333 332 332 332 332 329 323 317 314 313 312 309 310 308 307 307 308 308 308 308 308 308 308
311 309 315 320 323 325 326 326 330 339 338 335 334 332 333 336 341 340 339 339 338 337 337 335 335 334 333 332 332 331 327 319 315 314 313 310 310 310 309 308 308 309 309 310 310 310 310 310 310
308 312 318 320 321 324 326 330 338 333 331 331 331 332 331 333 339 338 339 338 337 338 338 335 334 333 333 332 330 324 318 316 314 313 310 310 311 310 310 310 310 312 313 312 312 312 312 312 312
312 315 317 320 321 321 330 337 334 332 332 330 330 331 330 329 329 329 329 337 338 337 339 334 334 334 332 329 322 319 316 314 313 311 310 311 311 311 312 313 314 311 310 311 311 311 310 309 309
315 316 319 319 321 324 327 334 333 333 331 330 330 330 334 336 332 329 332 337 338 338 338 334 334 332 327 321 318 316 313 313 312 310 311 312 314 314 313 312 310 310 310 310 310 310 310 311 312
316 317 318 320 325 329 330 332 333 332 329 326 329 331 338 338 337 337 337 337 336 335 336 335 332 327 320 318 315 312 313 313 311 313 315 315 313 313 312 311 311 311 311 311 311 312 312 312 312
317 318 319 326 329 332 333 332 331 330 327 323 329 333 338 338 339 339 338 336 335 336 336 334 327 321 318 315 312 313 313 312 316 316 315 314 313 313 312 311 311 311 312 312 313 313 313 313 313
318 319 323 328 330 333 332 329 327 326 327 329 331 334 338 337 338 338 337 337 336 335 335 331 331 327 315 311 312 313 312 318 317 317 316 315 313 312 312 312 312 312 313 314 314 314 313 313 313
317 319 323 330 332 331 329 329 326 324 326 329 330 335 338 337 336 335 336 335 335 334 331 330 329 327 325 322 313 313 317 319 319 318 317 317 323 317 317 313 313 313 314 314 314 314 313 313 314
318 321 321 321 327 326 327 325 326 325 327 328 330 336 337 336 334 334 335 335 330 327 324 316 313 312 311 320 314 314 320 324 326 324 320 325 319 322 321 314 314 314 315 315 314 314 314 314 315
318 321 320 318 323 324 326 326 326 327 329 330 330 337 337 336 337 335 335 330 326 327 325 321 310 309 312 317 321 325 326 323 322 320 322 322 321 319 323 316 316 315 315 316 316 315 315 315 314
319 318 317 315 323 324 324 326 327 329 327 328 329 337 335 335 335 334 327 325 325 326 324 315 309 311 313 322 325 322 326 325 327 324 322 321 323 320 318 317 316 316 316 316 316 315 315 314 313
318 318 314 315 319 324 325 326 327 328 327 329 334 337 335 333 330 324 323 324 325 325 325 320 317 318 319 323 325 325 325 327 327 327 325 324 321 320 319 318 318 318 317 316 316 314 313 312 311
317 315 313 313 317 321 325 326 328 326 328 332 335 333 329 325 323 322 322 323 325 326 326 323 322 321 323 324 325 326 326 326 327 326 323 323 323 321 320 319 319 318 317 316 313 312 311 310 309
314 316 316 317 319 320 323 323 319 325 328 331 331 329 326 322 321 320 320 321 325 326 327 325 323 324 324 324 325 325 324 324 323 323 323 323 323 322 320 319 318 315 312 311 310 309 307 307 306
316 317 318 318 319 316 320 320 318 324 327 328 328 327 326 324 322 321 320 320 323 327 328 326 324 325 326 326 324 322 317 319 320 323 323 322 321 320 318 314 312 311 310 308 305 304 303 303 303
317 317 317 317 316 319 318 318 318 325 325 328 328 327 325 324 323 323 324 323 323 327 329 326 326 325 325 323 321 321 320 320 321 321 319 317 316 314 312 311 310 309 306 303 301 301 301 302 302
318 316 317 317 317 318 318 321 319 326 325 325 327 327 326 325 325 324 326 324 326 329 327 325 326 325 324 321 316 319 320 320 318 318 316 314 313 311 310 310 308 304 302 301 299 299 300 300 301
318 320 319 318 318 319 319 321 321 323 326 325 325 326 326 326 324 325 323 323 326 326 324 324 325 326 324 318 321 322 320 318 317 314 313 312 310 310 309 305 303 301 301 297 297 299 299 299 300
319 320 321 319 317 320 322 323 322 321 326 326 326 326 326 325 325 326 326 325 325 325 325 323 324 320 320 320 319 317 316 314 313 313 312 310 310 309 305 302 301 300 300 301 300 300 299 299 299
321 322 321 321 319 321 322 324 323 321 322 323 324 326 326 326 327 328 329 330 328 326 325 322 322 319 315 315 314 313 313 312 312 311 310 310 308 303 302 300 299 299 301 300 300 300 299 298 298
322 321 321 320 321 322 321 322 324 324 322 322 323 325 326 327 328 329 328 328 327 322 318 323 320 318 314 313 314 313 314 314 313 311 310 307 304 302 300 298 299 300 301 301 300 299 299 298 297
323 320 321 321 322 323 322 322 324 323 325 323 323 325 327 327 327 325 322 322 322 322 322 320 318 317 314 313 315 315 314 313 311 310 307 306 304 300 300 301 301 301 301 301 300 299 299 298 297
321 323 323 323 323 323 323 323 319 322 323 325 323 326 326 324 323 320 318 317 317 317 317 316 315 315 314 314 314 313 312 311 309 307 305 304 303 303 302 302 302 301 301 301 300 299 298 297 297
323 323 321 323 324 322 323 323 320 322 322 324 325 325 323 322 320 318 317 317 316 316 316 316 316 315 314 313 311 311 309 307 306 305 303 303 302 302 302 302 301 300 299 299 298 298 297 297 296
322 322 320 317 321 322 322 324 324 321 319 322 324 324 322 321 319 318 317 317 317 317 317 316 316 314 312 310 309 308 305 305 304 303 303 303 302 301 299 298 297 297 296 297 297 297 297 296 295
321 321 322 324 319 324 322 323 322 321 320 322 324 323 322 320 319 318 318 318 317 317 316 316 314 312 309 307 305 303 302 301 301 300 300 299 298 297 296 296 295 295 295 296 296 296 296 295 294
322 320 322 322 322 318 319 319 319 322 322 322 324 323 321 320 319 319 318 318 317 316 315 314 311 308 308 307 303 302 301 300 299 298 297 297 296 295 295 294 294 294 295 295 296 295 295 295 293
321 322 319 320 320 317 316 316 321 320 322 322 323 322 320 320 319 319 318 317 315 313 312 311 307 308 306 303 302 300 299 299 297 296 296 295 295 294 293 294 294 294 295 295 294 294 294 293 292
320 321 320 318 318 320 320 317 316 319 321 321 321 321 321 320 319 318 316 314 312 310 309 307 306 305 303 301 300 299 298 297 297 296 295 295 294 293 294 294 294 294 294 294 293 292 292 291 291

GFSSGP_850_thetae_039.txt.gz
Theta_e
315 315 314 317 322 326 327 329 329 338 340 339 338 339 342 343 345 348 342 341 341 342 338 335 333 333 332 331 331 331 332 331 328 321 315 313 311 309 309 308 307 308 308 309 309 309 309 310 310
317 314 314 320 324 326 328 328 332 341 338 335 335 335 336 343 343 343 342 341 342 341 338 336 334 333 333 332 332 332 331 325 317 314 313 309 310 309 308 308 309 310 311 312 312 312 312 312 311
313 313 318 322 325 326 327 334 339 334 334 333 332 333 333 339 339 340 340 341 340 340 340 336 334 333 333 333 332 330 322 316 314 313 310 310 310 309 309 310 312 312 312 311 311 311 310 309 309
314 314 318 322 324 324 325 336 333 335 333 332 331 331 333 332 328 335 341 340 339 338 338 334 334 333 333 332 329 322 317 314 313 311 310 311 310 310 312 313 311 310 310 310 309 309 310 311 312
314 318 321 322 323 323 324 335 333 335 333 331 330 332 329 327 324 328 341 340 338 337 335 334 334 333 332 327 321 317 315 313 312 310 311 311 313 314 313 310 310 310 310 310 311 311 312 312 313
316 318 322 323 323 328 328 333 332 333 332 330 330 331 336 336 328 328 331 336 338 336 334 334 333 331 326 321 318 315 314 313 310 312 313 315 313 313 311 311 311 311 311 312 312 313 313 313 313
318 321 321 323 327 330 331 331 333 331 328 327 329 334 338 339 337 336 332 331 337 336 336 334 331 327 321 318 316 314 314 311 313 316 316 313 313 313 312 312 312 312 312 313 313 313 313 313 313
318 321 322 323 330 332 331 331 330 330 330 328 330 331 337 338 339 336 331 334 335 336 335 334 328 320 317 316 314 314 312 316 317 317 316 314 313 313 313 312 312 313 314 314 314 314 313 313 314
318 321 322 328 331 333 330 329 328 327 327 327 332 334 338 339 338 337 337 336 336 334 331 331 330 330 329 325 314 313 316 318 319 318 318 322 324 323 320 314 313 314 314 315 315 314 314 315 317
319 320 322 330 330 328 330 328 326 325 324 324 330 336 339 341 339 337 337 337 337 332 331 331 330 328 326 324 314 315 320 322 327 326 322 328 327 326 326 314 314 314 314 315 316 316 316 317 317
319 321 323 322 325 325 326 325 325 326 328 328 329 339 339 340 338 338 337 337 332 330 330 329 329 324 323 324 324 325 327 328 328 329 329 328 327 327 325 325 322 322 319 321 319 319 318 317 317
320 320 321 321 321 325 325 326 327 328 328 327 330 339 339 337 337 336 336 330 327 328 326 326 325 324 324 324 326 327 328 328 329 329 326 328 327 327 326 323 323 321 320 319 319 318 317 316 316
319 321 319 319 322 323 324 326 326 327 325 324 333 338 338 337 336 333 326 325 327 326 325 324 323 323 323 327 329 328 329 329 326 327 326 326 326 325 324 322 321 320 318 317 317 316 315 314 314
320 320 318 321 323 324 325 326 326 328 326 329 335 335 334 334 331 325 325 326 327 325 326 325 325 326 327 330 329 328 327 328 328 327 327 323 322 323 324 321 319 317 316 316 314 313 311 310 310
317 318 318 318 321 324 325 327 327 327 327 330 333 332 329 327 324 323 325 326 327 326 328 329 329 329 329 328 327 326 324 320 323 322 322 323 322 323 321 319 318 317 313 311 310 308 308 307 306
318 318 320 321 322 323 324 323 324 326 327 327 327 326 323 322 321 323 324 326 328 329 330 330 329 326 325 324 325 324 319 320 320 320 322 322 322 321 318 317 314 311 310 308 307 305 305 305 304
318 318 320 321 322 322 323 321 322 324 326 326 326 325 323 322 321 322 322 323 327 330 332 327 323 324 325 325 325 322 321 319 319 321 320 319 317 315 313 311 310 308 307 306 305 303 303 302 302
319 320 319 319 319 320 319 320 322 324 325 327 326 325 325 324 323 324 326 324 325 330 331 329 326 324 323 324 323 320 318 317 320 319 317 315 313 311 311 309 308 307 306 305 304 303 302 302 302
319 318 318 319 318 318 318 320 322 324 324 325 327 327 326 326 326 327 328 327 327 331 330 329 328 326 325 324 321 316 319 321 318 316 314 313 312 310 309 307 306 305 304 303 303 303 302 302 301
319 321 320 320 318 319 319 320 321 323 324 324 325 327 327 327 328 328 330 330 329 332 329 327 326 325 325 320 321 322 319 317 315 313 313 313 310 308 306 307 306 305 303 303 303 303 302 302 300
320 321 322 321 320 320 322 322 324 323 325 326 326 326 327 328 328 329 331 331 331 330 329 331 326 326 325 324 320 318 317 315 314 313 313 311 309 307 306 305 304 303 303 303 303 302 302 301 300
322 322 322 321 322 321 322 322 323 325 325 326 326 327 327 327 328 330 331 332 331 331 331 328 326 324 322 319 318 317 316 316 315 314 313 311 309 307 306 304 304 304 303 303 302 302 301 301 300
324 322 322 321 321 323 323 321 324 326 325 325 325 327 327 328 330 331 332 332 331 328 327 326 325 322 319 318 317 317 317 317 315 314 313 310 308 306 305 305 304 304 303 302 302 302 301 300 300
323 323 323 322 322 324 323 322 322 325 325 326 325 326 328 329 330 328 328 327 325 326 325 323 321 319 318 317 318 317 316 314 313 312 309 307 305 304 304 304 304 303 301 301 300 300 299 300 299
322 323 325 325 323 324 324 323 321 323 324 324 325 326 328 328 327 325 324 323 322 323 322 320 319 318 317 318 317 315 314 311 309 308 307 305 304 304 303 303 301 299 298 298 298 298 298 299 299
323 323 324 321 321 321 324 320 324 325 323 324 325 326 327 326 325 322 320 320 320 320 320 319 318 318 318 316 314 312 309 308 307 306 305 303 303 301 300 298 298 297 297 297 297 297 297 298 298
323 321 323 323 326 324 319 322 325 324 323 324 326 327 326 325 324 321 320 320 320 320 320 319 319 317 315 313 310 309 308 307 305 304 302 301 300 299 297 297 296 296 296 296 296 296 297 297 297
322 323 322 322 322 320 320 319 323 323 323 324 326 326 325 324 323 321 320 320 320 320 320 319 318 315 312 310 309 306 306 305 303 301 300 300 298 297 297 296 295 296 296 296 296 297 296 296 295
324 322 322 322 323 322 318 320 320 320 322 323 325 325 325 324 322 321 321 321 320 320 319 318 315 312 310 308 305 303 304 302 301 300 299 298 297 296 295 295 295 295 295 296 294 295 295 294 294
322 323 323 323 320 321 324 320 318 320 320 321 322 324 324 323 322 322 321 321 320 318 317 315 311 309 307 306 308 304 302 301 300 299 298 297 296 295 295 295 295 295 294 294 294 293 292 292 292

GFSSGP_850_thetae_042.txt.gz
Theta_e
312 314 316 317 319 322 324 325 330 338 341 338 338 340 344 344 346 347 342 343 341 339 333 330 328 330 330 327 327 329 331 331 327 318 314 312 309 309 307 307 308 309 310 310 311 311 311 311 311
312 319 316 316 320 323 325 331 341 340 337 336 335 336 340 344 343 342 342 342 341 337 333 332 330 329 329 329 331 332 331 326 317 314 312 308 309 308 308 309 310 312 312 311 311 310 309 309 309
313 316 315 318 321 325 328 336 336 335 335 334 335 334 336 339 340 341 341 342 341 338 337 333 332 332 332 332 332 331 324 316 314 312 309 310 309 309 310 312 312 311 311 310 309 309 311 311 311
316 316 315 319 322 324 332 337 334 335 334 333 332 334 335 334 334 341 341 340 339 338 336 334 333 333 332 333 331 323 316 314 312 309 310 310 310 311 313 311 310 310 309 310 310 311 312 313 313
316 316 317 320 322 323 325 334 334 334 332 333 332 331 331 326 330 340 340 338 338 337 334 333 333 333 332 329 323 316 314 313 311 309 311 311 312 313 311 310 310 310 310 311 312 313 313 313 314
317 316 320 322 322 325 326 334 334 334 332 330 331 333 333 329 327 334 338 338 337 336 330 329 333 332 328 320 318 315 313 312 310 311 312 313 313 311 310 311 311 311 312 313 313 313 313 313 313
317 318 320 322 323 326 331 332 332 331 329 331 329 336 338 333 332 328 333 336 334 329 328 331 332 330 322 318 316 314 313 310 312 314 314 313 312 311 311 311 311 312 313 313 313 313 313 313 315
316 319 320 321 322 332 328 328 328 329 328 328 327 330 335 338 336 329 328 332 328 324 330 332 329 323 319 316 313 313 311 313 316 315 313 313 313 313 312 312 312 313 313 314 314 314 314 316 317
317 318 320 322 327 331 326 329 329 329 327 331 331 337 337 338 336 330 326 328 331 332 331 327 321 318 316 313 314 313 314 316 316 316 320 325 325 325 322 313 313 313 314 315 315 315 316 318 318
318 319 320 326 330 328 325 327 328 325 326 328 334 340 340 338 334 332 333 332 326 329 331 331 329 329 325 313 314 314 317 319 319 318 328 327 327 326 327 322 314 315 317 319 320 319 318 319 318
318 319 320 325 326 326 324 325 328 326 327 327 335 339 340 339 337 335 336 332 331 331 331 330 329 326 325 320 314 319 325 328 328 326 328 328 326 325 326 324 323 323 322 322 320 319 319 317 316
319 319 319 323 327 327 327 327 327 326 324 322 327 339 338 338 337 337 334 333 331 330 329 329 327 325 324 323 326 326 328 327 327 326 326 325 325 326 324 324 323 322 321 320 319 318 317 317 315
318 319 320 320 320 325 325 326 326 324 323 324 327 338 338 336 336 336 334 328 328 327 327 326 322 325 323 327 326 329 328 328 326 325 323 325 326 324 323 322 322 321 320 318 317 317 316 313 311
319 319 320 320 322 323 325 327 327 326 326 337 338 338 336 335 334 330 325 327 327 326 325 323 320 321 327 328 328 327 327 326 325 327 327 326 324 322 324 323 321 319 318 317 314 312 310 308 307
320 319 319 321 322 324 323 325 323 327 328 333 334 333 332 332 329 325 326 327 326 326 325 325 325 328 329 328 326 326 326 325 321 324 322 322 323 323 323 322 321 319 316 311 310 309 306 305 304
318 319 321 321 321 322 325 326 323 326 328 331 332 331 330 328 325 324 326 327 326 328 328 328 329 329 328 327 326 326 325 320 319 319 319 321 322 322 321 320 318 313 310 309 307 305 304 301 301
319 318 320 322 321 323 324 324 324 324 327 327 327 326 326 324 323 324 326 328 329 329 330 330 330 328 326 325 324 324 323 319 319 318 319 319 319 318 316 314 312 310 308 306 305 303 300 300 301
319 318 320 321 321 321 324 323 321 323 326 326 325 324 322 321 322 323 324 327 329 331 330 329 327 325 324 323 323 324 323 322 320 319 320 317 315 313 312 310 309 308 306 305 303 302 303 303 302
320 320 321 320 320 319 319 320 320 322 325 326 326 325 323 322 322 323 324 324 327 332 331 329 328 324 324 323 324 323 321 317 319 320 316 314 313 312 310 308 308 306 306 304 303 303 303 302 302
320 321 321 319 318 318 319 319 321 322 323 326 327 326 326 324 323 327 327 327 329 331 332 330 328 327 325 324 324 319 321 320 318 316 314 313 312 310 308 308 307 306 303 301 303 303 302 302 302
320 323 323 322 319 318 319 318 321 322 322 324 326 327 327 326 327 328 329 329 328 332 332 329 328 326 325 324 323 321 317 316 315 314 313 313 311 309 308 306 305 304 303 304 303 303 302 302 301
322 323 322 322 322 319 323 323 322 322 323 324 324 325 327 327 329 329 330 331 331 333 331 328 327 324 326 324 320 318 317 316 315 315 314 313 312 310 308 306 305 304 304 303 302 302 301 301 301
322 323 323 322 321 324 322 323 325 323 323 325 327 326 326 327 328 329 331 331 331 330 329 329 327 326 324 318 318 317 317 316 316 315 314 313 310 309 306 305 305 304 304 303 302 301 301 301 300
323 323 323 322 323 326 323 325 325 324 325 325 325 326 327 328 328 330 331 332 330 330 329 328 325 325 321 319 318 317 318 316 315 314 313 310 308 306 304 304 304 304 304 300 299 298 298 297 298
322 322 326 328 329 328 321 322 323 324 325 326 326 326 327 328 330 331 331 331 330 328 327 327 324 321 320 318 318 318 317 315 313 311 310 309 306 305 304 303 303 300 298 298 297 297 297 297 297
323 322 328 328 329 327 324 323 324 324 323 324 326 325 328 330 330 328 329 327 326 326 325 323 322 320 319 318 318 317 314 312 309 309 308 306 304 303 302 300 298 297 297 296 296 296 296 296 298
323 322 323 323 329 332 321 318 325 324 324 324 325 326 328 328 327 326 325 324 324 323 322 320 320 319 318 318 316 314 310 309 308 306 306 303 302 300 299 297 296 295 295 296 296 296 296 297 297
321 321 324 322 323 323 320 320 326 323 323 324 326 327 328 327 326 324 322 321 321 321 321 320 320 319 317 316 314 311 309 307 306 305 302 301 300 299 297 296 295 295 296 296 296 296 296 295 295
323 323 320 319 325 327 328 321 320 321 322 323 325 327 327 326 325 324 321 321 321 321 321 321 320 317 315 313 311 308 307 305 303 302 301 300 298 297 297 295 295 296 296 296 295 294 293 293 293
321 322 323 332 324 325 329 323 320 320 321 321 322 325 326 326 325 323 322 321 321 321 321 320 319 316 313 310 308 307 305 303 302 301 300 298 298 297 296 295 295 295 295 294 292 292 292 291 291

GFSSGP_850_thetae_045.txt.gz
Theta_e
311 313 316 317 313 313 317 320 337 341 338 336 343 342 343 343 343 344 342 342 340 333 328 327 330 335 335 329 326 329 331 329 320 313 312 308 309 308 309 309 311 311 311 310 309 309 309 309 312
311 317 318 318 311 313 315 329 338 337 336 335 336 342 341 342 342 343 343 342 339 333 328 330 331 333 329 327 329 331 329 321 314 312 309 309 309 309 310 311 311 310 309 309 309 310 310 310 315
310 315 315 309 309 313 316 334 335 335 336 334 334 336 338 338 342 342 341 341 336 331 329 330 330 328 328 330 332 330 321 314 312 310 309 309 310 311 312 310 310 309 309 310 311 312 313 314 313
314 315 315 311 313 315 319 329 331 332 332 333 334 334 334 333 339 339 340 340 338 332 330 329 329 330 331 332 330 322 315 313 310 308 310 310 311 312 310 310 310 310 311 312 312 313 314 314 314
315 316 311 312 314 317 328 329 330 332 332 330 330 331 328 341 339 339 340 340 337 333 332 332 332 332 332 330 322 315 313 312 308 310 310 311 312 310 310 310 310 311 312 312 313 313 313 313 314
316 315 311 313 316 325 331 331 331 330 329 329 329 330 330 334 338 338 339 339 337 334 333 332 330 328 330 323 317 314 312 309 310 311 312 312 311 310 310 311 311 312 313 313 313 313 313 314 316
313 311 312 312 315 328 330 330 330 330 330 329 334 335 330 330 333 337 336 337 335 332 330 328 325 325 325 318 314 313 311 310 311 313 312 311 310 311 311 311 312 313 313 313 313 313 314 317 317
316 310 312 313 316 331 329 329 325 328 329 330 330 334 331 333 329 333 331 329 332 329 326 324 326 327 321 316 313 312 310 313 314 312 312 311 311 311 313 312 312 313 314 314 314 315 316 318 317
316 311 313 313 330 331 327 328 326 324 329 334 334 333 333 333 330 331 328 326 326 326 321 327 327 321 316 313 312 311 314 315 314 314 318 319 321 322 318 314 313 313 314 316 319 319 318 318 318
314 311 314 319 327 327 325 326 328 329 328 334 336 335 333 334 328 330 328 327 327 326 329 327 321 318 314 312 312 314 317 315 317 326 326 323 324 324 322 323 320 320 321 321 320 319 319 319 318
315 314 315 321 326 325 323 324 326 327 325 324 334 332 332 333 326 328 327 325 324 328 326 327 327 321 312 312 314 318 318 320 322 327 328 326 325 323 325 324 323 322 321 321 320 319 318 318 317
314 316 317 325 326 325 323 327 326 326 325 324 331 331 333 333 331 332 328 324 327 330 329 330 327 325 319 312 319 323 326 324 324 321 328 327 325 324 325 324 323 321 320 320 320 319 318 317 313
315 316 318 325 325 326 325 325 326 326 323 324 328 329 333 332 331 332 330 330 330 330 330 327 325 323 323 325 326 328 326 325 325 323 323 325 323 326 325 323 323 322 321 320 318 318 315 311 309
319 317 318 320 323 325 326 325 324 324 323 324 324 327 334 333 331 331 331 330 328 328 327 327 325 322 325 327 327 327 327 326 326 324 324 323 325 324 322 322 322 321 320 319 315 312 310 307 304
319 316 318 320 323 323 324 325 326 326 326 332 332 333 335 333 332 327 329 328 327 326 324 319 324 323 328 326 326 327 327 325 322 325 325 324 324 323 322 322 322 320 319 315 311 310 306 302 299
318 316 317 320 321 323 323 324 321 327 333 334 334 334 334 331 329 329 328 327 325 325 322 316 323 325 327 327 325 326 326 324 323 320 321 319 321 321 322 322 320 316 312 311 309 306 302 300 300
316 316 319 321 320 323 322 322 321 328 333 332 332 331 328 325 325 327 327 326 326 326 322 323 321 323 326 325 325 325 324 321 318 318 318 319 320 320 318 316 313 311 310 309 306 303 300 301 301
318 318 317 319 319 321 320 319 319 326 330 330 330 330 327 325 324 326 326 327 326 327 326 323 326 327 328 326 325 325 324 322 320 319 319 319 318 314 313 311 310 310 308 307 304 301 302 302 301
319 318 317 318 318 318 321 319 319 323 325 324 326 327 326 324 324 325 327 328 327 328 329 328 326 327 327 324 322 323 324 323 321 321 319 319 313 312 311 310 309 308 307 306 301 302 302 301 301
320 320 320 320 317 316 315 317 317 320 323 325 324 323 324 322 324 324 326 329 329 329 330 330 328 325 323 322 323 323 322 319 319 319 318 314 312 311 310 309 308 308 307 304 301 301 300 300 302
323 322 321 321 321 317 316 315 317 318 322 325 325 323 322 321 323 323 323 326 331 331 331 329 328 326 325 324 324 320 320 319 318 316 313 312 312 311 310 309 308 307 304 303 303 302 300 302 301
323 322 322 321 321 320 320 319 321 318 320 322 325 325 325 323 323 324 325 327 329 332 332 330 329 327 324 324 322 321 320 315 313 314 314 313 313 312 310 308 306 305 304 304 303 303 302 301 301
321 321 322 323 323 322 321 319 319 320 319 320 321 325 325 325 325 326 327 328 329 331 332 330 327 326 325 323 323 318 315 316 316 315 314 314 312 311 308 306 305 305 304 304 304 303 298 297 297
322 321 322 323 323 322 322 321 322 320 321 323 323 325 325 326 327 328 329 330 330 330 331 329 326 324 324 324 319 318 317 317 316 315 314 313 311 309 308 306 305 304 304 304 302 294 294 296 296
321 321 324 323 323 324 323 322 322 322 321 322 321 322 324 328 328 329 330 331 331 330 330 328 327 326 324 319 319 317 317 316 315 314 313 310 308 306 305 304 304 304 303 296 293 294 294 295 295
321 323 321 327 327 323 323 324 322 321 321 322 323 322 323 327 329 330 331 332 331 329 328 325 327 325 324 319 318 317 318 316 314 313 311 310 309 307 307 304 303 299 295 294 293 293 295 296 297
323 323 323 324 323 319 319 318 321 321 322 322 323 323 328 329 330 331 331 331 329 328 325 326 326 324 321 319 318 318 318 317 315 311 310 309 308 306 304 300 298 295 294 294 294 295 296 296 296
321 320 321 319 319 320 319 320 323 322 323 322 323 327 329 329 329 328 329 328 327 326 327 325 322 320 320 319 318 318 317 315 311 309 306 307 304 301 301 298 295 294 294 294 295 295 295 294 292
321 320 320 319 320 320 320 318 318 320 320 321 323 328 328 328 327 326 327 326 326 326 326 324 321 319 319 318 318 316 314 311 308 307 305 301 301 300 298 296 295 294 295 295 294 293 291 291 292
319 320 322 317 320 319 315 317 317 317 318 320 323 327 327 327 326 326 324 323 322 321 321 321 320 320 319 318 316 313 311 308 307 305 301 300 300 299 297 296 294 294 295 295 294 292 291 291 291

GFSSGP_850_thetae_048.txt.gz
Theta_e
312 312 315 317 312 309 314 316 335 338 336 341 341 342 342 342 342 340 340 341 333 330 337 338 337 337 336 330 326 329 329 323 313 311 308 309 309 309 311 311 310 309 309 309 309 311 319 317 318
312 312 318 317 308 310 311 318 332 335 336 339 339 341 340 343 341 341 341 340 329 329 337 338 338 336 334 326 329 331 326 315 312 308 309 309 310 311 311 310 309 309 310 311 312 312 317 316 319
312 311 315 309 305 309 311 329 335 335 335 334 334 337 338 340 341 341 341 339 328 335 338 339 336 335 327 328 331 328 317 312 310 308 309 310 311 311 310 309 310 311 312 313 314 314 314 314 317
314 313 313 309 310 312 314 315 332 331 332 333 335 332 332 335 340 341 341 338 329 334 335 335 334 328 328 331 329 319 313 311 308 309 310 311 311 310 310 310 311 312 312 313 314 314 313 313 314
315 314 309 309 311 321 329 331 331 330 329 329 330 330 332 340 340 340 340 335 332 334 334 332 328 329 332 330 321 314 312 309 309 310 311 311 310 310 310 311 312 313 313 313 313 313 314 315 315
315 312 310 312 314 328 329 329 331 330 329 329 329 328 331 339 339 339 338 336 335 336 332 329 331 332 330 322 315 313 310 309 310 311 312 310 310 311 312 313 313 313 313 313 313 314 315 316 316
313 310 311 312 314 316 331 330 329 330 328 329 330 331 333 339 338 338 335 333 330 332 332 331 329 326 321 317 313 311 309 310 312 312 311 310 311 311 312 313 313 313 313 313 314 314 316 317 317
315 309 311 311 313 323 329 326 328 328 329 329 331 329 331 333 337 336 333 331 332 330 327 326 321 317 319 315 312 310 310 313 313 312 311 311 311 312 312 313 313 313 313 314 316 317 318 318 318
315 311 311 312 323 329 328 327 328 327 327 333 334 332 332 333 332 334 333 331 328 326 324 322 320 318 318 313 312 310 313 313 312 312 311 311 312 313 312 312 313 314 315 318 319 319 319 318 318
312 310 312 312 323 327 327 326 326 327 327 332 332 333 331 330 329 329 330 328 327 325 323 321 322 323 316 313 311 313 314 313 313 315 314 315 319 318 323 321 321 321 321 320 319 319 319 318 318
314 312 312 314 322 326 324 323 326 325 325 329 331 333 331 330 328 327 327 325 323 324 324 326 322 321 315 312 312 316 316 321 319 323 324 321 323 323 324 323 322 321 321 320 320 319 319 318 316
313 314 314 316 325 323 321 325 325 325 323 333 331 329 328 330 327 326 323 322 322 326 327 323 323 317 314 312 315 316 316 324 323 326 326 324 326 325 326 324 322 321 321 320 319 319 318 316 311
313 314 316 320 325 325 326 325 325 323 324 330 325 327 326 328 328 325 325 322 324 325 325 325 322 314 313 314 319 321 323 319 319 327 327 327 325 324 324 323 322 321 320 319 319 318 314 311 308
319 318 319 323 325 324 323 324 323 323 328 329 325 329 328 328 326 326 325 322 325 326 327 329 325 319 313 320 323 324 323 321 321 321 325 326 324 326 324 323 322 322 321 320 318 312 309 306 302
319 316 317 321 324 324 323 324 324 325 324 329 329 329 330 331 330 329 324 326 329 329 329 327 323 321 323 325 326 326 324 326 327 325 323 323 324 325 324 322 322 322 321 319 312 309 306 302 300
318 314 316 317 320 323 321 321 321 323 324 325 325 328 331 331 331 330 329 329 330 329 326 325 323 321 324 325 326 326 327 327 326 325 326 324 322 321 322 323 322 321 317 311 309 307 303 300 300
315 314 318 319 320 322 320 319 321 326 327 332 332 333 333 332 331 330 330 329 328 325 325 326 324 322 326 327 328 327 327 326 325 324 320 319 319 321 321 321 318 313 310 309 308 305 301 300 300
317 317 316 318 319 322 321 318 317 328 331 333 333 334 332 332 330 329 329 328 326 324 319 313 318 323 327 328 327 326 326 325 322 318 318 319 319 319 317 314 311 310 309 309 307 303 300 300 298
319 318 318 317 316 321 322 318 317 327 331 329 332 328 325 330 328 328 328 327 325 325 321 314 316 322 325 326 325 324 324 324 321 321 319 319 318 314 312 311 310 309 308 307 304 301 301 299 297
319 320 319 317 318 318 317 317 316 324 329 329 329 328 325 325 326 327 327 325 325 326 326 324 321 321 323 324 323 324 324 323 323 321 319 317 314 312 311 311 309 309 308 305 303 303 301 299 299
320 321 320 320 319 315 313 314 316 318 324 326 328 329 326 325 326 326 326 326 326 326 327 328 328 326 325 326 325 323 323 321 319 318 317 315 313 311 311 311 310 308 306 305 304 302 302 302 301
320 320 321 321 318 317 316 313 317 316 318 322 323 324 325 323 325 326 326 326 327 327 328 329 329 328 326 325 323 323 324 319 318 319 317 313 312 312 312 312 309 307 306 305 304 304 303 303 298
320 318 320 321 320 320 320 317 316 315 317 322 322 321 323 324 324 325 327 327 328 328 329 329 329 328 326 324 324 323 321 320 317 313 313 314 314 312 310 309 306 306 305 305 304 304 303 300 293
319 319 321 320 321 321 320 318 317 318 317 318 322 322 322 321 322 323 325 326 328 329 329 329 329 329 326 324 322 321 319 316 315 315 314 314 313 311 310 309 308 306 305 304 303 301 295 292 292
320 319 320 319 320 321 321 320 318 319 318 319 319 322 324 323 322 324 325 327 328 329 329 330 329 327 325 325 323 319 317 316 317 316 315 314 313 310 309 307 305 304 303 302 298 294 292 292 293
321 319 318 322 323 321 321 322 321 318 320 321 321 321 322 325 324 324 325 327 327 328 330 331 329 325 322 323 323 319 318 317 317 316 315 314 312 309 306 307 306 304 301 297 294 292 292 293 295
321 321 320 321 321 319 320 317 319 320 321 321 320 321 321 323 326 326 327 328 329 330 331 330 328 326 324 324 321 319 317 317 315 314 313 312 308 308 306 305 302 302 299 294 292 292 293 294 294
319 318 321 320 320 320 317 318 321 322 323 322 321 322 325 327 327 327 328 329 330 330 329 328 326 325 324 325 319 318 317 317 315 313 310 308 308 306 304 304 300 299 294 292 292 293 294 293 291
318 318 318 317 317 319 318 316 313 319 320 321 321 324 328 329 330 330 330 331 331 330 327 324 325 326 326 323 318 318 318 316 313 309 307 306 305 306 304 300 299 296 293 292 292 294 294 292 291
319 319 320 316 317 316 313 315 314 316 317 321 322 325 327 327 328 328 328 328 329 328 326 325 325 322 321 320 319 318 316 313 309 307 308 306 305 305 299 299 298 296 293 292 293 294 294 293 291

GFSSGP_850_thetae_051.txt.gz
Theta_e
312 311 315 316 311 308 312 314 320 337 337 340 341 341 342 341 339 338 340 336 334 334 343 339 336 335 335 332 325 328 327 316 311 308 308 309 310 311 310 309 309 309 311 317 316 318 318 317 319
312 311 317 315 307 309 310 311 320 326 338 339 338 339 339 341 341 340 339 338 334 336 341 339 335 335 334 327 327 329 322 312 308 308 309 310 311 310 309 309 310 311 313 316 315 317 318 318 318
313 310 315 308 305 308 310 315 332 332 338 333 335 336 337 337 341 339 340 339 336 338 340 338 336 335 330 325 329 326 314 310 308 309 310 311 310 310 309 310 312 313 313 313 314 314 316 317 317
313 313 311 309 310 310 312 327 321 330 330 331 331 330 337 336 339 340 341 337 337 337 338 338 336 334 326 330 329 317 311 308 309 310 311 310 310 309 311 312 312 313 313 313 313 313 314 315 315
315 314 310 308 311 316 330 329 330 328 328 328 329 329 333 339 339 340 340 337 336 337 339 337 335 327 329 330 321 313 310 308 309 311 311 310 310 311 312 312 313 313 313 313 314 315 315 315 315
314 311 308 311 312 320 329 329 330 329 327 327 329 328 333 337 336 338 338 335 335 336 338 335 331 328 330 322 314 311 309 309 310 311 310 310 311 312 313 313 313 313 313 313 314 315 316 317 316
311 309 310 311 312 313 328 329 329 330 327 327 325 329 332 334 334 336 336 336 334 330 331 330 331 327 319 314 312 310 308 310 312 310 310 310 311 312 313 313 313 313 313 314 315 317 317 318 318
315 308 311 311 312 314 327 328 327 328 328 326 328 329 331 333 333 333 334 331 326 325 329 329 323 318 316 314 312 309 310 312 312 310 310 311 312 312 313 313 313 313 313 315 317 318 318 318 318
314 309 310 312 313 319 327 327 327 326 328 329 332 330 330 333 332 331 331 329 327 329 329 323 320 319 315 313 311 309 312 313 311 310 311 311 311 312 313 313 313 313 314 317 318 319 319 319 318
310 308 311 311 314 326 327 326 326 325 331 330 331 330 330 331 331 331 331 329 326 323 321 320 317 316 312 310 310 311 313 312 311 311 312 316 317 314 313 314 314 316 318 318 319 319 319 318 318
312 311 312 312 316 324 325 323 326 325 328 330 331 331 329 331 330 330 329 327 326 325 323 323 322 317 313 313 312 314 313 314 314 319 323 323 322 323 322 321 321 320 320 319 320 319 319 318 316
311 312 312 314 321 323 322 323 324 324 324 331 331 332 331 330 329 328 328 327 326 321 320 318 317 319 318 313 312 315 313 320 324 323 323 323 322 324 324 323 321 321 321 320 320 319 318 316 309
311 315 318 315 324 323 324 325 324 326 331 331 331 328 329 328 326 323 324 324 324 320 322 323 321 321 316 312 316 316 323 325 325 326 324 323 324 323 324 323 322 321 321 320 319 318 315 309 305
318 317 320 323 324 325 323 323 323 329 330 330 327 329 328 327 327 324 323 322 323 323 326 322 322 318 313 313 317 317 322 323 324 326 326 325 324 324 324 323 322 321 320 319 318 316 310 307 302
318 315 320 321 323 323 323 322 322 329 328 326 327 329 328 325 326 323 323 321 321 323 322 321 321 315 313 316 318 321 320 321 321 321 325 323 324 325 324 323 322 321 319 318 315 310 308 302 300
317 313 318 320 322 323 319 320 322 328 328 328 330 328 328 327 328 326 324 321 324 325 324 325 324 318 313 319 324 324 324 324 325 326 324 323 325 325 324 323 322 321 319 314 310 309 306 301 299
314 312 317 317 319 321 320 318 319 326 328 327 328 330 330 328 328 327 325 322 324 325 326 329 324 318 315 322 326 326 325 325 326 326 325 325 323 322 322 322 322 320 313 310 309 308 302 300 298
318 316 316 317 318 320 320 318 320 323 325 326 326 327 331 330 330 330 327 325 328 328 329 329 324 322 323 325 325 325 326 327 327 325 324 319 319 320 321 322 318 311 310 309 308 305 302 300 298
317 316 317 317 316 320 319 319 316 325 331 331 331 331 331 331 330 330 328 328 329 329 328 327 326 323 322 324 325 327 328 327 325 322 318 318 319 319 318 314 311 310 309 309 307 304 302 301 300
319 319 318 317 317 317 317 319 316 324 330 331 331 332 332 332 331 331 329 329 328 328 327 325 325 324 321 324 326 327 327 326 323 319 319 319 318 317 314 311 310 310 310 307 306 304 303 302 301
319 319 318 319 317 315 314 315 316 322 328 330 330 331 331 331 332 331 330 329 328 327 325 323 318 316 317 323 327 327 326 324 321 321 321 320 318 316 312 311 311 310 308 307 305 304 304 303 303
319 318 319 320 317 315 314 314 315 315 324 326 328 327 327 326 330 329 327 328 327 326 325 324 320 317 319 322 326 326 325 324 323 323 321 318 317 313 311 311 310 308 307 306 305 304 304 303 301
319 318 319 320 319 319 319 317 315 314 320 323 326 326 325 326 327 327 327 326 326 326 325 325 322 323 323 325 326 326 326 323 323 320 318 317 314 312 311 310 309 309 308 306 305 304 303 300 294
319 319 318 318 318 319 319 317 316 316 315 317 322 325 324 324 324 325 326 326 326 326 325 325 325 326 326 327 327 325 324 323 322 319 317 314 312 312 311 309 307 307 306 306 304 302 299 294 292
317 317 318 318 319 320 319 319 317 317 316 315 317 321 324 323 321 324 325 326 326 325 325 326 326 327 327 328 326 324 323 322 320 317 314 313 313 312 311 309 307 307 304 305 300 299 294 292 292
320 317 317 320 320 318 319 323 319 318 318 319 318 321 322 321 322 322 324 325 325 326 326 327 327 328 327 327 326 324 321 318 316 315 315 315 314 313 311 307 308 305 305 300 302 299 292 292 293
321 320 317 319 318 318 318 316 316 318 320 319 319 319 322 322 321 321 322 324 325 326 327 327 328 328 328 327 325 323 321 318 317 316 317 316 314 312 309 308 305 305 302 299 295 292 293 293 293
319 317 318 316 320 321 316 316 317 320 320 320 317 319 320 322 323 322 322 322 323 325 326 327 329 329 328 324 322 323 322 320 318 317 316 315 312 311 308 307 305 299 298 296 293 292 293 293 292
317 317 317 316 314 317 317 317 310 318 318 319 319 321 322 322 324 324 325 324 324 326 327 328 329 328 327 325 324 324 322 320 318 316 314 313 310 307 308 306 301 299 297 296 292 292 292 293 293
317 318 317 315 317 314 313 314 313 312 315 318 321 322 323 325 326 327 327 327 327 327 329 330 328 326 323 324 325 324 321 318 316 313 311 310 307 308 304 302 299 298 297 294 292 292 293 294 294

GFSSGP_850_thetae_054.txt.gz
Theta_e
312 311 314 315 310 307 311 312 312 324 334 340 339 340 339 340 339 337 339 338 333 338 340 336 332 332 330 330 326 327 325 316 310 308 307 309 310 310 309 310 312 316 317 318 318 317 319 319 318
312 312 317 314 307 310 309 310 320 324 334 333 336 337 338 342 339 338 336 336 333 338 338 336 332 332 331 329 326 327 320 311 308 307 309 311 310 309 309 311 314 317 317 317 317 316 316 317 318
312 312 315 306 304 307 309 310 323 329 331 332 333 333 334 337 338 336 337 335 336 337 338 335 333 332 329 326 328 324 312 308 308 309 311 310 309 310 310 313 315 315 315 315 316 317 317 317 317
313 312 310 307 309 309 309 318 329 328 328 328 329 328 335 338 339 338 338 338 335 336 338 336 334 332 326 328 327 314 310 308 309 311 310 309 310 311 312 313 313 313 313 313 314 314 314 315 314
313 312 306 307 309 310 327 329 328 327 328 329 329 330 334 337 338 340 340 339 337 337 337 336 335 330 328 329 320 312 308 309 310 311 310 309 311 312 313 313 313 313 313 315 315 315 315 315 315
314 309 306 309 310 312 329 329 329 328 327 328 329 329 334 337 336 339 338 337 337 337 337 336 333 330 329 320 313 309 308 309 311 310 309 311 312 312 313 313 313 313 314 315 316 316 317 317 317
311 307 309 310 311 312 322 328 329 329 327 326 329 328 333 334 337 338 338 337 335 335 334 333 331 329 320 313 310 308 309 311 311 310 310 311 312 312 313 313 313 313 314 315 316 317 317 318 318
314 306 310 310 311 312 327 328 327 328 327 326 329 331 333 333 333 335 335 334 329 328 330 329 323 316 315 311 309 309 311 311 310 310 311 312 313 313 313 313 313 313 314 316 318 318 318 318 318
312 307 309 311 314 314 327 326 327 326 328 331 331 330 331 333 332 332 332 329 327 325 323 324 324 317 313 311 310 310 311 312 310 310 311 312 313 313 313 313 313 314 316 317 318 319 319 318 318
309 307 311 311 311 317 326 326 326 326 331 331 330 331 331 332 332 331 328 327 326 324 325 326 319 318 317 316 310 309 312 311 310 311 311 312 313 313 313 313 313 315 317 318 319 319 319 319 317
309 309 310 312 313 319 325 325 325 326 329 330 331 331 331 331 330 329 328 327 329 328 326 321 319 318 316 311 309 310 313 311 311 312 313 312 313 313 314 316 319 319 319 319 319 319 319 318 314
311 311 312 312 314 322 322 323 324 323 325 330 330 333 331 330 329 327 326 324 325 323 320 319 318 320 314 310 310 312 313 311 312 315 320 320 321 321 321 322 321 321 320 320 320 319 318 316 310
309 312 316 316 319 323 322 323 322 328 328 331 333 330 328 329 330 329 324 323 324 320 320 320 316 312 311 311 310 313 313 316 320 324 324 324 322 323 323 323 321 321 321 320 319 318 316 311 306
315 316 319 321 322 322 323 321 323 328 329 333 331 329 328 327 328 328 328 327 323 321 321 322 316 315 314 313 312 314 313 322 323 324 324 324 323 323 324 323 322 321 320 319 319 316 311 308 303
317 315 320 322 322 323 321 321 321 329 329 328 326 327 327 327 326 324 323 323 320 320 320 318 318 321 316 313 314 315 320 323 325 326 326 325 324 324 324 323 322 321 320 319 317 312 309 306 302
315 311 319 319 322 321 318 319 322 330 329 329 326 325 327 326 326 324 323 323 322 320 324 325 320 320 315 313 315 316 322 324 323 323 325 324 324 323 324 324 322 321 319 318 314 309 308 304 300
312 313 316 319 319 321 319 319 321 329 328 328 328 323 325 326 326 326 324 322 322 324 325 321 322 319 314 313 317 317 318 322 324 324 325 325 324 324 324 323 322 321 319 315 309 309 306 302 299
318 318 315 316 317 320 321 319 319 327 327 327 327 326 325 326 325 327 325 324 321 322 324 323 324 322 316 314 319 322 325 325 325 326 326 325 325 323 321 321 321 320 315 309 309 307 303 301 300
316 317 315 314 315 319 318 318 320 323 326 325 326 327 329 328 328 328 327 326 322 324 325 324 327 325 319 314 321 325 325 326 326 325 325 324 321 319 320 321 321 316 309 309 308 305 303 303 302
317 318 317 315 316 316 316 316 314 321 324 325 325 326 328 329 329 329 329 327 324 324 325 327 328 327 322 318 320 324 324 325 326 326 325 320 318 319 320 319 314 310 309 309 308 305 304 304 303
318 319 318 318 316 314 314 314 316 318 327 329 328 328 327 329 329 330 329 328 326 326 325 325 326 324 324 323 321 323 325 325 325 325 323 319 318 318 317 313 310 309 309 308 306 305 305 304 303
319 317 318 318 318 316 313 314 313 315 325 328 329 329 329 329 329 330 330 329 327 326 326 327 326 325 324 324 321 321 324 324 324 325 323 320 319 317 313 310 309 309 308 306 305 304 303 303 301
318 317 319 318 317 318 317 316 314 313 318 323 327 329 329 329 330 330 330 328 327 327 327 326 327 325 323 323 322 322 323 325 325 323 322 321 318 314 312 310 309 308 306 305 304 303 301 299 296
317 318 316 316 316 318 317 316 315 314 315 319 323 327 329 329 330 331 331 331 330 328 328 327 326 325 323 321 319 321 324 325 324 322 321 320 316 313 311 310 309 308 306 306 306 307 301 302 300
316 315 317 319 318 319 318 318 316 315 315 314 315 323 328 330 329 329 327 329 328 327 327 327 326 325 324 321 319 322 324 325 323 322 321 318 316 314 312 311 310 307 306 308 307 303 303 299 295
318 316 317 320 319 317 316 320 318 316 317 318 318 316 321 327 329 328 327 326 327 326 326 326 326 325 325 323 322 324 326 326 323 322 319 318 316 313 312 310 307 305 306 306 306 301 298 294 291
319 318 315 317 316 316 316 315 313 316 319 319 318 317 318 320 324 327 327 326 325 325 325 324 325 325 325 325 325 326 326 324 323 320 318 315 314 313 312 311 308 306 308 306 304 296 293 292 292
318 316 318 315 320 321 315 315 314 315 317 317 318 319 318 319 320 322 325 325 324 324 324 325 325 325 325 325 326 326 325 324 322 317 316 315 315 314 313 309 306 309 307 300 297 295 292 291 292
317 317 314 314 313 316 316 315 310 313 317 317 317 320 321 319 322 321 321 321 321 322 323 324 325 326 326 327 327 326 323 322 322 320 317 315 316 314 310 308 310 307 302 301 297 293 293 293 293
315 316 315 315 317 313 312 313 312 310 311 316 318 320 321 323 322 322 322 323 323 322 323 323 324 326 326 328 327 325 323 323 323 321 320 318 315 312 311 310 307 304 299 296 294 294 292 293 294

GFSSGP_850_thetae_057.txt.gz
Theta_e
312 310 314 315 316 315 316 316 314 319 326 337 339 340 339 339 340 341 338 337 338 338 339 333 327 327 326 325 326 326 322 314 310 308 307 308 310 311 311 311 314 317 318 320 321 321 317 316 316
312 312 316 314 315 315 315 313 317 326 330 333 335 335 335 337 338 336 337 338 337 338 338 335 328 327 326 326 326 323 315 310 308 307 309 311 310 310 311 314 316 317 316 316 316 315 316 316 316
311 313 316 314 311 314 314 313 320 329 331 333 332 333 333 336 337 336 337 338 341 340 338 335 331 327 327 327 326 319 311 308 308 309 311 309 309 311 314 316 316 316 315 314 314 315 315 316 316
312 312 310 313 313 313 312 314 330 328 329 328 330 332 335 336 338 336 337 337 338 339 338 334 332 328 327 327 323 313 309 308 309 311 309 309 310 313 315 315 314 314 313 313 314 314 314 314 314
313 312 313 312 312 312 314 328 329 330 329 330 330 333 335 335 337 338 338 338 337 338 335 334 333 328 328 326 319 311 308 309 311 309 309 310 312 313 313 313 313 313 314 315 315 315 315 315 315
314 310 314 314 313 313 324 329 329 328 328 329 331 333 335 336 335 338 337 337 336 336 336 335 334 329 327 313 309 308 308 310 310 309 310 312 313 313 313 313 314 315 316 316 316 316 317 317 317
314 313 314 312 314 314 320 328 330 328 327 327 329 332 333 335 335 336 336 336 336 334 333 330 325 325 320 314 310 308 310 311 309 310 311 313 313 313 313 313 314 314 315 316 317 317 318 317 317
313 313 313 312 314 315 324 328 327 329 329 326 329 332 332 333 335 336 335 335 334 333 332 325 324 323 321 314 313 310 311 310 309 311 311 312 313 313 313 313 313 314 316 317 318 318 318 318 316
312 315 314 314 314 317 326 328 327 326 329 330 330 331 331 333 335 334 332 330 330 332 332 327 325 323 323 312 310 313 312 310 310 311 312 312 312 313 313 313 314 315 317 318 318 319 319 318 316
313 314 315 313 314 316 325 327 326 327 331 330 330 331 332 331 332 331 330 326 326 327 326 325 324 323 315 312 314 315 311 310 310 312 312 313 313 313 313 313 314 316 318 318 319 319 319 318 314
310 315 313 313 313 314 322 326 324 327 331 330 330 330 332 332 332 329 328 326 324 324 325 323 321 316 315 316 315 312 311 310 310 311 312 313 313 313 313 314 316 318 319 319 319 319 319 318 312
313 312 312 313 313 316 321 324 325 326 326 325 330 332 331 332 330 327 327 327 325 325 324 317 316 316 316 312 310 311 312 310 310 311 312 312 313 313 314 318 319 320 320 320 319 319 319 316 309
311 313 315 314 316 319 322 323 324 327 327 330 330 330 331 329 328 327 327 327 326 319 318 317 318 316 313 311 309 311 312 310 311 312 313 314 316 319 320 321 321 321 320 320 320 320 318 312 307
314 314 318 321 320 322 323 324 323 327 329 329 331 330 330 329 327 326 325 326 325 321 320 319 316 314 310 310 309 310 312 311 312 315 320 322 321 322 323 322 322 321 320 320 319 318 315 308 306
316 317 318 322 322 323 322 324 323 328 329 329 327 329 328 330 329 325 325 325 322 320 318 317 316 311 310 310 311 314 313 313 318 322 323 324 323 323 323 323 323 322 321 319 319 318 310 308 303
317 313 319 320 323 321 320 325 324 328 329 329 328 327 327 327 326 327 325 325 321 320 321 317 314 316 318 312 311 313 313 319 323 324 325 324 324 324 323 323 323 322 320 319 317 312 308 305 301
317 317 317 320 321 322 321 321 324 327 328 328 328 327 328 327 326 325 323 323 320 320 320 320 318 318 320 314 312 315 314 318 324 325 323 323 323 323 323 323 323 321 319 318 315 309 308 305 302
320 319 318 318 319 321 323 323 325 328 329 328 326 325 326 327 326 326 324 323 322 320 320 324 323 320 319 314 313 316 317 322 324 323 323 323 324 324 324 323 322 320 320 318 310 309 307 304 303
318 318 318 316 316 322 323 322 321 329 329 328 327 326 325 324 326 326 326 324 323 322 322 324 321 321 320 315 313 315 318 317 320 324 323 324 325 325 323 321 321 320 319 312 309 308 306 305 304
318 319 319 318 317 318 317 318 317 326 328 327 327 326 325 325 325 326 327 325 325 321 321 323 323 323 324 319 313 314 317 320 323 325 325 324 324 323 320 320 320 320 316 309 308 307 306 304 304
319 319 319 320 318 315 316 316 317 320 324 326 326 326 326 327 327 327 327 327 326 324 321 322 324 324 326 324 317 313 319 323 325 325 324 324 323 320 319 319 319 316 309 308 308 307 305 304 303
319 318 319 319 320 320 316 321 316 316 324 326 326 326 326 327 325 327 328 328 327 325 324 323 325 326 326 327 323 318 318 321 322 322 323 323 321 318 318 318 315 310 308 309 307 306 305 305 302
320 318 320 319 320 320 318 320 320 314 318 323 327 328 328 327 326 325 328 328 327 327 326 325 325 326 327 326 326 323 322 323 322 323 324 322 318 318 318 316 311 309 308 309 306 305 304 303 305
317 319 318 318 319 322 319 320 321 319 318 317 320 326 329 328 326 326 327 328 328 327 326 326 326 326 326 326 325 324 323 323 322 323 324 322 319 318 317 314 311 309 308 308 306 306 305 303 304
317 319 322 324 324 323 319 320 321 318 317 318 318 320 325 328 327 326 327 328 329 329 328 327 326 326 326 327 326 324 322 322 324 325 325 322 321 318 317 313 312 310 308 306 305 305 304 301 300
319 320 324 321 322 320 317 322 321 318 316 317 318 317 317 321 326 328 326 326 328 329 329 329 326 326 326 326 326 324 322 323 322 324 325 322 320 319 316 314 312 309 308 306 305 307 304 298 295
320 321 317 320 317 323 320 319 316 316 318 318 319 319 318 316 322 325 329 328 328 328 327 326 327 326 326 326 326 325 324 324 322 322 323 321 319 317 315 314 311 309 306 306 307 307 299 298 295
319 317 321 319 322 322 318 317 318 318 319 318 319 319 319 320 319 320 323 326 328 328 327 326 326 325 326 326 326 325 324 323 323 324 322 321 318 316 314 313 311 308 306 307 306 300 297 299 293
319 319 317 317 318 321 320 319 317 317 318 319 318 318 320 320 321 322 321 321 323 324 325 324 324 324 325 325 325 324 324 324 325 325 322 321 319 315 313 311 306 304 307 304 302 298 299 294 293
317 320 319 323 320 317 317 319 315 315 313 312 316 317 320 322 322 322 321 321 321 321 322 321 322 323 324 325 325 325 325 325 324 322 321 321 319 316 312 311 306 307 306 303 302 300 296 294 293

GFSSGP_850_thetae_060.txt.gz
Theta_e
314 311 312 315 318 318 319 319 319 320 327 333 335 330 334 338 340 340 340 340 341 341 338 331 331 336 336 336 336 335 329 326 321 313 308 307 309 310 311 314 317 321 322 321 319 316 315 315 315
312 311 316 317 317 318 319 319 318 323 328 336 337 337 336 336 339 339 339 338 339 340 338 335 328 330 334 333 329 326 325 317 311 308 307 309 311 311 312 317 318 320 319 317 315 315 315 315 314
312 311 317 319 318 318 318 318 319 328 332 335 336 336 333 332 335 339 340 338 339 339 338 333 328 326 325 325 326 324 316 310 307 307 309 311 311 311 315 317 317 317 316 315 315 316 315 314 313
314 313 314 317 318 318 316 317 323 326 331 333 335 336 335 332 331 338 338 337 337 339 338 333 328 326 326 327 324 315 309 307 308 309 311 310 311 314 316 316 315 315 315 315 315 315 314 314 314
313 314 316 317 317 316 316 319 325 329 332 332 333 336 337 336 335 337 338 339 338 339 338 333 328 327 327 322 314 309 307 308 310 311 310 310 314 315 316 315 314 314 315 315 315 315 315 316 315
316 315 316 317 317 316 317 324 328 330 332 332 334 336 338 336 335 339 338 337 334 332 333 335 331 328 326 319 315 314 310 310 310 309 310 312 315 314 314 313 314 314 315 315 316 317 317 317 315
317 318 318 317 316 317 320 328 330 331 330 331 331 333 336 334 335 337 338 336 334 330 334 334 333 328 322 318 316 317 318 311 309 310 313 313 313 313 313 314 315 316 316 317 317 318 317 316 314
315 317 317 317 317 320 322 328 329 330 331 330 331 334 334 334 334 335 335 335 335 334 334 332 332 327 322 320 317 315 317 310 310 312 313 313 313 313 314 314 315 316 317 317 318 318 318 316 312
314 317 317 317 318 321 324 325 328 329 331 332 333 333 335 333 334 334 333 332 332 326 327 329 327 324 323 322 321 313 312 310 312 313 313 313 313 314 316 317 315 316 317 318 318 318 318 316 311
317 318 317 318 318 318 319 324 326 330 331 332 332 331 332 332 333 333 331 331 330 328 324 324 323 324 323 323 318 314 312 312 312 312 313 315 313 319 316 314 315 317 318 318 318 318 318 315 310
317 318 318 318 318 318 319 322 323 326 328 330 333 330 330 330 329 330 328 327 327 326 326 324 324 323 320 316 314 313 311 312 312 312 312 313 318 314 314 315 317 318 318 319 319 319 319 316 309
317 317 318 318 317 318 320 322 326 327 329 330 333 330 330 329 329 329 327 326 326 326 324 323 321 317 314 312 314 314 316 311 312 313 312 313 316 315 318 318 317 318 318 319 319 319 319 315 309
318 318 318 319 322 319 322 325 328 329 331 333 332 329 329 328 328 326 326 325 324 321 319 318 316 312 313 316 319 318 313 311 316 313 313 313 313 313 314 317 319 319 320 319 319 319 318 312 308
319 319 320 323 322 323 326 327 327 330 332 332 331 330 329 328 328 327 325 326 324 319 318 316 316 318 319 321 321 317 319 319 312 312 312 312 313 314 318 320 320 321 320 320 319 319 317 310 308
319 320 321 325 324 326 326 328 328 329 332 330 331 330 330 329 328 327 324 325 323 319 319 319 321 320 321 320 319 319 312 312 317 313 312 314 318 320 321 322 322 321 321 320 320 319 316 309 307
320 320 320 325 326 325 326 325 326 330 332 330 330 330 329 329 327 326 327 325 323 322 322 322 321 321 321 321 318 320 316 312 315 315 319 322 323 322 323 323 323 322 321 320 319 317 311 307 305
319 320 319 324 326 326 327 325 327 330 331 329 329 329 329 330 329 326 326 325 323 322 322 322 320 319 323 317 313 313 314 313 320 324 324 324 324 323 323 323 323 322 320 319 319 316 309 307 306
318 320 320 320 324 325 325 324 326 330 330 330 328 328 329 329 329 328 327 326 323 322 323 323 322 323 320 319 314 312 315 317 323 323 325 325 324 322 322 323 323 322 320 318 317 313 308 307 307
321 321 320 320 321 324 324 323 322 328 330 331 328 327 328 328 328 329 327 327 326 323 324 325 325 325 325 324 317 320 320 321 320 323 324 323 321 322 323 323 323 321 318 318 318 310 308 308 307
322 320 320 321 321 321 322 322 321 324 329 330 329 327 326 328 329 329 329 327 327 325 325 325 327 327 324 324 321 318 317 321 322 323 321 322 323 323 324 323 323 320 316 318 315 309 309 308 308
322 322 321 321 322 321 321 321 321 323 326 328 329 329 326 326 327 329 329 329 328 327 327 326 327 328 326 327 324 321 321 321 320 321 319 323 323 323 324 323 321 319 318 316 310 308 309 309 306
322 321 321 321 321 322 321 321 321 321 325 326 328 329 329 327 327 329 330 329 329 328 328 327 327 328 328 326 326 323 320 320 321 321 321 323 323 324 323 321 320 319 317 312 309 309 308 307 305
321 321 322 322 322 323 322 322 322 320 321 324 326 327 329 329 327 328 329 330 330 329 329 328 327 327 328 327 326 326 323 320 323 323 322 323 324 323 321 319 319 318 316 311 308 309 307 306 305
321 322 322 323 323 324 322 322 322 321 321 322 322 325 327 328 329 327 327 330 330 330 330 327 326 327 327 326 326 326 326 325 324 321 322 323 324 323 321 319 318 316 311 310 308 308 308 306 307
322 322 324 325 325 324 322 322 322 322 322 322 322 323 323 326 329 330 328 329 330 331 331 328 327 328 327 327 326 327 327 326 323 321 322 323 324 324 323 319 317 314 311 309 308 307 305 306 308
323 323 323 322 323 322 321 321 321 322 321 321 323 322 321 321 327 329 330 329 330 331 331 328 326 328 328 327 326 327 326 325 323 321 321 322 324 325 321 319 316 313 311 309 307 305 306 306 306
323 323 322 325 324 325 322 321 321 321 321 323 322 322 323 321 324 327 328 329 331 331 331 330 329 329 330 328 326 327 326 324 321 319 320 323 324 323 320 317 315 314 310 308 305 304 306 304 302
323 322 323 324 323 322 322 321 320 320 322 320 320 321 322 323 322 323 326 328 330 331 331 331 330 330 330 330 327 326 326 325 324 323 323 323 322 322 320 319 316 312 310 308 304 306 305 301 301
322 323 322 322 322 323 322 321 320 320 320 322 323 321 322 323 324 323 323 324 326 329 329 329 329 329 329 328 327 325 325 325 325 324 323 323 324 322 321 317 314 314 310 305 303 304 301 301 300
322 322 323 323 322 323 323 322 320 321 321 319 320 320 322 323 324 324 324 324 325 326 327 328 327 327 327 327 326 324 324 324 324 324 323 321 322 321 315 314 314 312 308 304 305 303 301 300 297

GFSSGP_850_thetae_063.txt.gz
Theta_e
316 316 316 317 319 319 319 320 322 321 322 328 331 331 328 325 335 339 330 344 344 344 340 331 338 340 340 338 337 335 335 335 330 324 315 307 308 309 310 314 320 323 320 321 318 315 315 314 313
319 316 317 318 320 319 320 321 320 321 327 329 330 332 331 330 338 338 332 343 344 343 340 338 339 339 339 337 336 335 335 331 325 316 308 308 310 311 313 317 322 325 320 316 315 315 315 313 313
316 315 317 321 320 320 319 320 321 322 327 329 331 335 334 331 334 339 342 342 344 342 340 337 337 339 337 337 336 336 332 326 317 308 308 310 311 314 317 319 323 326 316 315 315 315 314 313 313
317 316 316 318 318 320 319 320 320 323 325 331 332 334 336 339 340 340 342 343 344 342 339 335 335 337 336 336 337 332 326 317 308 308 310 311 314 317 318 319 324 323 315 315 315 314 314 314 313
316 317 318 319 319 320 319 319 325 328 328 331 332 333 334 340 336 341 340 342 342 339 338 335 331 337 337 336 330 325 316 308 308 311 311 313 316 317 317 318 318 316 315 315 315 315 315 314 312
317 318 319 319 319 319 319 323 324 329 330 333 332 333 338 338 336 338 338 340 338 336 335 335 332 332 330 329 325 320 313 310 312 312 313 314 316 316 315 315 315 315 315 315 316 317 315 313 310
318 320 319 319 319 319 321 326 328 328 330 331 331 332 339 335 336 337 337 337 335 335 331 326 330 329 324 321 320 319 319 319 318 313 314 315 315 315 315 315 315 315 316 317 318 317 315 312 309
317 319 318 319 319 320 323 325 326 323 327 331 330 332 334 335 334 335 335 334 334 332 329 331 325 326 327 324 318 316 319 316 312 314 315 315 315 314 314 315 315 316 317 318 318 318 316 311 309
316 318 319 319 319 321 323 323 328 328 328 332 333 334 334 333 334 333 333 332 333 329 330 330 330 327 327 322 323 320 314 316 313 315 314 313 314 314 317 316 316 317 318 319 319 319 318 311 308
318 320 319 319 320 320 320 322 324 325 322 332 334 335 333 332 332 331 331 329 329 329 328 328 329 325 323 323 321 318 314 314 314 314 314 313 314 316 318 315 316 317 318 318 319 319 315 312 311
318 319 320 319 320 320 321 321 322 325 323 331 332 334 330 330 330 329 327 327 327 328 327 325 323 322 322 322 320 316 317 316 314 314 313 313 320 321 315 315 317 317 318 319 319 316 314 314 310
318 318 319 319 319 320 321 322 323 326 330 331 335 333 331 330 328 328 327 326 324 325 324 322 322 323 322 321 315 316 314 314 313 313 314 316 321 319 315 318 318 318 317 317 316 317 319 315 309
319 319 319 319 320 322 322 322 325 328 332 335 333 331 331 329 329 327 327 326 324 323 323 323 321 321 320 317 317 316 315 315 317 312 313 319 322 323 321 321 319 318 318 317 316 319 319 314 309
320 320 319 320 321 322 323 324 328 330 333 333 331 331 329 329 329 328 325 324 323 322 320 319 319 319 316 313 314 313 315 317 312 313 317 323 323 323 322 321 320 319 318 317 316 316 316 310 309
320 320 320 321 323 322 323 324 323 331 332 333 332 332 330 329 329 327 325 323 324 321 320 319 315 315 318 321 322 321 321 318 320 321 322 323 322 320 322 321 320 319 318 317 316 318 313 310 308
320 320 321 322 323 323 324 326 325 330 331 332 331 331 331 329 328 327 325 325 322 320 320 317 317 318 321 322 323 321 320 320 320 321 323 316 319 316 320 322 321 319 319 319 317 314 313 311 309
320 320 321 324 323 324 324 326 327 327 329 331 329 329 330 329 327 328 328 325 322 321 322 322 321 322 321 321 322 322 321 321 320 321 324 323 317 322 322 323 322 322 321 318 318 315 314 311 310
321 319 322 320 324 323 323 324 327 328 328 329 329 329 330 329 327 327 326 324 323 324 324 323 322 323 323 323 322 321 322 321 320 322 323 324 325 324 323 323 322 322 319 320 318 315 313 312 311
322 321 320 322 322 323 324 325 324 328 328 329 328 328 329 329 328 327 327 325 324 324 323 323 322 322 324 324 322 320 321 321 322 323 325 326 325 325 324 323 322 322 319 317 316 316 314 311 311
321 322 320 322 321 322 322 325 323 324 328 328 329 327 328 329 328 327 327 326 324 324 324 324 323 323 325 325 324 321 319 320 321 322 325 326 325 325 322 322 322 322 319 317 316 315 313 312 311
322 322 323 323 324 322 322 323 322 323 326 328 329 327 326 328 328 328 327 328 326 325 325 326 326 325 325 325 324 322 320 320 322 323 324 324 325 322 323 323 322 321 321 317 317 315 313 313 311
323 322 321 322 322 322 324 324 325 322 324 327 328 329 327 326 328 329 330 329 329 328 326 326 327 326 327 327 325 324 321 320 321 323 324 324 323 320 323 322 321 321 320 317 317 315 313 312 312
322 323 322 322 324 324 325 322 325 322 321 323 327 329 328 326 326 327 329 330 330 330 329 328 327 327 328 328 327 327 324 322 322 323 324 324 323 323 322 322 321 322 318 316 315 313 312 311 311
322 322 322 323 324 326 323 324 324 323 321 321 322 325 328 327 326 326 328 329 329 330 330 330 329 328 328 329 329 329 327 326 322 322 326 325 325 322 322 323 323 321 319 317 314 312 311 310 309
322 322 325 326 329 326 325 323 324 324 322 322 323 322 325 327 328 327 326 328 329 329 330 331 331 329 329 329 329 329 329 329 327 326 326 322 323 322 322 322 323 321 318 314 312 311 310 309 306
323 323 326 328 328 327 323 322 322 322 321 322 323 323 324 324 326 328 328 327 329 330 331 331 331 331 330 330 331 331 330 330 329 327 323 323 320 321 321 320 323 319 315 312 310 310 309 308 305
324 324 324 326 324 324 323 322 322 321 321 322 322 322 324 324 324 327 328 329 328 330 331 332 332 331 331 330 331 332 331 331 330 328 324 322 320 320 321 323 321 319 315 310 310 310 308 306 304
324 324 324 324 326 326 322 322 322 321 323 321 321 321 321 323 324 326 328 329 330 330 331 333 334 333 332 332 332 331 329 329 329 328 324 321 320 321 322 322 321 318 314 310 310 309 307 303 305
323 325 324 325 326 326 324 323 323 321 321 321 322 320 321 322 324 326 326 327 329 331 333 334 334 334 333 333 332 331 329 328 327 326 325 322 322 323 322 320 319 314 312 311 310 306 304 303 304
323 323 324 325 324 324 325 325 322 321 321 321 321 321 321 323 323 325 326 326 327 329 331 333 333 334 333 333 333 331 329 328 327 324 322 323 322 322 321 319 318 314 311 312 311 303 303 302 302

GFSSGP_850_thetae_066.txt.gz
Theta_e
315 317 317 319 318 319 319 319 320 321 322 329 325 328 328 328 332 334 332 330 329 330 339 340 341 340 337 335 333 333 333 331 331 325 316 308 308 311 328 325 323 324 322 318 314 313 313 312 311
318 322 319 318 319 320 319 321 321 321 324 328 327 324 326 328 340 338 336 325 325 323 339 338 340 340 338 336 334 334 333 332 327 320 309 308 310 314 328 323 321 321 318 314 314 313 312 312 311
316 318 317 320 321 320 320 320 321 321 321 325 325 330 328 337 342 342 343 337 340 337 340 338 339 340 339 337 335 334 333 330 323 312 307 309 311 317 327 324 320 318 314 314 314 313 312 312 311
318 318 317 318 318 319 319 321 320 320 325 325 325 328 337 339 341 341 341 342 340 341 339 338 338 340 340 337 335 334 332 326 315 307 309 311 314 320 325 323 317 314 314 314 314 314 313 311 309
318 317 318 319 318 319 320 319 322 324 326 325 324 326 328 323 336 337 339 339 338 339 339 339 339 340 340 337 335 334 327 317 308 309 312 314 318 322 325 322 315 315 315 315 315 314 312 309 308
318 318 319 319 319 321 320 320 324 323 323 326 326 327 327 323 335 335 337 339 337 335 337 336 335 330 338 337 334 327 316 309 309 312 322 320 319 321 323 318 315 315 315 316 315 313 310 308 307
318 319 319 319 319 320 324 324 326 327 326 329 325 328 332 331 333 333 335 336 335 332 332 331 328 330 327 325 325 321 312 309 311 313 318 319 317 318 317 315 315 315 317 318 316 313 310 308 307
317 318 318 318 319 321 323 322 325 323 323 323 329 334 330 324 332 332 333 332 334 333 330 327 325 325 326 326 320 317 316 312 312 316 319 319 316 316 315 315 315 316 318 318 318 315 310 308 307
317 318 318 320 321 324 323 323 324 325 323 325 328 335 332 331 331 332 332 331 332 330 328 325 327 326 325 324 323 319 316 317 317 320 319 317 316 315 315 315 316 317 318 319 319 318 311 309 308
317 318 319 321 320 319 321 321 322 326 322 322 321 326 330 330 331 332 331 330 330 329 328 327 326 325 325 324 323 323 316 313 316 318 317 315 314 314 315 316 317 318 318 319 319 316 313 311 310
318 318 319 319 320 320 320 321 322 322 324 323 320 328 330 331 330 329 328 329 329 329 329 328 326 325 326 326 323 319 313 318 318 316 314 314 314 315 316 316 317 318 318 319 319 317 315 311 310
319 319 318 318 319 320 320 321 321 325 326 325 324 333 329 329 328 329 328 328 327 325 324 325 326 325 323 322 320 315 316 320 316 315 314 315 314 315 316 315 317 318 318 319 319 318 318 312 309
320 319 318 319 319 319 321 322 322 328 331 334 334 331 329 329 328 328 328 327 326 325 324 324 322 322 322 321 317 314 319 317 315 314 315 315 314 317 315 316 317 318 318 319 317 318 318 314 310
320 320 320 319 319 320 321 322 326 325 321 333 333 332 331 331 329 327 327 325 324 323 322 321 322 322 321 319 318 316 320 315 316 317 317 314 316 318 318 320 319 319 319 318 317 318 318 313 310
320 320 320 320 320 321 321 322 325 324 326 332 331 331 330 330 330 328 326 325 324 322 322 321 321 320 319 318 316 316 317 315 316 321 317 316 320 321 321 321 320 319 319 318 316 316 314 313 309
321 321 319 320 321 322 322 323 324 323 325 330 332 331 330 330 330 327 326 324 323 322 320 320 320 316 315 315 316 316 315 317 321 319 315 314 320 322 322 321 321 320 319 318 317 317 318 312 309
320 319 319 321 323 323 325 325 325 322 324 327 330 331 329 330 328 325 325 324 322 321 320 316 315 314 316 319 316 322 319 320 319 317 314 314 318 320 320 322 322 320 319 319 318 318 314 312 310
322 321 322 320 323 324 322 327 323 324 326 327 329 330 329 329 329 326 326 323 322 317 314 315 317 321 322 321 323 322 321 316 315 317 320 320 316 316 319 323 323 322 321 320 319 316 316 313 312
323 321 322 323 323 324 322 323 327 326 327 330 328 329 329 327 327 328 326 322 321 321 320 320 321 322 322 319 321 321 321 318 318 319 321 323 323 321 322 321 322 323 322 320 320 318 316 315 312
322 322 321 322 323 322 321 322 325 327 326 326 327 328 329 328 327 326 325 323 324 324 324 323 323 322 322 323 321 321 321 320 320 321 322 326 324 324 324 324 325 323 321 319 319 318 318 317 312
321 321 322 324 323 322 322 322 323 323 325 325 327 327 329 329 328 327 326 325 325 324 324 323 322 322 322 324 322 321 321 320 321 321 323 325 325 323 324 324 324 323 322 321 318 318 318 317 313
322 321 323 322 322 322 323 324 325 324 323 326 326 327 326 328 327 327 328 326 325 324 324 324 323 322 324 325 325 324 321 320 321 321 322 323 324 324 323 324 323 323 323 321 318 318 317 316 313
323 323 324 322 322 323 324 326 325 323 323 323 326 327 326 326 328 328 327 327 326 325 325 325 326 325 325 325 325 325 322 321 320 321 322 324 326 325 323 323 323 323 322 322 321 316 316 315 313
322 322 323 323 323 325 324 325 325 324 324 323 326 328 329 327 327 329 329 328 329 328 327 326 326 326 327 327 327 326 326 323 321 321 322 324 325 324 322 324 322 321 319 322 321 316 314 314 313
322 322 325 327 328 328 325 325 326 324 324 324 323 327 328 328 327 326 329 330 330 330 329 328 327 327 327 327 328 327 328 327 324 323 323 323 324 321 319 320 322 320 321 322 319 313 314 312 312
322 322 326 329 330 331 326 325 323 324 323 322 322 322 325 327 327 327 326 330 330 330 330 330 330 328 328 328 329 329 329 329 329 325 325 324 325 320 321 321 321 321 321 322 318 315 312 312 311
324 325 324 329 328 332 326 325 323 323 321 321 322 323 324 324 326 328 328 327 330 330 330 330 331 330 329 329 328 329 323 329 328 329 328 326 325 324 322 321 321 321 322 320 316 313 311 311 310
321 324 326 327 330 327 322 322 324 322 322 322 321 322 323 324 325 324 328 328 327 330 330 330 330 332 331 330 330 329 330 330 330 330 330 328 326 325 323 322 322 321 320 317 315 312 311 311 308
321 324 326 325 325 329 331 326 324 323 322 321 323 321 321 322 324 325 327 329 329 328 330 331 331 331 332 332 331 331 331 332 330 328 327 326 326 324 322 321 321 321 320 318 313 311 311 310 307
321 323 326 328 327 327 329 326 323 323 322 322 321 321 321 321 323 325 326 326 329 330 330 333 333 334 334 333 332 332 332 331 328 328 327 326 325 322 323 320 320 320 317 313 312 311 310 307 304

GFSSGP_850_thetae_069.txt.gz
Theta_e
314 316 318 319 315 311 313 315 315 315 321 326 327 328 327 327 333 337 333 335 338 338 336 335 339 336 329 329 330 331 328 329 328 322 311 308 310 319 317 321 323 322 316 312 312 311 311 315 321
315 320 322 321 313 313 314 315 316 317 326 328 325 324 324 339 339 339 336 330 329 327 330 327 325 332 331 330 331 331 329 330 325 314 308 311 318 317 319 322 321 316 313 313 312 311 311 315 321
315 320 320 312 312 315 316 316 317 323 326 325 324 328 335 329 337 339 338 340 337 326 324 324 327 330 334 332 332 333 330 330 321 309 309 324 327 319 321 321 317 313 313 312 311 311 310 317 320
316 318 318 312 312 313 315 314 322 325 324 325 324 327 330 325 326 334 335 341 340 339 336 332 334 339 336 332 332 332 329 326 314 308 311 324 327 320 320 317 313 314 313 312 311 310 310 318 319
320 319 312 312 313 315 316 319 323 322 324 327 322 327 326 326 324 325 330 333 336 338 339 338 337 339 338 334 333 331 329 321 309 309 314 325 327 319 317 314 314 314 314 312 310 309 309 317 318
319 317 313 314 314 316 320 324 325 325 324 326 325 328 327 324 324 324 331 332 333 336 334 334 335 333 331 322 334 330 326 314 308 311 316 325 324 317 314 314 314 316 314 312 310 309 308 313 317
315 312 312 312 314 316 322 323 325 326 326 329 327 327 330 323 321 327 330 331 333 334 333 334 334 332 328 321 332 323 318 313 311 313 319 325 323 317 314 314 315 317 316 313 310 309 308 309 315
318 311 312 313 314 317 322 322 324 323 325 329 326 332 330 327 325 328 331 334 332 333 333 332 328 328 326 326 323 321 318 319 323 323 321 322 323 317 315 315 316 318 318 316 311 309 308 308 312
317 311 312 313 316 320 323 321 323 324 323 322 326 326 329 328 330 331 330 332 331 332 329 329 330 326 325 325 323 320 314 314 318 324 323 322 321 317 315 315 317 318 319 319 313 309 308 308 310
315 310 313 315 316 317 319 322 321 324 322 322 328 329 331 329 327 329 329 329 328 329 330 327 327 326 325 323 322 322 314 317 320 320 319 321 317 315 315 316 318 319 319 319 316 312 311 310 309
317 313 315 316 317 318 317 319 325 321 323 322 324 329 329 329 328 329 327 328 328 327 326 326 325 325 325 323 322 321 315 316 318 319 319 316 315 315 316 316 317 318 319 319 318 315 313 310 309
315 317 317 317 317 317 316 320 323 322 321 330 325 331 331 329 329 329 327 327 327 327 327 327 325 325 324 323 322 318 320 317 321 318 315 314 315 315 315 316 317 318 318 319 319 319 317 311 309
316 316 318 319 318 318 318 323 326 323 323 322 329 331 329 329 328 328 326 326 326 326 324 324 326 325 326 324 320 314 313 319 318 315 314 314 314 314 314 315 317 318 318 318 319 319 319 313 309
319 318 318 319 319 319 318 322 325 323 322 321 329 330 328 328 328 327 326 326 325 325 324 325 325 324 324 324 315 313 317 318 316 315 315 315 314 314 314 314 316 318 318 318 319 319 319 316 310
319 318 317 317 318 317 319 320 323 322 322 326 332 330 330 328 327 325 326 325 324 323 323 322 323 323 323 321 314 315 320 318 316 316 318 317 315 314 313 314 316 318 319 319 319 317 318 317 312
318 317 317 317 317 318 320 321 322 325 328 331 331 330 330 330 328 326 325 325 323 323 322 322 322 322 321 320 316 318 318 319 317 318 316 314 314 314 317 317 318 319 319 319 318 316 317 315 313
317 317 317 317 318 320 319 323 322 323 326 327 331 331 330 330 329 326 325 324 323 323 322 322 321 320 319 318 314 318 316 315 319 318 315 315 314 315 319 318 319 320 320 319 318 317 317 316 312
318 321 318 317 320 322 322 322 323 323 324 326 328 329 330 330 326 324 324 323 323 322 321 321 319 316 314 314 316 316 319 316 315 313 313 314 313 313 317 318 320 320 321 320 319 319 317 316 312
319 320 319 319 321 322 321 322 323 323 325 325 324 327 329 329 326 323 321 321 321 320 319 318 316 314 315 314 315 313 315 317 317 315 314 314 315 313 314 316 318 322 322 321 320 320 318 315 313
321 320 319 321 321 321 318 317 324 323 323 323 326 327 328 328 326 325 320 319 317 317 317 319 317 318 317 314 319 322 321 320 318 317 317 314 314 319 317 315 318 321 322 322 322 320 318 317 316
320 320 319 321 321 320 319 318 324 324 324 324 326 328 328 329 327 325 322 319 317 316 317 319 320 321 321 321 323 322 320 319 317 315 317 318 320 323 323 323 322 323 323 322 321 320 318 317 316
320 320 320 323 321 320 319 320 322 321 324 324 326 328 328 328 327 326 324 322 322 322 321 321 321 321 322 321 319 317 319 320 319 315 318 321 322 323 324 323 322 322 320 322 322 320 318 316 316
320 323 322 323 321 320 320 322 325 322 322 322 321 327 328 327 326 326 325 324 324 323 323 323 323 323 321 321 323 319 319 320 320 320 320 321 323 324 323 324 323 322 322 323 322 322 320 317 316
320 321 322 321 320 320 321 326 325 321 321 322 322 326 327 327 327 327 326 326 325 324 324 323 323 321 320 319 324 325 323 322 321 321 321 322 322 322 323 323 323 321 319 321 322 321 320 319 317
320 320 321 322 321 321 325 326 323 324 322 321 321 325 325 328 327 327 327 326 325 325 324 324 323 324 324 323 323 324 326 324 321 320 320 321 322 324 323 323 323 321 321 322 321 320 320 321 316
319 319 322 325 325 327 326 326 321 321 322 322 323 326 327 325 327 327 327 327 327 326 325 324 324 324 325 325 325 325 324 325 324 323 320 321 321 322 322 323 323 321 323 322 321 321 320 317 315
321 320 321 327 326 328 329 324 321 320 319 319 321 325 327 327 326 327 328 328 327 328 327 327 326 326 326 326 327 327 328 326 326 326 323 322 322 322 322 324 321 320 322 321 320 320 319 316 313
319 322 324 328 329 332 328 326 322 322 322 318 318 320 323 325 327 326 327 329 329 329 329 329 329 328 327 326 326 326 327 329 327 327 326 325 324 324 325 325 322 322 321 320 320 319 317 314 312
319 319 323 326 326 325 325 324 321 321 322 318 317 321 323 323 324 325 327 326 328 329 330 329 330 329 329 329 327 328 328 328 330 328 328 327 327 323 324 324 323 322 320 321 320 318 316 313 311
319 320 324 325 326 325 321 323 321 319 320 319 319 321 321 322 323 322 324 327 328 330 330 330 329 329 329 330 330 329 329 329 328 328 327 319 321 327 324 324 323 321 321 320 319 316 313 311 310

GFSSGP_850_thetae_072.txt.gz
Theta_e
314 315 317 319 312 308 311 313 314 314 316 326 326 328 339 338 338 336 337 336 338 340 340 337 336 334 326 328 328 326 325 327 327 321 312 310 310 312 316 322 321 318 313 311 311 315 320 321 324
315 318 322 320 311 312 311 312 314 319 324 326 326 333 335 338 337 336 335 338 334 336 337 338 336 334 332 328 330 327 326 329 325 314 309 310 314 314 320 323 319 312 312 311 311 318 320 320 321
315 318 320 312 309 311 312 313 314 325 324 324 324 330 330 327 333 334 328 328 330 332 333 335 335 333 330 326 330 326 327 329 319 309 311 317 315 318 321 319 312 312 311 310 312 319 320 320 321
315 316 316 311 311 311 314 315 316 324 324 323 325 327 327 324 325 327 328 332 333 325 331 329 329 331 325 328 328 328 327 327 311 324 322 316 318 320 319 313 313 312 311 310 313 320 320 320 320
318 318 310 311 311 311 313 315 316 322 325 324 323 326 325 326 324 324 327 332 333 332 330 327 327 326 328 327 332 330 325 319 310 312 317 318 320 319 313 313 313 311 310 309 315 319 318 319 319
318 314 311 312 313 314 313 320 324 324 326 325 326 327 327 323 321 321 329 331 332 334 333 332 332 330 328 327 327 331 323 314 323 320 323 319 319 315 313 314 312 311 310 309 313 318 317 318 320
314 309 311 312 314 313 319 322 325 324 326 328 325 326 325 324 325 325 334 330 333 336 335 333 333 332 328 325 329 330 322 321 321 327 327 321 317 314 314 315 313 311 309 308 309 317 317 316 318
317 310 313 311 313 312 315 321 324 323 326 329 329 331 326 322 327 326 330 332 331 332 334 332 332 330 330 325 325 324 320 325 326 327 328 321 315 314 315 316 315 312 310 309 308 311 316 316 315
316 311 311 312 312 313 316 320 323 324 322 326 327 326 327 327 326 328 330 330 330 329 329 328 328 328 327 326 324 322 319 320 325 328 327 320 315 315 316 317 317 316 311 309 308 308 312 315 315
313 309 312 312 312 314 316 320 320 324 324 324 328 327 328 328 328 329 329 329 328 329 328 328 326 324 325 325 322 322 319 318 321 324 325 321 315 315 317 318 318 318 315 310 309 308 310 312 312
314 313 315 315 315 314 316 323 322 323 324 324 325 328 328 329 328 329 328 328 326 326 327 327 326 324 323 322 321 322 320 318 320 320 319 318 315 315 317 318 319 319 318 315 312 311 310 310 309
314 315 315 316 316 315 315 323 324 323 326 326 325 327 329 329 328 327 326 326 326 326 325 325 325 324 322 321 321 322 320 317 318 320 318 315 315 315 317 318 318 319 319 318 318 316 310 309 309
313 313 316 318 318 317 317 324 325 324 325 327 328 330 330 330 328 327 327 326 326 325 325 324 324 324 323 321 321 321 319 322 319 316 317 315 315 316 316 317 318 318 319 319 319 319 317 309 309
315 316 317 318 318 317 317 323 323 322 321 326 330 329 328 328 327 327 326 326 325 325 325 324 325 324 322 322 319 315 318 315 316 319 317 315 315 315 316 316 317 318 319 319 319 319 319 313 309
317 317 315 316 317 317 319 319 323 322 322 328 329 329 329 327 326 326 325 325 325 325 324 323 324 325 324 321 318 318 321 317 319 316 315 315 315 314 314 314 316 318 318 319 319 319 319 317 311
316 316 316 315 316 317 316 316 321 322 323 329 330 330 326 327 327 326 324 325 325 324 322 323 323 324 323 321 317 316 320 319 316 314 316 317 316 314 314 313 314 317 319 320 319 319 319 319 317
315 315 316 317 318 316 316 318 321 325 327 330 330 329 326 329 328 328 324 324 324 323 322 322 323 323 322 318 314 319 319 318 315 315 316 317 317 315 314 313 315 318 319 319 320 319 319 319 317
315 317 317 316 316 315 320 320 320 324 326 330 330 330 330 329 329 328 325 324 323 323 322 322 322 322 320 315 317 320 318 316 316 316 320 318 317 314 314 314 314 317 318 320 320 320 319 319 318
316 316 316 317 318 321 320 319 321 320 323 325 328 329 330 329 329 326 324 323 322 322 322 322 321 320 319 315 318 318 317 318 319 319 318 315 315 314 313 314 315 318 318 320 321 320 319 319 316
316 317 317 318 319 319 317 317 320 322 323 325 328 328 328 328 329 322 323 322 322 322 322 321 321 319 319 316 315 316 316 317 317 315 313 313 313 313 313 313 314 313 317 320 321 321 320 319 316
317 317 318 318 319 318 318 317 323 322 323 324 325 325 327 328 328 322 321 320 320 320 321 320 317 316 316 314 316 316 318 317 316 315 315 313 313 315 315 315 313 312 315 320 322 322 321 320 317
318 318 318 319 320 320 317 318 321 321 322 323 323 324 326 327 328 323 319 319 319 319 319 316 315 315 314 314 313 313 314 315 317 317 316 314 315 314 316 319 320 320 320 321 322 323 322 320 318
319 319 320 321 321 319 319 319 319 319 320 321 322 324 326 327 328 326 321 318 317 319 318 317 316 316 314 315 315 319 320 320 319 318 317 314 314 317 319 320 323 323 323 322 322 321 322 321 319
319 320 320 318 318 320 319 321 320 320 320 320 324 325 326 327 328 327 325 322 320 317 316 318 319 320 319 318 318 321 322 320 319 316 316 316 314 316 320 322 322 324 324 323 322 321 321 322 320
319 317 320 320 320 320 324 324 321 319 319 319 324 326 327 327 327 327 325 323 321 320 319 319 319 319 318 319 320 319 319 316 313 314 317 318 319 319 320 321 322 323 323 322 322 321 322 322 321
318 318 320 322 322 322 324 324 322 319 320 321 322 326 327 326 327 327 326 326 324 323 322 322 322 320 319 318 318 316 318 319 321 322 322 320 319 320 320 321 322 322 322 324 322 321 321 322 321
319 319 319 324 325 324 324 325 320 319 319 318 319 323 325 325 326 326 326 326 326 325 324 321 320 322 321 319 320 318 319 322 323 325 323 322 321 320 321 321 322 322 323 322 321 321 322 321 319
319 320 324 325 327 327 326 325 322 321 321 317 318 322 323 325 326 326 326 327 326 327 326 325 322 320 319 320 321 323 322 323 323 324 325 324 321 322 320 321 321 322 323 323 321 322 321 320 318
318 319 322 325 325 325 323 321 318 320 319 317 315 321 325 324 323 326 326 327 327 327 326 327 326 325 323 323 323 323 324 325 325 324 324 324 323 322 322 319 318 323 324 321 321 321 320 318 316
317 319 319 323 327 325 319 321 319 317 318 317 317 321 323 324 325 326 326 326 326 327 327 326 327 327 324 324 324 325 326 326 326 327 325 325 323 321 318 323 321 324 323 323 321 319 319 317 315

GFSSGP_850_thetae_078.txt.gz
Theta_e
313 314 318 318 309 307 311 311 310 313 318 322 331 328 332 333 331 326 338 339 339 340 342 337 332 330 329 332 331 331 331 331 333 335 335 332 328 318 322 328 329 329 328 320 315 313 314 312 312
314 317 320 315 308 309 309 309 311 311 320 322 330 332 333 335 334 334 334 335 338 341 341 338 329 332 333 332 331 330 331 330 335 334 333 328 321 315 327 331 330 329 323 319 322 319 317 315 315
314 318 317 307 305 310 310 310 311 314 315 322 322 328 330 330 336 335 333 333 333 338 339 332 326 326 329 328 330 330 331 333 331 327 323 319 314 315 327 327 322 318 317 329 326 323 318 317 311
314 315 312 309 311 310 311 311 312 311 316 322 323 323 325 325 328 329 330 328 329 335 338 334 329 326 326 326 325 330 331 325 321 319 317 314 312 317 325 320 317 314 314 314 318 319 318 315 308
317 315 309 310 311 310 309 311 312 312 320 323 323 321 325 323 324 324 324 323 325 332 333 336 331 330 325 326 324 324 324 328 328 324 317 313 313 319 317 316 323 318 315 317 318 319 318 317 315
316 312 310 310 311 311 311 314 314 316 320 324 324 324 325 325 324 322 323 323 326 330 331 332 334 332 328 328 329 328 329 328 328 326 323 315 317 316 314 314 322 313 316 317 318 319 319 318 314
311 307 310 310 311 312 312 315 317 322 324 325 326 323 326 326 326 324 324 327 329 329 330 331 331 331 329 330 329 329 328 327 328 328 318 320 319 314 312 312 312 316 317 317 318 319 319 317 315
316 308 311 310 312 312 313 316 320 323 323 325 325 327 324 323 324 326 325 327 329 329 330 330 330 332 330 327 326 326 327 328 328 327 318 320 315 313 312 311 314 317 317 317 318 319 319 317 315
314 309 309 312 310 311 313 314 317 321 325 326 328 328 327 325 326 327 328 328 329 329 331 331 329 327 327 327 328 326 328 328 329 323 319 319 313 312 311 312 316 318 317 316 317 317 317 317 314
310 308 310 309 310 313 313 313 314 321 322 323 325 326 327 327 327 327 327 326 327 328 329 330 329 327 327 329 326 326 327 328 324 323 322 314 312 311 310 315 317 317 316 316 315 315 315 314 312
309 310 310 313 314 314 312 312 316 320 321 321 322 325 328 327 326 324 325 327 327 327 328 328 329 328 329 328 324 329 328 327 322 320 318 313 312 311 309 309 314 316 315 315 315 315 314 313 311
313 312 313 314 314 313 311 315 319 320 319 322 323 324 328 327 327 326 324 325 325 327 327 327 326 327 325 324 326 327 323 322 320 319 317 313 312 311 309 307 307 308 311 312 313 313 312 310 309
311 311 314 314 314 315 314 316 319 321 320 322 324 325 327 327 326 325 324 325 326 325 325 326 325 324 323 323 325 325 326 322 321 319 317 314 314 312 309 308 307 307 308 309 310 310 310 310 309
314 312 313 314 315 315 316 317 322 319 321 323 325 326 326 326 325 325 324 325 325 325 324 325 324 323 322 323 323 323 323 322 319 318 315 316 317 317 316 311 308 308 309 310 311 310 310 310 310
315 314 311 311 314 313 315 317 320 319 321 324 325 326 325 326 327 326 325 325 325 325 325 325 324 322 322 322 322 322 323 321 318 319 315 316 317 318 318 318 318 316 316 317 317 314 310 310 310
314 312 313 312 313 314 316 314 314 316 321 322 324 328 326 328 327 325 324 324 324 324 324 324 324 321 320 321 321 321 321 320 320 319 315 316 315 315 316 317 318 318 318 319 319 318 318 313 310
311 312 311 311 313 315 312 314 313 318 321 321 324 327 329 329 327 326 324 323 323 324 324 324 323 322 320 319 320 320 321 322 319 318 316 315 315 317 317 318 318 318 318 318 318 318 318 317 315
313 313 312 313 313 313 313 312 312 316 320 321 325 328 329 327 327 327 325 323 323 323 323 323 323 322 320 320 319 319 321 322 318 317 314 315 315 316 316 317 317 317 318 318 319 319 318 318 317
312 313 314 312 312 315 314 313 313 315 321 322 324 328 328 328 326 326 325 323 322 323 321 322 323 322 320 320 320 319 318 319 318 316 315 318 316 315 316 316 316 316 317 318 319 319 319 319 318
313 314 314 312 313 313 313 314 313 317 318 322 323 327 328 328 328 327 326 325 322 322 321 322 322 322 321 320 320 322 320 318 317 316 316 320 315 315 315 315 315 316 317 317 318 319 319 319 318
314 314 314 313 313 313 314 314 314 317 318 320 321 323 326 328 328 328 326 326 322 322 322 322 322 322 321 320 319 319 320 320 317 318 319 318 317 317 316 315 317 318 318 317 317 316 318 319 319
314 313 314 314 315 315 314 316 314 314 317 320 320 321 322 326 328 328 327 327 321 321 321 321 322 322 322 320 317 318 319 320 319 318 315 314 316 316 316 316 318 319 319 316 315 315 315 318 320
315 313 313 314 314 315 316 315 314 316 318 317 318 321 322 323 326 327 327 327 321 319 321 321 322 322 322 322 320 318 320 319 317 317 316 315 317 316 316 315 316 316 317 316 317 317 316 316 318
316 315 315 316 315 317 317 317 316 315 317 317 317 320 321 322 323 325 326 327 322 318 321 321 321 321 321 321 321 318 317 318 318 315 317 317 317 315 314 314 315 315 316 316 316 320 321 320 320
315 315 317 318 318 320 316 317 318 316 315 315 316 318 320 321 322 323 325 327 324 318 318 320 321 321 321 320 320 317 316 316 317 316 316 315 315 314 315 316 315 314 314 315 315 319 321 322 322
315 315 317 322 320 319 319 321 319 317 317 318 319 320 319 320 321 323 324 326 326 323 317 316 316 319 319 320 320 317 316 317 318 317 315 314 314 314 313 315 316 316 314 313 314 317 320 321 321
315 317 315 319 320 321 319 318 316 316 316 314 315 317 318 320 322 323 324 325 326 325 321 316 315 316 317 317 320 319 315 316 317 316 315 314 314 314 316 318 316 315 317 319 318 319 320 320 321
314 315 319 318 324 325 320 321 318 318 317 315 314 316 320 322 322 323 324 325 326 326 324 319 316 315 316 317 317 318 316 316 315 315 314 313 313 314 317 317 314 316 319 320 321 321 321 321 321
315 316 319 319 318 320 320 319 316 317 317 317 313 316 320 322 323 323 324 325 326 326 326 324 320 317 316 316 316 316 316 315 315 315 315 316 317 317 315 314 317 320 323 323 322 321 320 319 321
313 315 318 319 321 318 317 319 316 316 315 315 313 317 320 320 322 323 324 325 326 326 326 326 323 320 317 316 316 315 315 316 316 315 315 316 315 314 316 319 320 321 321 321 323 321 321 319 319

GFSSGP_850_thetae_081.txt.gz
Theta_e
312 314 316 317 316 315 316 316 313 315 316 318 327 327 331 334 331 329 336 338 339 338 338 334 332 330 330 329 328 329 334 336 336 333 331 328 326 319 316 318 326 330 327 328 320 323 328 323 317
313 316 319 314 315 316 316 313 315 316 318 318 331 333 333 333 333 334 335 337 338 339 339 340 332 327 328 329 331 332 335 335 335 334 332 329 325 320 321 322 329 328 328 325 319 322 312 311 311
315 319 318 315 313 317 317 314 316 314 314 318 323 326 331 332 333 334 334 334 335 337 341 339 337 328 329 329 331 331 333 333 333 332 330 329 323 320 325 324 329 329 327 323 321 313 311 309 307
315 317 312 316 315 315 315 316 314 314 317 321 322 324 326 325 327 332 331 333 330 332 340 338 336 330 331 330 329 330 328 323 334 331 330 327 321 321 328 328 330 327 326 327 320 315 311 308 306
314 315 316 315 315 314 312 312 312 315 316 323 322 323 324 323 323 324 325 329 327 328 337 336 332 327 330 329 328 325 324 328 334 331 327 324 319 321 329 330 328 326 325 326 321 312 307 306 306
317 312 316 315 314 313 314 314 313 317 319 324 324 323 324 323 323 324 322 322 323 325 335 336 331 326 329 328 327 326 329 328 327 326 326 322 321 324 326 325 322 317 316 322 318 316 314 307 306
316 316 315 313 314 315 315 314 317 319 322 324 324 325 324 324 324 324 323 324 327 329 332 332 331 330 326 326 326 325 324 324 327 326 323 325 325 325 322 319 317 314 316 318 318 317 312 312 308
315 315 314 314 316 316 314 314 317 321 320 323 324 327 327 324 323 323 325 325 328 329 330 331 331 330 329 330 329 326 329 326 326 329 324 324 324 323 319 317 314 316 317 319 319 317 315 313 310
314 317 317 315 314 316 313 315 315 317 322 324 326 325 326 327 324 324 326 326 327 328 330 329 331 331 329 329 330 328 328 328 330 330 327 323 322 320 316 313 316 316 317 319 319 318 315 313 310
314 316 316 314 313 315 314 313 314 318 322 323 325 326 326 325 324 325 326 326 326 328 328 330 331 330 330 329 329 328 327 328 328 330 325 320 317 315 314 314 316 317 317 318 319 318 315 312 309
311 316 314 314 313 313 314 312 314 319 320 319 321 320 324 323 325 326 324 325 326 327 328 329 329 329 327 328 327 327 327 327 329 326 322 318 315 313 313 315 313 317 317 319 318 317 314 311 309
314 312 313 314 314 313 313 314 317 319 318 317 319 322 322 322 325 325 324 324 325 326 327 328 329 328 327 326 328 327 326 328 329 323 318 317 313 312 312 315 315 316 315 315 315 314 313 310 309
313 314 313 313 312 312 313 315 316 318 317 318 320 323 324 324 326 326 326 323 324 325 326 326 327 327 328 327 325 327 327 326 323 319 319 314 311 311 314 313 315 316 315 314 314 313 311 309 309
314 312 313 314 314 314 315 316 319 318 318 319 322 323 325 325 326 325 324 323 323 325 325 325 326 325 324 324 326 325 324 324 320 321 315 312 310 309 309 311 310 314 313 312 312 311 310 309 309
314 315 315 315 315 315 313 317 320 318 318 322 324 325 326 326 326 324 323 324 323 323 324 324 325 325 323 322 324 324 322 320 319 317 313 311 309 308 308 309 308 308 310 310 309 309 309 309 308
315 314 316 314 313 314 316 317 318 316 319 325 326 327 326 326 326 324 324 325 324 324 324 324 325 323 322 322 324 322 322 319 317 314 314 312 313 316 310 316 316 310 313 313 312 311 309 309 309
314 315 314 314 313 315 316 318 317 316 319 323 324 325 325 326 326 324 325 323 325 323 323 323 323 322 322 323 323 322 321 320 316 314 315 316 316 318 317 318 312 314 318 318 318 317 312 310 309
316 315 314 315 314 315 315 316 316 315 320 321 323 324 326 326 326 324 326 324 323 323 322 323 323 322 321 322 322 322 320 317 316 316 315 316 318 318 317 315 317 318 318 318 318 318 315 313 315
315 315 315 315 314 315 315 315 316 316 320 321 323 325 326 326 326 325 324 325 322 320 322 323 322 322 321 320 321 322 320 316 320 316 315 316 316 316 317 317 317 318 318 318 318 317 317 315 317
315 315 316 315 314 315 316 317 317 317 319 321 322 325 326 327 327 326 325 324 323 322 320 322 323 323 322 320 320 321 322 318 321 318 316 316 315 316 317 317 317 317 317 317 318 318 317 316 317
317 317 317 316 314 315 315 317 318 318 318 319 322 323 326 327 327 326 325 324 323 321 320 322 322 322 322 320 320 320 321 320 319 315 315 315 317 316 315 316 316 315 315 316 318 318 318 319 319
316 315 316 316 316 316 316 319 318 319 318 319 320 323 325 326 328 327 327 325 325 322 321 322 322 322 322 321 320 321 320 320 318 316 315 314 315 318 315 315 315 314 315 317 317 318 318 318 318
315 315 316 316 316 316 315 317 318 316 320 321 320 321 322 322 324 327 327 326 325 321 322 322 322 322 321 321 321 320 320 318 318 317 315 315 316 318 315 316 316 315 317 318 318 319 318 318 318
315 315 315 316 316 318 316 319 320 320 321 321 319 319 320 322 322 324 327 326 326 322 321 321 321 322 322 322 321 320 320 319 317 316 315 316 319 317 317 316 316 316 317 316 316 318 318 319 320
315 317 318 321 321 317 319 319 321 319 318 319 320 320 318 320 322 323 325 326 327 324 318 321 321 322 322 322 322 320 319 319 318 316 317 319 317 317 315 316 316 315 315 315 316 317 317 318 319
316 317 317 317 321 319 318 321 321 320 319 319 318 318 318 318 320 322 323 324 325 325 319 320 320 321 321 322 322 321 318 319 320 319 318 317 315 314 314 316 316 314 316 317 317 317 317 317 318
316 317 316 319 321 324 321 321 320 320 319 318 318 316 317 318 320 321 323 323 325 325 322 316 319 320 320 321 321 321 321 319 319 318 319 317 317 316 315 316 315 315 315 318 318 317 318 319 319
316 317 318 318 319 321 321 322 321 320 320 319 320 319 318 318 320 321 321 323 324 326 324 320 316 316 317 319 320 321 321 319 317 316 316 317 316 316 315 315 315 314 315 318 318 316 318 320 320
314 317 319 318 320 320 321 322 320 322 321 321 320 317 316 319 320 322 322 323 324 325 326 324 320 315 314 316 317 319 320 320 317 315 315 315 315 315 315 314 314 313 314 319 318 317 320 320 321
314 315 317 322 322 321 321 321 317 320 320 318 318 317 316 318 321 322 322 323 324 325 326 325 323 321 317 314 315 316 316 318 318 317 317 316 315 315 314 314 313 315 318 318 319 320 320 321 322

GFSSGP_850_thetae_084.txt.gz
Theta_e
312 313 315 318 320 319 320 320 319 320 320 320 322 326 329 331 327 328 330 332 337 339 340 337 334 334 333 332 333 336 336 334 332 329 329 325 321 319 319 321 328 329 329 330 327 326 326 319 321
312 315 318 319 319 319 321 320 320 320 320 320 323 331 333 329 334 336 336 333 337 339 339 337 334 333 331 331 331 333 336 335 334 330 329 324 320 325 318 327 330 331 331 328 327 326 322 316 317
314 318 320 320 319 320 320 320 320 320 318 319 323 329 330 330 336 338 334 333 335 337 338 339 334 333 331 329 330 331 334 335 334 331 328 323 319 318 319 324 331 328 329 326 327 322 316 311 312
317 317 316 318 319 320 320 319 319 320 320 319 321 326 329 331 336 338 329 333 333 333 333 337 337 339 329 330 329 332 334 335 334 331 331 322 319 320 323 324 330 328 326 323 318 311 310 310 309
316 317 319 319 318 318 319 318 318 320 320 324 324 325 326 326 324 324 326 326 330 329 328 331 335 337 333 331 328 328 327 331 325 326 328 324 321 322 319 328 330 327 322 313 312 312 307 307 307
317 318 318 319 318 317 319 318 318 320 321 325 325 326 326 326 324 324 323 324 323 324 324 333 333 334 333 333 331 331 331 327 325 324 329 327 323 322 326 330 328 326 326 315 311 307 306 306 306
318 320 319 318 317 317 319 318 319 320 321 322 326 325 327 330 326 324 324 323 323 324 324 330 335 332 329 331 330 328 327 328 327 328 326 330 327 327 330 330 328 327 326 315 310 309 306 306 305
317 319 318 318 317 317 318 318 318 320 321 325 325 322 324 331 324 324 324 323 325 327 331 333 333 331 329 331 330 327 326 328 329 328 328 330 327 329 330 328 326 319 321 315 314 310 308 306 305
317 319 319 318 318 318 318 318 318 320 321 324 326 326 330 324 325 324 323 325 325 328 329 332 333 330 329 328 328 327 326 326 325 326 327 327 324 327 328 326 318 316 318 317 314 313 310 306 305
317 319 319 318 318 318 317 318 318 318 320 322 324 327 328 325 328 329 329 330 327 327 330 329 332 331 330 329 328 328 329 325 328 327 327 327 324 327 327 321 316 317 318 317 316 314 310 309 307
316 318 319 317 317 317 318 318 318 319 320 320 321 322 329 329 329 328 329 329 329 326 327 329 330 329 331 331 329 328 329 328 328 327 327 326 324 325 324 318 318 318 319 318 317 314 314 316 315
316 316 316 316 316 316 318 317 318 319 320 319 322 322 327 329 329 329 329 328 327 326 327 328 328 329 328 328 329 329 329 328 327 328 329 324 323 324 322 322 318 318 320 319 318 317 318 316 315
317 316 316 316 316 317 317 317 318 318 318 319 322 325 327 329 329 329 328 327 327 325 326 327 327 328 328 327 327 327 327 327 327 327 326 323 318 318 316 317 318 318 320 320 320 319 317 311 314
317 317 317 317 317 316 317 317 317 318 318 320 323 325 326 328 329 329 328 326 326 325 324 326 326 326 326 327 327 326 324 326 327 325 322 319 316 314 315 317 317 317 317 321 320 316 313 313 314
317 318 318 318 318 318 317 317 318 318 321 322 324 326 327 329 329 329 327 326 325 324 324 325 325 326 325 324 324 326 327 325 326 321 317 315 313 313 314 316 316 315 314 314 314 313 312 315 313
317 318 320 320 318 317 316 317 318 318 322 322 325 327 328 328 328 329 326 325 324 325 325 324 324 324 323 323 324 324 322 323 318 316 315 314 313 312 316 315 315 313 312 312 311 309 315 314 313
317 319 320 320 318 318 318 317 319 320 320 322 324 327 328 328 328 328 326 325 324 324 323 324 324 323 322 322 324 323 321 318 317 314 313 313 312 313 311 309 311 312 310 310 309 311 313 312 313
317 320 320 320 319 317 318 318 318 320 320 322 324 326 327 327 328 328 325 325 324 323 323 324 324 322 322 323 323 322 319 316 313 313 311 309 308 308 314 316 317 317 318 312 311 311 311 310 311
318 319 320 320 318 318 318 318 318 318 321 322 324 325 327 327 328 329 325 323 323 322 323 324 323 322 321 322 322 321 318 314 314 313 311 312 316 309 314 317 317 317 317 316 317 318 316 312 311
319 318 319 319 318 318 319 319 318 318 322 322 323 325 326 328 329 329 326 323 324 322 322 323 323 323 321 321 322 321 320 315 315 314 314 315 311 310 316 316 317 317 318 319 319 318 318 317 315
318 319 319 319 318 319 319 320 319 318 321 322 323 324 325 327 330 329 327 325 324 323 322 322 323 322 322 321 321 322 320 316 315 314 314 315 315 311 316 316 317 317 319 319 318 318 319 318 316
317 317 317 318 318 319 318 320 319 320 322 322 323 325 325 327 328 330 328 326 325 323 321 321 323 322 322 321 321 321 321 316 318 316 314 316 316 316 316 316 317 316 317 318 317 317 318 319 319
316 316 316 317 319 320 320 320 319 318 320 321 322 323 325 326 328 330 329 327 326 324 321 322 322 322 322 321 321 321 320 317 318 319 316 316 316 317 316 316 316 316 316 316 316 316 317 318 320
317 317 318 318 319 321 320 319 320 321 322 322 322 322 324 325 327 330 329 327 327 324 322 321 322 321 322 322 321 321 321 319 319 320 317 315 315 317 318 318 315 315 315 315 315 317 318 319 320
316 317 321 322 323 322 319 319 320 322 322 322 322 322 323 324 326 329 330 328 326 323 321 322 322 322 322 322 321 321 320 320 318 319 316 315 316 317 320 318 316 315 316 315 316 318 318 318 319
317 318 321 322 323 323 319 320 321 322 322 321 322 322 323 324 326 328 329 329 326 324 322 320 321 325 323 322 322 321 320 322 320 319 316 316 317 317 320 319 317 317 317 317 318 317 317 318 317
316 319 319 320 319 323 322 322 322 322 322 322 322 321 322 322 325 327 329 329 327 325 324 318 320 322 322 322 322 322 321 321 321 319 318 317 319 319 320 319 317 316 317 317 315 316 317 318 319
314 316 318 319 320 321 321 322 322 322 322 322 323 324 323 322 324 327 328 329 328 326 324 320 319 321 323 321 321 321 321 321 322 322 320 319 320 320 321 320 317 318 317 316 315 315 316 320 320
315 317 317 318 319 321 321 322 322 322 322 323 323 322 322 322 324 326 327 328 328 327 325 323 319 323 323 323 323 322 322 321 321 321 321 320 320 321 321 319 318 317 316 316 316 317 316 319 320
315 316 317 320 318 321 321 322 322 322 323 323 323 322 320 323 324 326 327 327 327 328 326 324 323 322 323 323 323 322 322 321 321 321 321 319 318 319 318 317 317 317 317 316 318 320 319 318 319

GFSSGP_850_thetae_087.txt.gz
Theta_e
312 312 317 319 322 323 323 323 322 322 322 322 323 325 328 328 327 331 340 338 325 333 344 343 338 336 335 334 335 337 337 334 330 328 327 327 325 320 318 324 327 329 331 328 324 325 327 327 325
319 317 319 321 321 323 324 324 322 323 322 321 322 326 327 327 329 333 337 336 333 330 339 345 339 335 334 334 337 336 337 336 332 328 328 328 323 319 318 325 330 331 328 326 323 320 322 323 325
318 319 322 324 323 323 324 323 322 322 321 321 322 325 328 327 331 335 339 327 331 331 337 341 342 335 334 332 331 333 336 337 335 329 329 329 321 319 326 330 331 330 327 324 316 316 316 320 324
318 319 319 319 321 323 322 323 322 322 322 321 321 325 327 333 333 339 332 327 328 338 335 338 337 336 334 333 331 332 333 337 335 331 331 328 325 325 327 330 331 331 327 322 313 314 315 317 319
318 320 322 323 323 323 321 321 320 322 322 324 323 323 326 331 335 332 333 324 324 326 328 331 333 336 338 338 333 332 329 326 327 326 331 328 328 328 329 331 331 329 330 324 317 311 312 311 315
318 319 322 323 323 322 320 320 320 321 322 323 325 323 324 332 332 333 325 323 323 323 323 326 328 332 334 336 333 331 330 328 326 323 327 326 328 329 331 328 328 328 326 313 311 308 308 309 310
320 322 323 323 323 322 320 320 321 321 321 322 324 325 327 332 331 330 325 324 323 322 322 323 326 333 333 334 333 331 329 326 328 328 327 327 327 326 327 327 326 327 317 312 311 307 307 307 308
318 321 322 323 322 321 321 320 320 320 322 324 324 324 323 333 331 330 332 332 325 322 324 325 327 335 334 333 332 331 330 330 328 328 327 326 331 328 323 320 320 325 315 310 307 306 306 306 306
319 321 322 323 323 322 320 320 319 320 320 321 323 324 329 332 331 332 333 330 330 324 325 325 328 333 333 332 331 329 328 328 329 328 325 329 329 327 329 329 328 327 314 310 306 306 306 306 306
320 322 322 323 322 320 319 320 320 320 320 321 322 323 327 331 331 332 332 333 333 331 327 325 328 331 333 331 330 330 329 327 327 328 327 325 330 329 329 329 327 324 315 311 309 307 306 306 306
320 321 322 322 320 319 319 320 319 320 321 320 321 321 323 330 330 331 331 331 333 332 328 325 327 331 330 332 330 328 329 329 328 328 325 327 327 326 329 328 326 321 316 312 311 308 309 314 313
320 319 320 320 319 319 319 318 319 319 320 320 320 320 323 324 329 330 330 331 331 330 325 325 328 328 329 330 329 329 329 331 330 327 328 327 328 326 328 323 323 318 316 315 312 314 317 316 316
320 320 319 318 319 318 318 319 319 319 318 319 319 319 322 324 327 329 330 331 330 330 327 326 327 327 328 328 327 329 329 330 330 328 328 327 327 324 325 320 322 319 318 316 316 320 319 318 317
320 319 319 319 319 319 320 320 319 319 318 319 319 320 322 326 328 329 331 330 329 329 328 326 326 327 327 328 328 328 328 329 329 328 328 327 325 323 322 321 322 322 321 319 320 320 319 317 317
318 320 320 320 320 321 320 321 321 320 319 318 320 322 326 326 329 329 331 330 328 328 328 324 325 326 326 326 326 327 327 326 326 327 327 327 324 323 319 318 322 323 322 321 321 319 317 316 316
319 320 321 322 323 322 321 322 322 320 319 319 322 324 326 327 329 330 330 329 328 328 328 325 324 324 325 325 324 324 325 326 327 327 324 325 321 319 314 315 322 323 323 321 320 318 316 316 316
320 321 322 322 323 321 320 321 323 321 321 321 322 324 327 329 329 330 330 329 328 327 327 325 324 324 324 323 325 324 325 322 325 325 324 321 319 314 313 317 320 321 317 316 317 316 316 316 316
320 321 320 321 323 323 321 322 322 321 321 322 322 324 327 329 329 329 330 328 328 327 327 324 325 324 322 323 323 322 321 321 320 319 317 315 312 312 314 316 315 314 313 314 311 313 316 315 315
318 319 321 323 323 322 322 322 322 322 320 321 322 323 325 328 328 329 330 328 328 327 327 324 324 324 322 323 322 320 318 315 314 315 314 312 313 315 315 315 313 315 313 311 310 314 314 313 314
317 319 320 321 322 322 321 322 322 322 322 320 321 323 325 327 328 330 330 328 328 327 326 324 324 323 321 323 321 318 316 314 313 313 312 313 312 314 311 315 316 316 313 313 313 316 315 314 313
317 319 321 321 322 322 321 322 322 323 322 321 319 322 323 326 329 330 331 328 327 327 326 324 323 322 323 322 322 320 316 314 314 314 313 312 312 313 314 317 315 315 317 317 318 318 318 318 317
318 319 319 319 321 321 322 323 323 324 322 322 321 322 323 324 328 330 331 329 328 328 326 322 323 323 322 322 322 320 317 315 314 314 309 312 312 313 315 316 317 315 318 319 319 320 321 320 320
318 318 318 319 320 320 321 322 323 324 323 322 323 323 324 324 327 330 332 330 330 329 325 323 323 323 322 322 322 321 317 314 313 313 311 314 313 312 309 314 317 318 319 319 320 321 319 321 321
317 317 318 319 320 322 322 324 325 324 323 324 324 322 322 324 326 329 331 331 330 329 326 323 323 323 322 322 321 321 321 316 315 314 314 315 315 314 313 313 316 318 319 321 321 318 318 318 320
316 318 321 323 324 324 323 323 324 324 324 324 323 323 322 323 325 328 332 331 330 329 326 323 322 323 323 323 321 321 321 319 316 315 315 315 314 316 316 317 319 320 320 321 318 316 320 318 318
317 318 321 323 326 326 325 324 323 322 323 322 322 323 323 324 325 327 331 331 330 329 325 324 323 322 322 323 322 321 321 320 318 321 317 315 315 316 317 318 319 320 320 320 319 319 321 321 320
316 318 318 320 322 324 325 324 324 323 323 324 323 322 323 323 324 327 329 332 331 330 327 324 325 322 323 322 322 322 321 321 319 318 319 317 316 316 317 319 319 321 321 320 318 320 319 320 320
311 313 316 318 320 323 322 322 323 323 324 324 323 324 323 322 323 326 328 331 331 329 328 326 323 323 322 323 322 322 322 322 321 320 318 318 317 316 317 317 320 320 321 321 321 321 320 321 319
313 314 315 317 319 320 322 322 323 324 323 323 324 324 324 324 323 325 328 330 331 330 329 326 325 324 325 323 323 323 322 322 322 322 321 320 318 317 318 319 319 321 322 321 321 320 320 321 320
316 316 315 318 319 319 321 321 322 323 323 324 323 324 323 325 325 325 328 329 331 330 329 327 325 324 325 325 323 323 323 322 323 323 322 321 320 319 320 320 321 322 322 321 321 321 321 320 321

GFSSGP_850_thetae_090.txt.gz
Theta_e
312 312 316 320 322 322 324 324 324 323 323 323 322 324 324 327 326 336 340 329 323 338 331 332 340 338 335 335 335 338 338 335 331 329 328 326 325 323 320 318 320 327 328 331 329 328 327 326 325
315 319 318 320 323 323 323 325 323 323 323 322 322 323 324 326 330 338 343 337 324 323 328 335 338 340 336 335 335 335 337 337 333 330 328 327 326 322 318 320 329 332 331 330 324 324 324 320 321
321 320 320 324 324 323 324 324 323 323 322 322 321 323 325 328 332 339 332 321 323 323 325 331 336 340 336 335 335 336 337 338 336 331 328 328 326 321 319 325 330 331 331 323 319 316 317 318 322
319 319 320 322 322 323 323 324 323 322 322 322 321 322 325 327 329 336 333 325 324 335 330 326 330 336 337 335 334 333 334 336 337 329 325 331 326 321 321 325 330 330 329 328 319 311 314 317 322
319 320 322 322 323 323 324 322 322 321 322 323 323 322 325 330 333 325 323 324 324 331 327 324 325 331 335 335 333 332 332 333 334 331 325 330 329 324 327 330 331 330 329 330 314 312 312 316 322
319 319 321 322 323 324 323 321 322 321 321 322 324 325 325 332 328 321 319 322 322 323 324 323 323 325 331 335 338 335 332 332 330 328 326 326 329 328 330 331 331 328 330 325 315 312 311 313 321
319 321 321 322 323 324 324 321 321 322 322 322 323 324 327 332 332 323 320 321 322 323 324 323 323 323 326 331 335 335 332 331 329 326 325 324 330 330 328 331 331 327 325 315 312 310 310 311 319
319 320 321 321 322 323 324 321 321 321 321 323 324 325 326 333 331 326 323 322 323 323 323 325 327 331 332 331 333 334 333 331 329 327 328 325 328 329 329 328 328 328 321 311 309 309 309 309 315
319 320 320 321 323 323 323 321 321 321 320 321 321 323 328 334 328 332 333 331 330 326 325 327 331 336 336 333 332 332 331 331 330 326 328 327 328 328 329 327 328 326 314 311 307 307 307 308 312
320 321 321 322 323 323 322 321 320 321 321 321 321 322 325 329 331 332 333 333 333 334 332 332 332 337 334 334 332 331 331 330 329 329 329 326 329 330 329 326 326 322 313 307 306 306 307 308 309
319 321 321 322 322 322 321 320 320 320 320 321 321 321 322 329 331 331 331 331 332 335 333 330 322 327 335 332 333 331 329 328 328 327 326 327 326 326 325 326 327 318 309 307 306 306 306 306 316
320 320 321 321 321 321 321 320 320 320 320 320 320 321 321 321 324 329 329 331 331 333 333 329 323 327 328 333 332 331 329 328 329 328 327 327 324 327 329 325 327 316 311 307 306 306 307 308 318
321 321 321 320 320 320 319 320 319 320 320 320 320 319 320 320 322 323 328 330 331 332 331 326 324 326 327 330 329 330 330 329 328 328 328 326 327 328 326 327 326 316 310 309 308 316 313 310 318
321 321 321 321 320 320 320 320 320 320 320 320 319 319 319 319 322 325 329 331 331 331 330 327 328 326 327 328 328 328 329 329 329 330 329 328 327 327 324 325 324 316 312 310 318 318 317 316 318
320 321 321 321 320 321 321 321 321 321 321 321 320 319 320 321 324 327 329 332 331 330 330 329 328 326 327 327 327 327 329 328 329 329 329 328 327 327 323 324 322 316 314 317 321 319 318 318 318
320 321 321 321 321 322 322 323 323 322 322 322 321 319 321 323 326 328 329 332 331 329 329 328 328 325 325 326 326 326 327 327 327 327 327 327 328 326 324 321 319 318 318 321 321 319 317 316 318
320 321 322 322 322 322 323 323 323 322 322 320 320 320 323 325 328 329 330 331 330 329 329 326 327 324 324 324 324 324 324 324 324 325 325 328 328 325 320 321 320 321 321 322 321 317 316 316 316
320 321 321 322 322 322 323 323 322 322 322 322 322 322 323 326 328 330 330 331 330 329 329 325 326 324 324 324 324 324 325 325 326 326 327 325 326 323 322 319 318 322 321 321 320 316 316 315 315
318 319 320 321 322 322 324 324 323 323 323 323 323 323 323 324 328 330 330 330 329 329 328 325 325 323 324 323 323 323 323 323 323 323 323 322 323 321 316 319 319 318 322 317 316 316 316 314 314
316 317 318 319 321 321 322 323 322 322 323 323 322 321 323 323 327 330 331 330 329 329 327 323 323 323 323 323 323 322 321 320 320 318 318 320 318 315 315 319 318 318 314 312 315 315 314 314 315
317 318 318 319 321 321 322 322 322 322 322 323 323 322 321 324 327 330 331 331 330 329 327 324 323 323 322 322 321 321 319 319 320 320 320 320 317 315 314 314 314 313 314 315 312 314 315 313 314
317 318 318 319 320 323 321 323 324 323 324 325 324 323 322 322 326 329 331 331 329 329 326 324 323 322 322 322 321 320 318 316 315 316 316 314 313 314 315 313 313 312 316 315 311 314 314 316 316
316 317 318 320 321 321 320 322 321 322 323 324 324 323 321 323 323 330 331 332 330 329 326 324 325 322 323 322 320 317 315 315 315 314 313 313 313 315 315 316 315 315 316 314 316 318 319 319 319
317 317 318 319 320 323 321 322 322 322 324 325 324 323 324 324 324 329 331 332 331 329 327 324 322 322 322 322 321 318 317 317 315 312 313 313 312 313 314 317 317 315 315 317 318 319 319 320 321
316 318 320 321 323 324 321 322 323 323 324 325 325 324 323 324 324 327 333 332 331 331 328 324 323 323 322 321 321 321 320 318 317 313 311 310 312 312 313 314 315 318 317 319 320 319 319 320 318
316 318 319 320 327 328 324 326 323 324 324 323 323 323 323 323 325 327 332 332 331 331 328 325 324 324 322 321 321 320 321 319 317 314 312 311 312 311 312 313 315 315 319 319 319 320 319 319 315
317 317 317 319 320 323 323 325 325 324 323 324 324 323 323 324 325 326 331 332 331 331 329 326 324 322 322 320 321 321 321 321 318 314 313 311 312 312 312 314 313 318 318 318 318 318 317 316 314
314 317 318 319 319 318 318 321 324 325 325 324 324 324 323 323 324 325 328 333 331 331 329 326 323 322 323 323 321 321 321 321 321 318 313 313 312 313 314 315 315 317 318 319 318 318 316 316 316
311 311 312 313 316 318 321 323 324 325 324 325 325 325 324 324 324 325 327 333 332 331 330 327 324 323 324 322 322 322 321 322 321 320 318 316 314 315 315 316 317 319 319 319 320 320 318 317 318
314 312 311 314 316 320 320 320 320 321 323 324 324 324 324 324 325 325 327 333 332 331 330 328 325 323 322 324 322 322 321 322 322 321 320 320 320 316 316 316 317 318 320 319 319 320 319 319 318

GFSSGP_850_thetae_093.txt.gz
Theta_e
311 312 314 318 316 314 316 317 320 320 320 322 322 323 323 323 330 335 336 327 326 326 326 328 333 338 337 336 336 337 336 334 331 328 327 326 324 324 323 321 318 314 315 316 324 327 327 329 328
312 317 317 318 316 317 317 318 319 319 321 321 321 322 323 324 337 339 338 328 332 325 323 325 328 335 338 336 335 334 336 337 334 329 328 327 325 323 322 318 315 320 325 326 322 322 321 323 327
317 321 320 315 315 317 317 320 319 320 321 321 321 322 323 332 338 338 329 324 322 326 322 323 324 329 337 336 335 334 334 336 336 332 332 333 329 323 320 317 326 328 329 331 332 325 325 324 324
320 320 319 316 317 318 319 319 320 320 321 322 322 320 325 331 333 332 327 323 322 321 323 322 322 326 331 336 335 335 335 337 338 335 334 332 331 331 320 325 330 330 330 332 331 320 320 320 319
318 319 315 316 316 317 318 320 320 319 320 322 322 321 329 332 330 327 320 321 322 321 322 323 322 324 331 332 335 334 333 335 337 335 332 328 327 327 326 328 331 330 329 329 316 316 319 323 324
317 319 314 314 316 319 319 321 320 321 321 321 324 324 326 330 327 322 319 320 321 322 322 323 323 323 329 334 334 333 334 332 334 334 333 329 327 324 329 331 331 330 328 320 314 317 322 325 326
316 314 314 314 317 319 320 321 320 320 321 321 322 323 329 333 328 322 320 319 320 322 322 322 323 322 325 330 334 336 335 332 332 333 330 326 324 325 328 330 331 329 329 316 312 318 322 324 325
320 313 315 316 317 317 319 321 321 321 320 321 324 323 330 331 329 326 322 319 320 322 322 322 323 324 325 327 331 334 335 334 331 330 326 326 324 326 331 328 329 329 329 319 312 313 323 324 322
319 314 315 316 316 318 320 320 321 321 320 320 320 321 325 330 331 328 323 320 321 324 325 324 324 336 336 330 331 332 333 332 331 329 327 327 324 325 329 328 327 328 328 316 311 311 318 322 321
316 313 316 317 317 319 319 318 319 319 319 320 320 320 328 331 331 327 323 323 327 331 332 332 325 334 332 332 332 332 332 331 330 329 328 327 327 328 329 329 327 326 325 311 309 310 316 319 320
317 316 316 318 319 320 318 318 320 317 316 319 320 321 330 330 328 326 326 328 329 331 333 333 330 330 331 332 333 331 331 330 330 329 328 328 326 328 327 328 324 326 319 309 308 309 312 318 320
317 317 317 318 319 319 317 320 317 318 318 319 319 320 324 328 327 328 329 330 331 333 333 334 332 322 328 330 330 330 330 330 329 328 327 327 325 329 329 328 324 325 313 307 307 308 311 317 320
318 318 319 319 319 319 320 318 317 318 319 319 319 319 319 323 327 327 325 329 330 331 332 332 331 323 326 330 328 330 330 329 328 328 327 327 325 326 326 322 324 317 307 306 307 307 308 319 320
319 320 320 320 319 319 318 317 319 319 320 320 320 320 319 319 319 320 323 329 330 331 332 331 330 323 325 329 330 330 330 330 329 328 328 327 327 326 324 320 324 311 306 306 306 306 316 319 319
319 318 318 318 319 317 320 317 317 320 320 321 321 320 320 319 319 320 323 328 330 331 331 330 329 324 325 327 329 328 328 329 331 328 328 328 327 327 325 321 325 311 307 306 309 307 318 318 318
318 317 318 318 318 318 318 319 318 320 320 320 321 320 320 319 319 322 326 329 331 331 330 329 329 324 323 326 327 327 327 328 328 330 328 328 327 327 324 322 325 312 308 314 317 313 312 317 317
317 318 318 318 318 318 318 319 319 321 321 320 320 321 321 319 320 325 328 329 332 331 330 329 328 324 327 326 325 325 326 327 327 330 327 328 327 328 325 323 323 313 319 319 319 318 318 317 317
316 317 316 317 317 319 319 319 319 320 320 320 320 320 319 320 325 327 329 331 331 330 329 329 328 323 325 326 323 324 324 325 326 326 327 327 327 327 325 324 320 313 320 321 320 318 317 317 317
314 315 316 316 316 317 318 318 318 319 319 318 320 321 321 321 325 328 329 331 331 330 329 329 327 325 323 322 322 323 323 322 323 323 324 325 326 327 325 324 318 315 320 321 319 317 316 317 316
311 313 313 314 315 317 316 318 318 319 318 320 320 320 321 322 326 329 330 331 331 330 329 328 326 323 322 322 323 321 322 323 324 324 325 325 326 326 324 320 318 319 320 321 318 316 316 315 314
308 310 313 315 316 317 318 319 319 319 319 321 321 321 322 322 326 330 330 331 330 329 329 328 325 322 322 322 323 322 322 322 322 321 322 322 323 325 321 319 321 321 318 321 316 316 314 315 314
309 309 311 315 318 319 319 323 320 320 319 321 320 320 321 321 326 330 330 330 330 330 329 328 324 323 321 321 322 322 322 320 319 320 319 319 321 321 321 320 318 316 321 318 315 315 314 313 315
313 311 312 318 318 319 320 322 320 318 320 320 319 320 321 322 328 330 330 330 330 330 329 328 323 321 321 320 321 321 321 320 319 320 320 320 320 318 317 317 317 316 315 313 314 315 315 315 315
315 316 317 318 319 322 320 321 320 319 320 321 320 321 322 322 328 329 330 330 330 330 329 327 323 321 321 321 322 321 321 321 320 319 320 319 319 318 317 317 316 314 313 314 315 312 312 314 314
315 315 317 320 320 320 318 321 320 319 320 320 320 321 321 322 328 330 331 331 331 330 328 326 323 321 321 321 322 321 319 318 318 318 317 316 315 315 315 315 314 314 314 315 316 313 314 316 318
315 316 318 321 323 326 320 326 324 322 321 321 321 321 322 322 328 330 330 331 331 330 329 327 324 321 321 321 321 320 317 316 317 317 315 313 314 315 314 314 314 313 314 315 315 317 318 319 319
315 315 316 318 318 322 320 319 319 322 323 322 320 322 323 323 329 331 331 331 331 331 330 328 326 321 321 321 321 319 318 317 317 316 314 312 312 313 314 313 317 317 315 315 316 317 319 319 319
313 315 317 317 318 317 316 316 321 320 323 322 321 319 322 324 328 331 331 332 332 331 330 330 328 319 321 320 320 321 320 319 319 317 313 312 312 311 313 313 315 315 316 318 318 319 319 319 318
311 313 315 314 316 317 318 319 321 322 321 322 322 322 323 323 324 329 331 332 332 331 331 330 328 321 323 322 320 320 320 320 320 319 318 314 311 310 313 313 313 312 313 316 317 319 318 318 318
310 310 310 311 312 314 316 316 320 318 321 321 322 322 323 323 324 326 332 332 331 331 331 330 329 325 320 321 321 320 321 320 319 319 319 319 315 312 311 312 312 312 315 315 317 319 318 318 317

GFSSGP_850_thetae_096.txt.gz
Theta_e
311 312 314 316 315 311 314 315 316 317 320 321 322 321 322 324 326 325 332 331 332 322 322 323 329 336 336 336 336 335 334 332 329 327 326 325 324 327 331 331 329 325 324 322 322 329 332 332 331
311 313 316 317 313 314 314 315 317 317 320 321 321 322 322 337 336 329 332 323 322 321 321 322 324 330 336 336 336 336 335 334 331 328 327 326 325 325 326 325 323 320 318 321 322 328 331 331 330
313 318 319 312 311 314 315 317 319 319 321 321 320 321 324 334 333 330 329 323 321 320 320 321 322 323 328 336 335 335 336 336 333 330 328 326 325 326 324 322 317 315 315 317 332 332 328 329 328
316 320 319 314 316 315 316 317 318 318 319 320 320 319 330 333 330 331 325 322 320 321 321 321 321 322 326 331 336 335 334 336 336 332 330 327 326 328 326 322 321 323 323 326 331 328 324 326 328
319 318 313 314 314 314 316 316 319 317 319 321 321 320 332 335 333 330 324 322 321 320 320 320 321 322 328 333 335 335 335 335 335 336 330 330 329 329 329 327 324 330 329 331 330 326 325 326 327
316 314 312 313 315 316 315 318 319 318 320 322 321 327 331 332 329 329 328 322 320 321 320 321 322 322 325 332 334 334 335 335 335 336 333 331 331 329 327 327 329 331 330 329 324 323 324 324 324
315 311 312 312 313 315 317 319 317 319 319 320 323 321 334 335 330 326 323 322 320 321 320 321 322 322 323 329 333 336 334 335 334 335 334 333 331 329 326 325 331 331 329 325 321 321 320 324 324
318 311 315 312 315 315 317 319 318 320 319 321 322 324 334 332 330 323 321 321 321 320 319 321 322 322 322 325 332 336 335 334 333 336 335 332 328 326 325 327 327 331 328 320 321 323 325 325 325
318 313 312 313 314 315 317 317 320 319 320 320 322 322 323 328 330 328 324 322 321 321 321 322 322 322 322 324 329 335 334 334 333 333 332 327 326 325 327 326 328 328 328 320 318 325 325 325 324
314 312 315 314 314 316 316 316 318 318 318 319 320 320 321 327 329 329 327 323 320 323 324 328 329 326 323 324 328 336 335 332 332 331 328 326 325 326 329 328 327 325 328 319 317 325 324 321 321
314 317 316 316 317 317 316 316 318 316 315 318 319 320 323 326 330 330 328 323 323 326 328 329 331 328 324 325 328 330 334 333 332 331 328 328 326 324 327 327 327 326 328 317 321 326 323 320 321
316 316 315 316 317 316 315 317 316 317 318 319 318 318 322 329 330 330 327 324 326 328 330 330 331 331 328 321 327 328 329 331 330 329 328 327 328 326 328 328 329 322 328 315 319 324 321 319 321
315 317 318 318 317 317 317 316 316 317 320 320 319 319 321 325 329 329 325 326 327 329 330 331 332 332 328 321 327 328 327 328 329 329 328 328 327 326 326 327 326 319 326 313 314 322 320 320 320
317 317 317 318 318 318 316 316 316 318 320 319 319 319 319 321 324 325 327 328 330 330 330 330 332 331 327 322 324 326 328 329 329 328 328 327 327 326 326 327 322 322 320 310 310 318 319 320 320
317 315 316 316 317 317 319 316 315 319 319 319 320 320 320 320 319 321 324 327 329 330 330 330 331 330 328 321 324 327 327 329 328 328 328 328 327 326 327 327 323 323 313 308 309 314 319 319 320
317 316 317 317 316 317 317 318 316 319 319 319 319 320 320 320 320 320 318 322 328 330 330 331 330 329 327 322 326 327 329 328 328 329 328 327 327 326 326 322 324 313 307 307 308 313 317 320 319
315 318 317 317 317 316 315 317 316 320 318 318 318 319 319 321 321 320 318 322 326 329 330 330 330 329 327 321 324 328 328 327 328 328 328 328 328 326 324 320 321 310 306 306 307 313 319 320 319
316 316 315 316 316 316 316 316 315 317 317 317 318 318 319 320 321 319 319 324 326 329 330 330 330 328 326 319 323 326 325 326 327 328 328 328 328 327 325 320 324 310 306 307 307 318 318 318 318
314 314 314 314 314 314 313 313 313 315 317 317 318 317 318 320 320 319 323 327 329 330 330 330 329 328 326 320 325 323 324 326 327 328 327 328 328 327 327 322 322 307 308 311 309 317 315 315 318
309 310 311 312 311 312 312 314 315 315 316 317 318 318 318 319 320 326 329 329 329 329 330 329 329 328 326 320 322 322 323 324 324 326 326 327 328 327 327 323 322 310 316 314 316 312 316 317 318
307 307 308 309 311 313 316 316 315 316 317 318 319 319 318 321 321 329 330 329 329 330 329 329 328 327 324 319 322 322 324 322 322 322 322 324 327 327 327 325 323 316 320 317 318 318 317 317 317
307 308 307 307 308 310 316 317 315 316 317 317 318 319 319 319 320 326 330 330 329 330 329 329 328 327 323 319 322 321 321 322 321 321 322 324 324 326 326 326 322 318 319 318 318 316 316 315 313
309 309 309 308 313 317 319 318 315 318 318 318 318 319 319 320 319 325 330 329 330 329 329 329 328 327 320 319 322 321 320 321 321 321 320 323 324 325 326 325 321 317 319 319 317 316 316 313 313
312 312 314 315 316 318 319 318 316 317 317 318 318 319 320 319 319 324 328 330 330 329 329 328 327 326 319 320 323 320 319 320 320 319 319 319 320 319 320 323 317 319 315 318 317 316 314 314 314
312 313 314 316 318 318 317 319 317 317 317 318 318 319 320 321 320 326 328 329 329 329 329 328 327 324 319 321 322 320 320 320 320 319 319 319 319 320 320 321 320 318 317 315 316 316 314 315 315
311 312 314 318 319 318 320 321 322 320 319 319 320 321 322 321 321 327 328 329 329 329 329 328 326 322 318 320 321 320 320 320 320 319 320 321 321 321 321 320 320 319 315 317 315 315 316 315 313
311 314 313 316 317 317 318 318 316 318 320 321 322 320 319 321 323 328 328 329 329 329 329 329 326 322 318 320 321 321 321 320 321 320 320 320 320 320 320 318 317 316 316 316 314 314 316 314 314
312 312 315 314 317 318 316 314 316 319 321 323 322 322 321 324 329 329 329 329 329 329 330 328 326 323 319 319 321 320 320 319 320 318 318 317 317 317 317 317 317 316 316 316 315 315 316 315 315
310 310 314 315 316 317 316 316 321 321 321 320 320 320 321 320 329 329 329 329 329 330 330 329 327 326 322 318 321 321 320 319 317 317 317 316 315 315 315 315 315 315 314 314 313 314 315 315 317
313 311 313 316 316 315 315 317 319 319 321 319 318 320 322 321 320 330 329 329 329 330 330 329 328 327 325 318 319 320 320 319 318 318 318 317 315 313 315 314 314 315 317 315 314 315 315 316 317

GFSSGP_850_thetae_099.txt.gz
Theta_e
313 312 314 314 314 310 314 313 313 316 318 320 322 321 321 323 323 322 323 332 328 322 321 321 327 336 335 334 333 332 330 328 328 326 325 328 330 334 335 334 334 332 329 324 328 331 329 330 332
310 313 314 316 312 313 312 313 316 314 318 321 321 322 325 332 332 326 326 328 333 320 320 321 321 326 335 336 335 334 332 330 328 327 326 327 330 330 331 333 332 330 327 326 329 330 334 332 331
312 315 318 311 309 312 313 315 317 318 319 319 319 320 328 332 332 324 323 321 323 320 321 320 320 321 326 335 336 335 334 333 330 327 327 326 327 332 328 329 327 328 328 328 327 329 331 331 330
315 319 317 313 314 313 314 316 317 315 319 320 319 320 327 329 329 328 321 320 321 322 321 321 321 321 323 330 335 336 336 335 333 330 328 327 326 328 328 325 322 327 327 327 326 328 331 330 329
317 317 311 313 312 313 314 316 317 315 316 319 319 319 329 330 331 330 324 321 321 321 321 321 322 322 322 326 333 335 335 335 335 333 330 327 326 326 325 322 322 324 324 325 327 329 329 329 329
316 313 312 313 313 314 315 317 317 316 318 319 319 328 332 334 333 329 324 321 320 319 319 319 321 322 323 325 331 334 336 336 335 335 332 329 326 327 325 327 329 325 324 321 328 328 327 328 328
312 309 312 312 312 313 315 318 315 316 317 320 322 327 328 332 334 330 325 321 319 319 320 320 320 321 323 325 330 335 336 336 336 336 335 331 329 327 329 328 328 327 325 323 329 326 326 327 327
316 310 314 311 314 315 316 317 318 318 317 320 322 328 332 328 335 332 327 322 320 320 320 320 322 322 322 322 329 335 335 336 338 336 335 332 330 330 331 327 327 329 325 327 326 325 326 327 324
317 312 313 313 313 314 316 315 317 318 317 318 321 323 324 325 333 333 330 325 323 321 320 320 320 321 321 321 324 334 335 335 335 335 336 332 331 332 328 327 325 328 324 327 323 324 325 325 323
314 312 313 313 312 315 314 314 316 316 316 317 318 319 320 325 330 330 326 323 321 320 318 321 323 325 325 322 323 331 336 334 335 334 331 331 332 327 325 325 325 327 322 325 320 322 325 324 324
314 316 314 314 316 316 313 314 316 315 313 317 318 319 320 327 330 330 327 326 323 321 320 323 325 327 325 323 322 324 332 332 332 332 332 331 328 326 325 328 327 330 327 324 321 323 325 325 325
315 313 317 317 317 316 314 316 314 314 316 318 318 318 318 323 327 328 329 328 325 322 323 325 327 328 328 328 324 324 328 329 330 330 330 329 326 326 324 327 327 324 325 322 323 325 325 325 323
314 315 317 317 317 317 317 315 314 315 319 319 318 317 317 319 321 324 326 328 327 323 325 326 329 330 330 329 326 323 323 327 329 331 331 329 328 327 325 327 326 323 325 322 323 326 324 321 321
314 314 315 316 317 317 316 316 316 317 319 319 319 317 317 319 320 322 327 328 329 325 326 328 330 331 331 330 327 323 323 327 327 329 329 328 327 327 326 327 326 326 326 322 323 325 320 320 321
315 314 313 313 315 315 317 315 314 318 319 319 319 319 319 318 319 322 322 324 328 326 327 328 330 331 331 329 326 321 324 326 327 327 329 328 328 327 326 326 326 326 326 321 323 324 320 319 320
316 315 316 315 315 316 316 318 316 319 319 318 318 318 319 319 319 319 319 321 325 326 326 328 330 331 330 328 325 321 322 325 329 327 328 328 328 327 327 326 326 324 324 318 323 324 321 319 320
314 314 316 316 316 316 313 315 315 317 317 316 317 318 318 319 320 320 319 319 320 325 327 328 330 331 330 327 323 323 324 326 325 328 328 328 328 327 327 326 326 321 325 317 319 324 321 318 320
313 315 314 315 315 315 314 315 313 315 315 315 316 317 317 318 320 319 318 318 319 323 327 329 330 331 329 326 323 323 327 326 326 326 327 327 328 327 327 325 322 325 315 313 314 322 319 319 320
313 314 314 313 313 311 312 312 311 311 312 314 316 316 318 318 319 320 319 317 318 321 325 329 330 329 328 326 322 320 323 326 326 326 327 327 328 327 326 326 323 320 311 310 311 318 317 319 319
309 311 311 310 311 311 311 311 310 311 313 315 316 317 318 318 318 319 318 318 319 321 327 330 330 329 328 326 323 318 318 323 324 325 328 327 327 327 327 324 322 316 309 308 308 318 318 319 319
306 307 307 309 308 307 310 310 312 313 313 315 316 316 317 317 318 319 319 321 321 324 327 329 329 329 328 325 321 318 321 323 324 326 327 325 326 327 327 325 321 321 307 308 308 315 319 318 318
305 306 307 306 306 305 311 309 309 312 313 314 316 316 316 316 317 319 320 324 324 325 329 329 329 328 327 325 321 319 321 321 322 322 325 326 325 326 325 327 324 322 307 307 307 317 318 317 318
306 308 307 307 305 307 310 316 311 315 315 314 314 316 317 318 318 318 319 323 326 328 329 329 329 328 327 325 320 319 322 321 322 321 323 322 323 324 327 326 326 323 309 309 307 317 316 315 317
311 309 310 309 308 313 311 316 313 312 315 315 316 317 320 318 318 318 320 325 328 328 329 329 328 328 327 325 319 319 321 320 320 319 320 321 322 323 324 326 326 321 312 312 314 312 315 315 316
310 311 313 315 318 316 316 317 315 314 316 315 318 321 321 320 319 319 321 324 327 329 329 329 328 328 327 324 318 320 321 321 320 319 319 319 320 322 324 323 322 321 314 317 317 316 316 316 313
307 309 312 316 316 315 315 318 315 318 317 319 319 320 320 320 320 320 320 322 325 328 329 329 328 328 327 322 318 320 320 320 321 319 319 319 320 321 322 323 322 319 318 317 315 315 315 316 312
308 311 310 313 314 316 316 316 313 317 319 319 319 318 318 318 320 322 321 322 325 327 329 329 328 328 326 320 318 321 320 320 320 319 319 319 319 319 319 320 318 316 318 316 315 314 316 314 313
308 310 312 312 316 317 314 315 314 320 321 319 318 317 318 319 320 325 325 325 325 327 329 328 328 328 326 319 318 320 320 321 321 321 319 320 320 319 319 319 318 316 318 315 315 316 314 314 314
308 310 312 312 313 316 315 313 318 320 318 320 319 317 318 319 319 327 327 326 325 327 329 328 328 328 325 319 318 320 321 321 321 321 320 320 320 321 321 320 319 317 316 316 315 315 314 314 315
308 310 312 313 314 313 313 315 317 316 319 320 319 318 318 319 318 318 328 327 326 326 328 328 328 327 325 320 318 320 320 320 320 320 320 319 318 318 317 319 319 318 318 317 316 317 314 314 315

GFSSGP_850_thetae_102.txt.gz
Theta_e
314 315 314 315 313 309 313 313 312 314 316 318 320 320 320 321 322 318 330 324 320 320 320 322 328 333 333 332 331 329 328 328 330 330 331 334 334 336 337 333 330 328 327 326 327 329 330 331 333
311 313 314 315 311 311 310 312 315 314 317 319 320 323 325 325 329 326 328 321 320 319 319 321 325 332 334 333 332 331 329 328 328 327 327 330 334 336 335 334 332 332 328 326 326 328 329 330 331
311 314 316 309 308 310 310 313 314 316 317 319 318 320 324 329 329 323 325 321 319 319 320 321 322 327 333 335 334 333 331 329 328 327 326 328 332 334 334 333 333 331 329 328 330 329 329 330 330
313 317 314 312 312 311 311 315 315 315 319 318 318 318 325 328 329 323 324 320 319 320 320 320 320 322 331 335 335 334 333 332 330 328 327 327 329 332 333 332 327 330 328 328 327 328 329 330 330
316 317 311 312 311 311 312 314 316 315 316 317 318 318 327 329 329 325 323 320 319 320 320 320 320 321 325 333 335 335 335 334 333 330 328 327 329 330 329 329 327 325 327 325 326 327 329 330 330
316 313 311 311 310 312 312 316 316 315 317 317 317 321 326 328 329 328 322 320 320 320 319 320 321 321 323 327 333 335 335 335 334 333 330 328 328 328 328 326 324 321 324 323 320 327 329 330 329
311 309 312 312 311 313 312 316 315 315 315 316 319 323 326 327 329 331 323 322 322 323 320 319 320 320 322 325 328 331 333 334 335 335 332 330 328 328 326 323 322 327 328 326 322 328 329 328 328
314 309 312 310 312 313 314 316 317 316 316 317 322 323 324 322 328 332 326 325 325 324 321 320 320 320 322 323 327 330 332 334 334 334 334 331 328 327 327 324 328 328 326 326 327 329 329 326 327
315 311 311 313 311 313 314 315 316 317 316 317 318 319 324 325 328 333 329 326 326 323 320 321 321 320 321 322 327 336 335 336 336 335 334 334 332 329 328 329 329 328 327 325 325 327 323 328 327
312 311 310 312 311 313 314 314 314 316 314 316 316 318 319 320 329 328 328 326 323 321 319 319 320 320 321 321 322 332 336 338 335 335 334 333 332 329 329 331 331 329 327 327 325 323 327 327 327
315 314 313 313 314 314 313 314 316 315 313 316 316 318 318 321 329 331 329 327 324 322 320 319 319 322 323 325 323 325 332 332 335 334 333 331 332 330 330 330 327 327 327 326 324 320 322 326 324
314 312 315 315 316 316 314 315 314 314 316 318 319 319 317 318 326 327 328 327 326 324 321 320 320 324 326 326 323 323 329 325 332 333 331 334 328 329 329 327 325 325 326 327 323 320 320 324 323
312 314 315 315 316 316 316 314 314 313 318 319 319 318 318 317 318 322 322 327 328 326 324 322 322 325 327 327 327 325 323 323 325 328 328 330 330 328 328 326 325 327 326 326 324 322 326 324 323
310 311 312 315 316 315 315 315 315 316 318 318 318 319 319 317 317 319 325 323 326 328 327 324 323 326 328 329 328 327 325 322 324 326 328 328 328 329 326 327 325 327 327 325 321 322 325 325 325
312 311 311 311 314 313 315 313 313 316 317 317 318 318 318 317 317 318 319 320 321 323 329 327 324 327 329 329 329 328 326 324 324 325 329 330 330 329 328 326 326 325 326 319 321 322 325 325 322
315 314 314 314 312 314 316 317 316 318 317 316 317 318 318 318 318 318 319 319 319 322 325 328 326 327 329 330 330 327 325 325 324 325 326 328 329 328 327 327 326 324 324 318 321 323 325 322 320
311 312 314 315 313 315 314 316 315 316 316 315 316 316 316 316 317 317 318 319 318 318 321 327 327 327 329 330 329 327 325 324 323 326 327 327 329 328 327 327 326 326 324 320 320 323 324 321 320
312 314 313 314 314 314 313 314 312 315 312 312 313 314 315 316 317 317 318 319 319 318 318 325 328 327 329 330 329 326 324 324 323 325 325 328 328 328 328 327 326 326 326 324 320 323 321 320 320
311 312 313 312 312 312 311 311 309 310 310 309 311 313 315 316 316 317 317 318 319 317 317 321 327 328 329 330 329 326 324 325 324 324 324 327 328 327 327 326 326 324 323 319 316 322 320 319 320
310 311 311 310 310 311 311 312 309 307 307 310 312 314 316 316 316 316 316 317 318 318 318 320 325 328 329 330 329 327 324 325 323 324 324 325 326 325 325 326 324 324 319 316 319 320 321 319 320
307 309 308 310 307 305 306 307 306 307 309 313 315 315 315 316 317 319 318 317 318 319 318 318 324 328 329 330 328 326 322 321 321 323 323 324 324 324 326 326 325 323 322 315 314 320 321 319 320
307 305 307 306 305 304 307 306 308 308 309 311 312 315 315 317 321 320 319 317 318 320 320 318 326 328 330 329 328 326 322 319 319 321 323 324 324 325 327 325 325 324 320 314 310 315 321 319 319
305 305 305 305 304 304 310 306 307 310 311 311 311 313 318 321 319 320 318 318 318 321 321 321 326 330 330 329 328 326 321 318 320 321 323 323 326 324 326 324 325 324 320 313 310 315 319 318 319
308 308 307 307 305 308 307 307 309 310 312 314 314 318 320 318 318 319 320 317 318 321 322 324 328 330 329 328 327 325 320 318 320 321 321 321 322 324 323 325 326 323 320 310 312 314 317 318 319
308 308 312 314 314 313 309 310 311 312 313 317 318 318 317 317 317 318 319 320 319 321 322 326 329 329 328 327 326 324 319 319 321 320 320 320 321 322 322 323 324 325 322 319 310 311 316 318 319
306 307 311 315 315 313 314 315 314 315 317 317 317 316 316 317 317 318 318 321 320 322 323 326 328 329 328 327 326 322 318 320 320 320 319 319 319 320 321 322 323 323 321 320 311 308 316 315 317
307 308 308 310 311 314 312 313 312 317 318 317 317 316 316 316 316 317 319 324 321 321 323 324 327 328 328 327 326 320 318 320 319 319 319 319 320 319 319 321 322 322 321 316 313 310 311 313 315
306 307 311 310 315 314 312 313 313 316 317 318 317 316 316 316 316 317 318 322 324 324 324 324 326 328 328 327 325 319 318 320 320 320 320 320 319 319 319 320 320 321 318 317 313 312 312 313 312
307 307 310 310 311 313 313 311 311 316 316 318 318 317 316 316 315 316 320 321 325 324 323 323 324 327 328 327 325 317 320 320 320 320 320 320 319 319 319 319 319 318 316 316 314 316 315 313 314
307 309 308 310 312 312 312 312 318 314 316 317 318 316 315 315 315 318 320 322 326 325 324 325 324 326 327 327 324 316 320 320 320 320 320 320 321 320 319 319 318 317 317 316 317 315 315 314 314

GFSSGP_850_thetae_105.txt.gz
Theta_e
318 319 314 314 318 317 318 317 314 317 317 316 318 320 326 327 332 327 329 323 320 319 319 321 325 329 331 332 331 329 329 334 335 336 338 338 336 334 328 329 329 327 327 327 329 330 330 331 332
314 315 314 315 317 316 316 316 318 318 318 317 319 322 325 325 326 327 327 321 319 318 317 318 324 330 332 331 331 329 328 329 332 332 335 337 335 332 330 330 329 328 328 328 329 330 330 330 332
312 313 315 318 316 316 316 315 319 318 317 317 319 320 322 328 328 326 325 320 319 318 318 319 323 326 332 332 332 331 330 328 328 328 331 333 333 333 334 331 330 330 330 328 328 329 329 330 332
313 316 313 317 317 316 315 317 316 317 317 317 318 320 324 327 325 324 324 320 318 318 319 320 321 322 327 333 333 332 332 330 328 328 328 330 333 336 333 332 331 332 330 327 325 326 327 329 330
315 316 316 317 316 315 315 315 316 318 317 317 317 319 326 324 327 323 324 321 318 318 319 320 320 323 326 330 333 334 333 332 329 328 328 330 333 333 333 332 332 330 328 327 323 324 326 331 330
316 313 316 314 314 314 315 315 316 316 317 316 316 318 323 323 326 326 325 321 319 319 319 320 322 323 325 329 331 333 334 333 331 329 329 330 331 333 332 331 330 328 327 325 324 321 323 328 329
316 316 315 314 314 314 315 315 315 317 317 317 317 320 323 324 327 326 325 321 320 320 320 320 321 322 324 327 331 331 334 334 333 331 330 330 330 331 332 331 330 327 326 324 326 324 325 327 329
314 316 315 315 314 315 315 315 316 317 318 317 321 323 324 325 328 330 328 321 321 321 321 322 321 321 322 324 327 330 330 333 334 334 332 330 330 330 331 331 327 326 324 329 329 325 325 327 329
313 315 315 315 314 315 314 316 315 316 316 317 317 317 318 321 324 332 330 322 322 322 322 323 322 321 321 323 324 326 331 331 332 335 335 332 330 330 329 328 325 323 328 328 327 324 324 327 328
315 314 314 314 314 315 315 315 315 316 316 317 316 317 318 318 319 330 331 326 324 323 322 322 323 322 323 323 324 325 332 336 338 333 333 333 333 331 330 328 325 327 329 328 326 327 327 327 326
315 315 313 313 313 313 314 314 314 316 317 317 317 317 318 318 319 324 331 328 325 324 322 321 322 324 324 322 322 323 334 336 335 335 334 333 333 332 330 329 327 329 330 328 326 326 327 325 324
315 314 314 314 314 315 316 315 316 316 317 317 317 318 318 318 317 319 323 327 327 326 325 322 321 323 323 323 324 324 323 330 337 335 333 333 334 332 331 329 328 330 329 328 327 326 325 324 322
315 315 314 315 315 314 315 316 316 315 316 317 317 318 318 318 319 318 318 327 329 327 327 325 322 321 322 324 326 325 324 326 333 331 331 333 331 331 331 329 327 328 326 326 327 327 325 321 326
310 311 313 314 315 315 316 316 315 315 316 317 318 318 318 318 319 318 317 318 324 326 327 328 325 322 321 325 327 326 327 326 330 325 329 331 330 330 326 327 328 327 325 326 327 326 323 319 325
311 312 312 312 312 314 314 316 316 316 316 316 317 318 318 318 317 318 318 318 318 320 323 327 328 325 322 325 328 328 328 327 325 323 324 327 325 328 327 328 327 326 325 326 326 327 324 319 324
315 315 315 315 314 314 315 318 317 317 315 315 315 316 317 317 317 317 317 318 318 319 319 319 325 328 324 325 328 329 329 328 326 323 324 327 327 327 328 328 327 327 325 324 326 325 320 321 323
313 316 316 316 314 316 316 317 316 314 315 315 314 315 315 315 316 316 317 317 318 318 319 318 319 327 327 325 328 329 329 328 326 324 324 326 328 329 329 328 327 326 325 324 324 324 321 316 322
311 314 314 316 316 315 317 317 316 315 313 313 314 314 314 313 315 317 316 316 316 317 318 318 317 321 329 327 329 330 330 328 326 324 324 325 326 328 329 328 327 327 325 324 320 320 318 318 323
311 312 313 314 314 315 317 317 315 314 314 314 314 313 312 312 314 316 317 316 316 316 317 319 318 319 328 328 329 330 330 328 326 324 322 326 328 327 328 327 327 327 326 324 320 321 319 321 320
311 311 313 312 312 313 314 314 312 311 311 311 311 310 310 314 315 317 320 321 318 317 317 318 318 318 325 329 329 330 329 328 327 325 323 326 326 326 327 327 326 326 326 324 320 318 320 321 320
310 311 312 312 310 308 308 309 309 309 308 309 310 311 313 314 318 320 320 320 320 318 317 318 319 319 324 329 330 330 329 327 326 327 325 322 323 325 326 326 325 326 326 322 321 319 321 319 319
307 308 310 311 310 310 308 309 310 311 311 312 313 313 314 319 319 320 320 320 320 318 317 318 320 319 324 329 329 330 329 328 326 323 325 322 323 324 324 324 324 324 321 320 320 320 321 317 318
307 307 309 309 308 307 308 310 311 310 313 313 314 316 320 319 318 318 319 319 321 319 317 317 320 321 322 328 329 330 328 328 324 321 321 320 322 325 325 325 324 324 321 321 320 319 319 317 316
307 307 308 307 308 312 310 312 312 313 313 316 318 319 319 318 318 319 318 319 321 320 319 319 321 323 323 327 329 329 328 327 324 319 319 321 322 323 322 323 324 324 323 321 319 319 318 317 316
309 312 313 316 313 314 310 310 313 314 316 320 320 318 317 316 317 318 318 319 321 321 322 320 322 326 325 327 329 329 328 326 322 318 318 321 322 323 324 324 324 324 323 323 318 317 316 316 317
309 311 313 313 317 314 312 313 314 315 318 317 317 316 316 317 317 318 318 318 319 321 323 321 322 326 325 327 330 328 327 325 321 319 321 321 320 320 322 323 324 323 324 324 318 315 314 314 317
308 309 311 312 313 314 314 315 314 319 319 318 317 317 317 317 317 317 318 317 318 320 322 322 323 325 325 328 329 328 327 324 318 320 320 319 319 320 321 322 322 323 322 321 318 312 310 314 313
309 310 311 312 313 313 313 314 314 317 317 318 317 318 316 316 316 316 318 318 318 320 322 322 323 325 325 328 328 327 327 322 318 320 320 319 319 318 319 320 321 323 322 322 320 313 311 314 312
307 307 310 311 313 311 312 312 312 317 317 318 318 318 316 316 316 317 318 318 320 319 322 323 323 324 325 326 327 326 326 318 320 320 320 320 320 319 319 320 321 321 322 320 320 319 313 310 310
309 309 309 310 312 313 312 312 317 316 316 318 319 318 317 317 316 315 316 316 320 321 323 323 322 322 323 325 326 326 323 317 320 320 320 320 320 319 319 319 318 319 320 320 319 318 316 311 313

GFSSGP_850_thetae_108.txt.gz
Theta_e
315 315 316 316 320 320 321 320 320 322 322 321 322 327 328 327 329 328 328 334 321 319 318 319 320 323 329 332 333 331 329 333 337 338 339 337 336 334 329 329 330 329 327 326 327 329 331 332 333
318 318 315 318 318 320 321 321 321 322 322 320 322 322 325 327 328 333 334 322 319 318 318 318 318 323 330 332 332 330 329 333 336 337 339 338 337 334 330 330 329 328 327 327 328 328 331 332 333
316 315 317 319 319 320 321 320 322 322 321 321 323 324 325 326 331 332 334 321 319 318 317 317 319 323 328 331 331 330 329 331 335 336 338 338 337 335 330 331 329 330 334 331 332 330 331 332 333
315 315 316 318 319 320 320 320 323 322 321 321 321 324 325 330 332 332 325 321 319 318 317 318 319 322 326 331 331 331 330 329 329 331 334 336 336 334 330 331 330 330 331 330 328 329 329 330 332
316 317 318 318 319 320 320 320 322 322 320 321 321 323 324 330 329 333 326 321 318 318 318 318 320 322 326 329 332 332 331 330 329 329 330 334 335 333 332 333 331 330 330 328 327 325 329 330 331
316 317 318 319 320 319 319 319 319 320 319 320 320 321 322 330 330 331 326 321 318 318 318 319 320 321 324 328 332 333 332 332 330 329 329 331 332 333 334 332 332 331 330 328 327 324 328 330 330
318 319 319 319 319 319 318 317 319 319 319 320 320 322 324 330 337 327 325 323 319 318 319 319 320 322 325 327 331 332 333 333 332 331 330 329 331 333 333 333 332 331 328 328 329 324 328 330 330
316 319 320 319 320 319 319 318 318 318 320 319 321 324 326 329 329 329 325 325 321 319 319 320 320 321 324 326 329 332 333 333 333 332 331 331 332 332 333 332 331 331 328 328 326 326 326 327 331
315 319 320 321 319 320 318 318 318 318 320 319 320 321 323 319 321 337 333 337 328 321 320 320 320 322 323 325 327 329 332 334 334 333 332 331 332 333 332 331 332 332 328 326 327 329 327 326 328
317 319 320 321 320 319 318 318 319 319 319 320 319 320 325 324 332 337 338 337 335 323 322 322 321 322 323 326 332 328 327 331 336 336 335 332 333 335 335 332 331 330 326 325 328 330 329 326 327
317 319 321 320 318 318 318 318 317 318 319 319 320 319 320 325 327 332 334 336 335 336 335 327 323 322 323 330 336 333 326 334 335 334 334 335 334 333 331 332 330 328 325 327 328 328 327 325 327
317 317 318 319 317 316 318 317 318 318 318 318 319 318 319 320 324 326 329 332 334 336 337 332 325 323 323 336 331 337 324 333 332 331 335 334 332 332 332 332 332 331 330 329 329 328 328 327 327
317 318 317 317 316 316 316 317 318 318 318 318 318 318 318 319 321 323 326 327 331 335 338 338 326 325 324 326 330 334 333 327 325 332 334 334 333 333 333 333 331 329 328 329 329 328 328 327 327
316 316 317 316 317 317 317 318 318 318 318 318 319 319 319 320 320 321 324 326 329 332 336 338 328 327 326 325 322 323 325 331 325 326 333 331 331 333 332 332 331 329 328 328 329 328 328 326 326
312 314 315 315 315 316 315 317 318 316 317 317 317 318 318 320 320 320 322 326 328 329 332 335 328 328 328 326 323 323 325 326 326 326 331 331 331 327 333 332 331 328 330 328 327 327 327 327 324
314 314 315 317 317 316 316 320 321 319 320 320 319 320 320 320 319 319 321 322 324 326 328 331 328 324 329 329 327 323 325 327 328 327 326 325 327 329 329 327 329 329 329 327 326 326 326 327 322
315 317 318 318 318 318 317 319 321 319 319 320 320 320 320 319 319 319 319 319 320 322 324 327 329 319 324 332 331 325 325 327 328 328 327 323 323 327 325 325 328 328 328 326 326 324 324 326 321
315 317 317 318 319 318 319 319 320 319 319 319 319 319 320 319 319 319 319 319 318 319 320 322 326 321 324 333 331 327 325 328 329 329 328 325 323 325 327 327 329 329 327 326 325 325 324 324 321
314 313 313 314 316 317 318 319 320 320 319 319 319 319 319 319 318 317 318 320 320 318 317 317 318 320 326 328 328 328 326 329 329 329 328 325 323 324 326 328 328 328 327 327 324 322 321 321 322
310 311 312 311 315 316 316 317 318 318 318 317 316 316 316 316 314 317 320 322 322 321 323 319 319 323 327 325 325 328 327 329 330 330 328 325 322 322 326 327 327 327 326 326 323 323 322 320 315
311 311 310 310 312 313 314 314 314 315 314 313 313 313 313 314 317 320 322 322 323 323 323 323 325 327 329 329 327 330 328 329 330 330 328 327 324 324 327 326 327 327 325 326 324 323 322 318 315
311 311 310 311 313 312 312 312 313 313 314 315 315 315 316 319 321 321 322 322 323 324 323 323 326 328 329 329 328 330 329 329 330 329 328 328 325 324 325 326 326 325 325 325 325 324 320 317 318
310 309 309 310 311 311 311 310 312 314 314 315 317 317 321 322 322 322 322 322 322 323 326 324 326 328 327 329 329 331 330 330 329 328 327 325 328 324 324 324 324 324 324 324 324 320 319 318 320
309 309 309 309 310 310 311 310 313 315 316 317 319 321 322 322 321 321 321 321 321 322 324 327 327 327 323 325 331 329 331 331 328 327 326 322 328 325 322 324 324 323 323 324 322 320 319 319 320
309 311 315 315 314 313 314 313 314 315 317 318 320 320 320 319 319 319 320 320 321 321 323 326 327 326 323 326 331 329 331 329 328 327 325 321 324 321 322 323 324 324 324 324 322 320 320 318 320
310 312 312 314 316 315 314 314 314 315 318 320 319 319 318 319 319 319 318 319 320 321 322 324 327 325 325 324 329 329 326 329 327 326 324 319 320 321 323 324 323 323 323 323 321 320 319 319 319
311 312 313 314 314 315 315 316 317 319 320 320 319 318 318 318 318 319 319 320 321 320 322 324 326 325 324 322 327 327 328 327 326 325 321 320 322 321 322 324 323 324 324 323 322 320 320 320 318
310 311 312 313 312 312 311 313 314 319 319 319 318 318 319 319 320 319 319 318 318 318 320 323 325 324 323 324 326 326 328 325 325 323 318 320 320 320 320 321 322 322 323 323 322 320 319 319 319
307 311 311 312 313 311 311 314 316 316 317 318 318 318 319 320 320 318 317 316 314 317 322 324 324 323 323 323 326 327 326 324 323 320 320 320 320 319 320 321 322 322 322 322 322 321 318 318 317
308 308 310 311 312 313 312 313 317 318 318 318 319 320 320 320 319 317 315 313 312 316 322 323 322 322 324 322 324 325 325 323 322 319 320 321 320 320 319 319 319 320 321 322 321 320 317 317 316

GFSSGP_850_thetae_111.txt.gz
Theta_e
310 313 320 319 321 321 322 324 324 324 324 324 324 328 329 329 331 333 336 338 336 335 320 320 320 320 323 329 331 333 331 330 333 336 338 337 335 334 329 329 330 331 335 331 331 332 333 333 333
315 319 320 319 321 322 324 325 323 323 325 324 324 325 326 329 329 334 337 337 334 326 321 320 318 318 323 329 331 331 329 332 336 338 338 337 336 335 330 330 331 334 336 328 328 330 333 333 333
322 320 319 320 321 321 324 325 324 324 324 324 325 324 325 327 329 331 336 334 335 331 320 319 318 318 324 330 331 330 329 333 336 338 339 338 337 336 332 330 330 329 333 328 327 332 331 331 333
320 318 318 321 322 324 324 324 323 324 323 323 324 326 326 330 330 331 335 335 335 336 334 319 318 318 321 328 331 330 329 331 334 337 338 338 338 336 333 330 331 329 331 331 329 329 328 332 332
319 318 320 320 321 322 324 322 323 324 324 324 324 325 326 329 331 333 335 336 335 336 331 319 318 319 321 324 330 331 330 330 332 335 336 337 337 336 333 331 331 330 331 329 328 329 329 330 331
319 319 322 322 322 323 324 322 322 323 323 323 323 324 325 330 331 334 337 337 337 330 321 319 318 320 322 324 328 331 331 330 330 332 334 335 336 336 334 331 332 331 331 331 328 328 327 329 328
320 322 322 322 323 324 324 322 322 322 323 322 322 324 324 329 331 335 338 339 339 321 319 319 319 320 322 324 328 331 332 332 330 330 331 331 333 334 333 332 332 331 331 330 328 329 328 329 330
319 322 323 324 323 323 324 321 320 320 322 321 322 323 325 330 338 338 337 340 341 326 318 319 319 320 321 322 325 330 332 332 332 331 330 331 332 333 333 333 333 331 331 329 328 329 328 327 328
319 322 323 324 324 324 323 321 320 320 319 321 322 323 326 329 335 338 337 338 342 340 334 326 320 320 321 321 322 326 331 332 333 333 332 331 332 334 333 333 332 332 332 330 329 328 327 327 328
320 323 323 324 325 324 323 321 321 320 320 321 321 323 325 327 331 336 336 337 340 340 338 339 338 339 324 321 321 323 327 329 331 333 335 332 335 337 336 336 333 332 332 331 328 327 328 328 326
320 322 323 323 323 323 323 323 320 322 322 320 321 321 322 325 328 332 333 333 337 338 337 337 341 341 335 338 339 339 328 333 332 336 336 337 338 337 336 336 335 331 331 331 328 326 328 329 327
321 321 321 321 321 322 322 321 322 321 321 320 320 321 321 321 323 326 330 331 332 335 337 338 339 341 341 338 338 339 337 336 337 340 335 335 336 336 334 334 333 332 332 331 330 327 330 330 328
320 321 321 320 320 321 320 321 321 321 320 320 320 320 320 321 321 323 325 327 328 331 334 338 340 342 342 335 339 338 340 328 339 339 339 336 338 335 333 333 333 333 332 331 331 329 330 329 327
319 320 320 320 320 320 321 321 320 320 320 320 320 320 320 320 320 321 323 325 326 327 331 337 340 341 341 340 339 339 339 338 327 332 334 335 334 334 333 333 333 332 331 331 329 329 329 326 327
316 318 318 319 319 321 320 321 321 320 320 320 320 321 321 321 321 321 321 323 325 326 328 335 340 340 332 341 340 339 338 338 339 328 331 333 334 333 333 333 332 332 331 330 329 329 328 327 328
316 317 318 318 319 319 318 321 322 322 322 321 320 320 321 321 320 321 321 321 323 326 327 330 336 341 333 340 341 338 337 337 337 335 332 327 327 332 332 331 331 332 331 330 329 329 328 328 328
318 318 319 319 320 319 319 319 320 320 322 322 323 322 322 322 322 322 322 322 322 324 325 327 332 337 340 340 340 340 337 336 334 335 328 327 327 326 326 332 332 330 330 330 328 329 327 327 327
318 319 319 320 321 321 321 320 321 321 322 322 322 322 322 322 322 322 322 322 322 322 323 325 328 333 337 338 340 339 337 335 332 330 327 328 328 326 325 329 329 328 328 329 329 328 326 326 326
317 318 319 320 320 321 321 321 321 321 322 322 322 322 322 322 322 322 322 321 321 322 322 322 323 326 333 335 337 338 336 333 329 334 334 332 329 327 323 331 328 327 327 328 328 326 326 325 324
316 317 318 319 318 317 318 319 320 320 322 322 322 322 321 321 321 321 320 320 322 324 324 325 325 325 328 333 334 337 335 335 333 329 333 332 331 328 324 328 328 327 328 328 327 324 326 324 324
315 316 316 316 315 314 316 317 317 317 318 318 319 319 318 318 318 319 318 322 323 324 324 325 326 326 328 332 334 335 333 334 334 328 329 330 330 328 329 328 327 328 328 326 326 326 325 322 323
313 314 314 314 313 315 315 318 318 318 316 318 317 316 316 316 317 318 321 322 323 324 325 327 327 327 329 332 334 331 332 331 332 331 330 331 330 328 327 326 326 328 328 327 325 326 324 322 322
312 313 313 313 313 314 314 316 317 317 316 316 317 316 317 319 321 321 322 322 322 322 324 327 329 328 329 331 333 332 331 331 332 331 330 330 330 327 329 326 325 330 327 326 324 324 323 321 321
311 311 311 311 313 314 315 314 315 314 316 316 317 318 321 321 321 321 321 321 320 322 323 325 328 329 329 330 332 332 330 332 333 333 332 332 329 328 327 326 326 326 326 325 325 325 323 322 320
312 313 313 313 313 315 314 313 314 316 316 318 319 321 321 321 320 320 320 320 320 321 322 323 324 328 329 330 330 331 330 331 333 333 333 330 328 326 325 327 327 323 324 325 324 324 323 322 319
312 313 317 318 317 315 314 315 316 315 317 319 320 320 319 320 320 319 319 320 321 321 322 322 324 325 328 329 327 330 330 331 333 332 330 328 326 324 322 326 326 324 324 324 324 324 323 321 318
312 312 313 315 317 319 318 316 318 316 318 320 319 318 318 319 319 320 320 320 320 320 319 321 321 324 326 328 326 327 328 331 332 331 331 328 325 324 323 327 322 323 325 323 322 323 322 320 319
312 312 313 314 314 314 314 316 317 317 319 319 318 318 318 319 320 320 320 319 318 317 317 318 320 324 325 327 325 324 328 329 330 330 329 327 323 322 325 323 323 324 324 324 323 323 321 320 319
310 312 312 312 312 313 314 315 318 318 318 318 318 318 318 319 320 319 318 317 316 315 314 315 319 324 326 326 324 323 326 328 329 328 327 325 320 324 323 322 322 323 323 323 323 322 321 319 319
309 311 312 312 312 312 314 318 317 318 318 317 318 318 319 320 319 319 318 317 315 313 311 312 322 325 325 324 323 321 325 327 327 327 324 320 321 323 322 323 322 321 322 322 322 321 321 320 319

GFSSGP_850_thetae_117.txt.gz
Theta_e
311 310 313 321 318 312 314 316 318 319 321 324 325 324 326 330 336 338 341 338 338 323 321 321 320 319 320 323 327 331 334 335 335 334 335 336 335 335 329 327 328 328 328 327 330 332 333 333 332
310 311 318 320 315 314 313 317 318 318 323 324 324 325 327 332 338 339 337 337 326 321 321 319 318 318 322 325 328 331 333 331 330 331 335 337 335 335 331 328 328 329 334 330 327 328 329 330 331
309 317 319 316 314 314 314 318 319 323 324 324 324 324 325 333 337 334 328 327 321 322 320 319 317 317 321 326 329 330 329 329 331 333 336 337 335 335 333 329 329 331 331 329 327 326 325 326 329
312 319 323 314 314 314 316 318 318 321 324 324 324 323 327 332 336 334 326 323 322 322 320 319 316 316 321 327 329 328 329 331 334 336 337 338 336 335 335 331 329 330 331 329 328 326 327 328 329
322 324 315 313 313 316 317 318 320 319 322 323 323 322 328 330 334 333 325 323 322 322 320 320 318 316 320 325 329 330 329 330 332 335 337 338 337 336 335 333 330 331 332 331 330 329 329 326 328
322 322 315 316 316 316 318 320 320 320 323 323 323 323 328 334 333 330 326 323 324 322 320 320 319 316 317 320 326 330 330 330 330 332 335 337 337 336 335 334 331 331 332 332 330 329 328 328 328
320 317 317 316 317 318 319 321 320 321 322 322 323 322 330 334 333 332 329 325 326 324 320 320 319 318 317 318 320 325 329 331 331 330 331 334 336 335 333 334 333 331 332 332 330 329 328 327 327
321 317 320 319 318 318 319 320 322 322 321 323 323 320 322 334 334 334 335 331 329 326 322 320 319 318 317 317 318 320 323 326 329 330 330 330 332 332 333 333 333 332 332 332 330 330 328 328 325
319 319 320 320 319 319 320 321 323 322 321 321 321 322 331 334 334 335 337 336 334 332 326 320 319 319 318 317 318 319 321 323 326 328 330 330 330 330 332 332 332 332 332 331 331 330 329 329 328
316 318 320 318 319 321 321 321 322 320 320 320 320 330 335 335 337 337 337 337 335 332 327 323 319 319 319 318 318 319 320 321 324 326 328 329 330 330 331 331 332 332 332 331 331 330 329 328 328
315 317 318 320 321 320 320 320 322 320 316 320 321 327 326 332 337 337 338 337 334 334 329 322 320 319 319 319 319 319 319 320 322 324 326 329 330 330 331 331 332 332 332 332 331 331 330 329 327
313 315 317 317 319 319 319 321 320 321 320 321 321 323 324 323 328 333 336 338 338 338 336 331 323 321 320 319 319 319 319 319 320 322 324 326 329 331 331 331 333 334 333 333 332 332 331 331 328
310 313 315 317 318 319 320 320 320 321 322 322 322 321 322 323 323 326 331 335 337 338 336 333 326 325 325 325 322 322 323 321 323 321 321 321 326 330 333 333 334 334 334 334 333 332 331 331 330
313 313 314 316 317 318 320 320 320 321 321 322 321 321 321 322 323 324 326 327 332 337 336 335 332 327 325 326 327 326 328 331 332 331 324 324 326 331 333 334 334 334 334 334 334 332 331 330 329
313 314 315 316 316 317 319 319 320 321 321 321 321 321 321 321 322 322 322 323 325 325 336 338 336 334 333 331 332 331 329 336 338 335 333 328 330 332 334 334 335 334 333 333 332 332 331 330 330
306 309 312 314 316 317 318 319 320 321 321 321 321 321 321 321 321 321 321 321 322 322 324 333 338 337 336 335 335 335 332 336 338 338 335 330 329 333 334 334 334 333 332 332 331 331 331 330 329
305 307 310 314 315 316 317 319 319 321 321 320 320 321 321 321 321 321 321 321 320 321 323 326 334 337 337 336 336 336 335 338 339 339 338 337 332 333 333 333 334 334 333 332 331 331 331 330 329
307 307 308 313 314 316 317 317 316 319 319 320 320 320 321 321 321 321 321 321 321 321 322 324 328 333 335 337 337 336 335 339 339 337 337 338 336 333 335 335 335 334 332 331 330 331 331 331 329
306 309 309 312 314 316 316 317 317 316 318 317 318 318 320 321 321 321 321 321 322 321 321 322 327 335 337 339 340 338 332 332 339 339 337 335 337 336 336 336 337 335 332 329 329 330 333 330 329
305 306 310 313 315 317 317 319 317 317 316 318 317 319 320 321 322 322 321 321 322 323 323 325 332 337 338 338 338 336 331 330 334 339 338 336 335 336 333 339 337 337 332 332 329 328 329 330 329
305 306 307 311 315 317 316 318 318 318 315 317 318 319 320 322 323 323 323 323 323 323 322 322 324 327 328 326 328 334 336 336 336 342 339 338 336 335 334 331 337 336 331 331 330 331 327 327 325
305 305 307 309 311 321 317 316 316 319 316 315 316 318 319 322 322 323 323 322 322 322 322 323 324 324 326 330 332 327 328 328 331 335 339 338 336 334 332 332 332 335 330 328 326 327 327 327 327
306 306 306 309 313 317 318 318 313 313 314 314 314 317 318 318 322 321 321 321 323 323 324 324 325 325 324 326 328 329 327 329 333 333 338 339 335 332 333 332 332 331 328 328 327 325 324 325 327
307 306 308 314 316 318 314 314 312 312 314 314 315 317 318 318 319 322 323 323 324 324 324 324 324 323 324 325 327 328 331 331 332 334 334 334 330 330 331 332 331 331 329 329 327 324 325 323 325
307 306 315 318 318 315 314 314 314 313 314 315 315 317 319 320 321 321 321 321 321 322 323 323 323 323 323 324 325 328 329 329 333 332 333 333 330 328 329 330 330 330 330 330 327 322 324 326 324
308 312 313 317 315 313 313 315 313 313 313 314 315 319 320 320 321 321 321 321 321 320 320 320 321 320 320 321 320 323 326 330 331 334 332 331 330 329 328 329 330 330 328 328 325 322 323 323 325
311 312 313 316 317 317 313 312 313 314 316 318 320 320 320 320 320 320 319 319 319 318 317 315 314 314 314 314 315 316 319 325 330 330 330 329 332 331 330 329 329 329 329 326 323 322 322 322 323
311 311 314 318 320 322 322 315 317 318 320 320 321 320 320 319 318 317 317 317 317 317 317 315 315 314 313 314 315 316 317 320 328 330 329 327 330 334 331 330 329 327 326 324 322 323 322 323 322
312 312 315 315 315 317 322 321 318 319 319 321 321 318 316 315 314 314 314 315 316 315 315 314 313 312 312 313 314 318 321 323 324 328 329 326 331 332 332 331 328 327 325 324 322 324 323 323 321
313 314 313 313 316 314 317 319 319 321 321 321 319 316 313 311 311 312 311 310 311 310 309 310 310 310 310 311 314 319 326 326 325 327 327 326 331 332 330 329 327 325 323 321 322 322 324 323 322

GFSSGP_850_thetae_120.txt.gz
Theta_e
310 309 312 321 315 309 312 313 314 316 316 322 324 326 328 330 333 334 339 340 340 329 322 320 320 321 322 323 327 330 335 336 336 336 336 335 335 330 327 327 326 327 327 328 330 331 332 332 331
309 310 318 320 314 312 312 312 316 316 318 320 323 326 330 336 339 338 341 341 332 322 321 321 320 320 320 322 325 330 334 335 334 335 336 335 335 332 327 328 327 329 328 326 326 327 328 330 330
309 315 317 314 311 313 312 314 315 317 319 321 323 323 329 335 338 338 340 333 321 322 320 319 318 318 319 322 327 331 333 332 331 332 336 335 335 334 329 328 328 330 330 328 326 327 329 330 330
309 316 320 316 314 312 313 314 316 316 319 322 323 322 333 333 335 336 335 323 322 321 319 317 317 317 319 323 328 330 328 328 330 333 336 336 335 335 332 329 329 330 329 329 326 326 328 330 331
314 323 319 314 313 312 314 315 317 316 317 319 322 322 330 335 333 327 323 321 322 320 318 316 316 317 319 324 327 328 328 330 332 334 336 337 336 336 335 331 329 330 330 330 328 329 328 327 331
321 320 313 316 317 314 314 317 316 317 319 319 321 325 331 335 333 326 322 321 322 321 319 317 316 317 318 323 328 329 329 330 332 334 336 337 337 336 335 333 330 330 331 331 330 329 328 328 329
319 315 316 315 315 316 316 319 317 318 320 320 323 321 333 335 333 327 322 321 322 321 319 319 316 316 317 320 325 329 330 330 331 332 334 335 336 336 334 334 332 330 331 331 330 329 328 328 327
321 315 318 316 319 317 318 319 319 319 318 323 323 322 332 335 332 326 324 322 322 321 319 319 318 316 316 318 321 324 328 330 330 330 331 333 333 334 333 333 333 331 331 331 330 329 329 328 326
316 313 321 320 319 320 319 318 320 320 321 320 322 322 330 334 333 331 330 329 326 322 320 319 319 318 316 317 318 320 322 325 328 329 330 330 331 331 331 331 333 332 331 331 331 330 329 328 326
311 314 318 318 318 320 320 319 319 319 320 320 325 321 332 334 335 333 331 328 330 326 321 319 319 319 317 317 317 318 319 321 322 324 327 329 330 330 330 331 332 332 331 331 331 330 330 329 328
309 314 316 318 318 319 318 319 319 318 318 320 324 328 331 334 335 335 333 329 325 326 325 322 319 319 318 318 317 318 318 319 320 320 323 326 329 329 330 331 331 332 331 331 331 331 330 330 329
306 309 311 314 316 317 317 318 318 318 319 321 320 332 333 336 336 335 334 332 330 327 326 325 321 319 319 319 318 318 318 318 319 319 321 323 326 329 330 330 331 331 331 331 331 331 331 330 330
310 309 309 310 312 314 316 317 317 318 319 320 321 327 335 335 335 335 334 334 334 333 331 326 324 321 319 319 319 319 319 319 319 320 320 321 323 325 327 330 330 332 332 332 332 332 331 331 331
307 307 310 311 311 312 314 315 317 318 318 320 321 321 325 332 336 336 337 337 336 335 334 333 331 325 321 321 320 319 319 319 319 319 320 321 321 323 324 327 330 332 333 333 333 333 332 331 331
306 304 305 308 312 313 313 314 315 316 318 320 321 321 320 321 324 332 333 335 337 336 335 335 333 332 325 323 322 322 322 322 322 323 326 322 322 323 326 328 330 332 333 333 334 334 334 332 330
305 305 305 306 309 312 313 314 315 316 318 319 320 321 321 320 321 324 326 328 327 328 336 336 336 335 332 327 326 326 326 325 326 325 331 333 330 326 329 332 332 333 334 334 333 332 333 331 329
304 304 304 305 307 310 313 314 315 316 318 319 319 321 321 320 321 321 321 323 324 322 322 325 335 336 335 334 333 332 331 329 327 329 333 334 335 330 330 332 334 334 334 333 332 331 330 330 330
304 304 304 304 305 308 310 314 315 317 318 319 319 319 320 320 321 321 321 320 320 321 320 321 323 331 334 336 336 336 335 334 331 330 333 336 336 335 333 332 334 336 334 333 332 332 331 331 331
305 305 304 304 305 306 308 312 314 314 316 317 318 319 320 320 321 321 321 321 320 320 321 321 321 327 334 337 337 338 338 337 335 333 332 335 336 337 335 332 333 336 336 334 333 332 332 329 329
303 306 307 306 305 306 308 310 312 314 315 317 316 318 319 319 320 321 321 321 321 321 321 321 321 325 331 334 337 338 338 338 336 335 332 336 337 337 337 335 333 333 334 335 334 332 330 329 328
304 304 305 307 305 305 313 316 315 316 314 316 316 317 317 318 319 320 320 321 321 321 321 321 322 323 330 334 337 338 337 334 336 338 336 334 337 338 337 336 335 334 334 333 332 331 329 328 327
306 304 305 307 305 306 315 317 313 315 316 315 315 315 316 317 319 320 322 320 320 323 324 325 334 339 338 339 338 337 334 331 330 330 333 329 332 336 337 337 336 334 333 332 332 331 328 327 325
308 305 304 307 306 305 311 319 316 312 315 316 312 314 316 317 318 320 322 323 324 326 326 327 330 332 332 332 332 333 338 337 332 329 329 329 336 336 334 334 333 332 331 332 331 330 329 325 325
309 306 308 306 306 307 308 317 314 312 315 314 313 314 316 319 321 322 323 324 324 324 325 325 325 325 324 325 326 327 329 332 337 337 335 333 335 336 332 333 333 330 331 330 330 331 328 325 324
310 308 308 308 309 315 314 318 316 312 311 312 314 315 317 321 322 322 322 322 323 323 322 323 322 322 322 323 324 325 326 327 329 332 334 334 335 335 334 335 331 331 330 331 330 329 328 325 323
312 308 307 311 316 314 315 315 312 311 312 312 313 318 320 319 319 319 319 320 318 318 319 320 320 320 318 316 316 317 320 322 325 327 330 332 331 331 331 331 329 328 331 330 329 328 328 325 323
309 306 306 314 316 314 311 310 310 316 316 314 318 317 316 316 314 314 316 316 317 318 318 317 316 314 313 313 313 313 313 314 315 320 326 330 332 329 329 328 328 327 328 330 329 328 327 324 322
312 309 313 315 317 317 319 315 320 322 321 318 315 314 312 311 310 311 311 313 314 315 315 315 315 315 314 313 313 313 314 314 315 316 318 327 330 330 328 328 330 329 328 328 330 329 326 323 321
313 311 313 315 315 319 321 323 320 322 320 316 313 311 309 308 307 307 308 309 309 310 312 312 312 312 312 312 312 312 313 314 316 318 318 322 328 330 328 327 329 331 329 329 330 328 326 322 321
313 314 314 314 318 316 316 318 317 317 316 314 311 309 307 305 305 305 306 308 308 309 309 310 311 311 311 312 312 313 314 314 317 324 323 321 326 329 328 326 328 332 329 328 327 326 325 321 322

GFSSGP_850_thetae_126.txt.gz
Theta_e
312 310 309 317 310 308 308 308 309 312 313 316 316 318 321 329 333 334 333 334 326 327 333 337 336 335 335 335 335 335 335 334 335 335 333 328 326 325 325 326 327 327 329 330 331 332 332 331 330
310 309 314 318 306 306 304 308 311 311 314 316 318 322 327 331 334 335 336 330 329 326 330 334 334 333 333 334 335 335 335 335 335 335 334 328 326 326 326 326 326 326 328 329 330 330 329 328 329
309 310 315 311 305 305 304 308 310 312 315 316 317 319 324 332 335 335 332 331 334 327 328 331 329 330 331 331 334 335 336 335 334 335 335 330 327 327 326 327 327 326 326 326 327 327 327 328 328
309 313 315 311 312 311 307 310 311 312 316 316 316 314 319 327 334 335 334 335 334 329 327 326 325 327 328 328 331 334 335 335 335 334 335 333 328 328 327 328 329 328 327 324 324 325 326 327 328
309 315 308 314 313 311 311 312 313 313 314 315 316 315 318 320 329 334 336 335 330 326 323 322 322 323 325 325 327 331 334 335 334 334 334 335 331 329 328 328 329 329 327 323 324 325 325 326 327
312 317 315 313 312 312 311 314 315 314 315 316 317 317 320 323 330 336 339 337 329 322 321 321 322 321 321 323 326 329 333 333 333 332 334 335 334 331 329 329 329 329 329 325 327 327 325 326 326
313 314 315 315 314 315 314 316 314 315 315 316 318 317 321 324 336 336 338 336 323 321 321 320 319 319 319 323 326 329 331 331 330 331 334 335 335 334 331 329 329 330 329 329 328 327 325 326 326
318 312 316 314 315 315 316 317 318 317 315 318 319 319 320 324 329 337 339 331 321 321 320 318 318 320 320 323 328 329 327 327 329 332 335 335 335 335 333 330 329 330 330 330 328 327 327 328 328
314 313 314 315 316 316 318 317 318 319 318 319 319 319 319 320 323 336 338 323 321 320 318 317 318 320 324 325 326 327 328 329 331 333 335 336 335 335 334 332 330 330 330 330 330 329 328 327 327
308 306 310 312 315 316 317 317 317 317 318 317 318 319 320 320 329 334 331 321 320 320 318 317 318 320 323 326 326 327 329 331 332 332 333 334 335 334 334 332 332 331 331 330 330 330 329 328 327
305 305 306 309 311 313 313 313 315 315 315 317 318 318 318 319 326 334 326 321 321 321 318 317 317 318 321 324 326 327 328 329 330 331 330 331 332 333 332 332 331 331 331 331 330 331 330 329 328
305 304 305 306 306 305 304 307 308 309 311 314 316 317 317 318 322 334 325 321 321 321 319 318 317 317 319 321 323 324 325 326 327 328 329 329 329 329 330 330 330 329 330 330 330 331 330 330 329
302 303 304 304 304 304 305 304 306 308 309 310 311 313 315 317 318 324 331 325 323 321 319 318 318 317 317 318 319 319 320 322 322 323 324 325 325 325 327 328 328 328 328 329 330 330 330 330 330
303 303 303 304 303 303 303 303 305 306 308 310 311 312 313 315 317 319 328 328 324 321 320 319 318 318 317 317 317 317 317 317 318 319 319 320 321 322 323 325 326 327 327 328 330 330 330 330 330
303 303 303 302 303 302 304 302 303 306 307 308 309 311 312 314 317 319 319 327 325 322 321 320 319 318 318 318 317 317 317 317 317 317 318 319 319 320 322 324 325 326 327 328 330 331 331 331 331
303 302 301 302 302 303 303 302 303 305 306 307 308 310 312 312 313 316 319 321 333 329 324 322 320 319 319 318 318 318 318 318 318 318 318 319 320 321 322 324 325 327 328 328 330 331 331 332 332
301 300 301 301 302 301 301 301 302 303 304 304 305 306 309 312 313 314 317 320 331 334 332 329 327 324 323 321 319 319 319 319 319 319 320 320 321 322 323 324 324 327 329 328 330 332 333 333 333
300 300 300 300 301 302 302 302 303 304 303 303 304 304 306 308 313 314 315 318 326 335 335 333 332 331 329 328 325 322 320 320 320 320 320 321 321 321 324 323 324 326 329 330 331 333 334 333 333
302 302 302 302 302 303 303 303 303 304 304 303 303 303 305 307 310 314 315 317 318 332 335 335 334 334 334 334 333 330 326 323 321 321 321 323 325 328 329 330 330 328 329 331 332 336 334 332 332
302 302 303 303 304 304 304 304 305 304 304 304 304 304 304 305 308 313 315 317 318 320 324 331 335 335 335 335 335 335 335 334 328 325 326 329 331 332 333 333 334 332 331 332 332 334 333 332 331
304 304 304 305 304 305 306 307 307 305 304 304 304 304 304 305 307 312 316 317 319 319 322 328 330 329 333 336 337 338 338 337 335 332 332 333 334 334 334 334 335 335 335 334 332 333 332 330 330
303 304 305 305 307 310 304 307 304 303 302 303 304 304 305 308 309 311 314 316 317 319 319 319 320 321 324 335 335 336 336 337 337 336 335 336 335 334 332 332 332 334 336 336 335 333 331 331 331
304 305 308 308 310 305 305 305 304 303 304 305 305 307 308 311 310 312 315 316 317 317 318 318 317 318 324 332 334 335 336 336 337 337 336 335 334 333 329 329 333 335 337 334 334 333 332 329 330
306 308 309 307 305 306 305 303 304 303 304 309 312 315 314 313 314 315 317 319 321 321 322 322 320 319 323 326 335 338 338 336 334 334 333 333 328 330 329 330 334 336 334 333 331 332 331 330 330
308 306 306 304 305 307 307 308 304 306 308 308 312 313 311 310 309 309 311 315 322 323 326 329 332 331 331 333 334 336 335 335 335 333 329 325 323 329 329 329 329 330 332 332 329 330 332 331 329
309 309 308 305 309 308 308 311 311 316 315 313 311 309 307 305 305 305 306 308 310 311 312 314 316 317 319 320 323 326 329 329 329 328 327 324 328 330 329 332 333 333 334 331 330 330 330 331 331
312 312 308 309 309 310 310 313 315 314 312 311 309 306 305 304 303 302 303 305 306 307 310 311 311 311 312 312 313 314 315 318 319 321 323 325 324 323 325 328 332 333 332 331 331 331 330 331 328
311 310 312 309 311 317 315 315 311 314 310 307 306 305 303 302 301 301 301 302 303 305 306 308 309 310 311 311 311 311 312 312 312 313 312 313 313 313 314 318 325 329 331 331 331 330 329 326 325
311 312 312 315 314 317 317 317 306 310 310 307 305 302 301 300 299 299 299 300 302 305 307 307 308 309 311 313 313 311 310 310 311 311 312 312 312 312 313 314 315 325 329 331 331 331 329 325 325
311 312 312 316 316 314 315 312 304 304 303 302 303 302 301 299 298 298 299 298 301 306 307 304 306 309 309 310 310 310 310 310 310 311 311 312 312 313 314 315 316 315 324 330 331 329 326 326 326

GFSSGP_850_thetae_129.txt.gz
Theta_e
313 310 309 316 314 314 313 312 311 313 315 315 314 317 320 326 333 329 334 335 330 326 331 336 336 337 337 336 335 334 333 334 333 331 329 329 329 328 326 326 327 328 329 330 331 333 333 331 331
310 309 313 316 312 311 312 311 313 314 313 315 316 320 323 330 330 333 334 336 328 327 331 335 336 337 337 336 336 335 334 334 334 332 329 327 326 325 326 326 327 328 329 329 330 330 329 328 328
309 310 314 317 311 312 313 309 313 313 314 314 317 316 319 330 327 333 334 335 328 329 331 333 335 336 336 335 336 336 335 334 334 334 329 326 325 325 326 326 326 327 328 327 326 326 325 326 327
310 312 313 315 315 313 310 312 312 315 315 315 315 317 318 319 321 332 335 331 330 330 331 332 334 335 334 335 336 336 335 334 334 334 331 327 326 326 327 327 326 327 327 325 324 323 324 325 327
310 313 313 315 315 314 314 313 314 316 315 315 316 318 318 321 324 333 335 330 329 330 329 329 332 332 333 335 335 336 336 335 334 334 333 328 328 327 327 328 328 327 326 323 322 322 323 324 326
311 316 316 315 314 315 315 314 315 315 315 316 317 317 319 323 324 335 336 336 334 328 328 328 329 329 331 333 333 335 335 335 334 334 334 332 328 328 328 329 329 328 325 323 324 325 324 324 325
313 317 316 317 317 317 317 315 316 317 318 318 317 319 320 321 320 321 337 338 335 330 328 328 327 327 329 331 332 334 334 335 334 334 334 334 331 329 328 328 329 329 327 325 327 326 325 325 325
316 317 317 316 317 318 317 317 317 317 318 318 317 320 320 319 320 320 326 339 337 332 328 326 325 327 327 327 329 332 334 334 333 333 334 335 333 331 329 329 329 329 329 328 327 327 327 327 326
314 314 317 316 316 317 317 318 318 318 318 318 318 318 318 319 320 320 327 339 336 330 326 324 324 323 323 324 327 331 333 333 332 331 333 334 334 333 332 329 329 330 330 329 328 328 327 327 327
310 312 312 313 315 315 312 312 313 315 316 316 316 318 318 318 318 319 324 337 337 328 323 323 322 320 321 323 327 331 333 332 331 332 334 335 335 335 334 331 330 330 330 330 330 329 328 328 327
305 308 308 308 308 305 306 307 309 310 312 315 316 315 315 317 319 317 319 334 338 328 325 323 321 319 320 323 327 328 329 329 330 332 334 335 335 335 334 333 332 331 331 331 330 330 329 328 328
307 306 305 305 304 304 305 305 306 307 308 309 309 310 310 312 314 319 317 322 336 327 324 324 323 320 320 323 326 326 327 329 331 332 333 334 335 334 334 333 332 332 332 331 330 330 330 329 329
304 304 303 303 304 304 304 304 305 305 305 305 306 307 309 311 312 314 315 317 327 328 324 324 322 322 321 323 324 325 326 328 330 331 331 332 332 332 332 332 331 331 331 331 331 330 330 330 330
303 303 303 303 304 304 304 304 304 305 305 305 306 307 308 309 312 314 316 323 318 325 324 323 321 320 320 321 323 324 326 327 328 328 329 330 330 329 329 329 330 330 330 331 331 330 330 330 330
303 304 304 303 303 304 303 305 304 304 305 305 305 305 306 307 310 311 313 315 318 318 326 322 321 320 320 321 321 322 323 325 325 326 326 326 327 327 326 326 328 329 330 330 331 331 331 330 330
304 303 304 303 304 303 304 305 306 304 304 305 305 306 305 305 306 308 311 312 317 317 322 326 322 320 320 320 320 321 321 320 321 321 323 322 323 322 323 324 325 327 329 330 331 331 331 331 331
303 304 303 304 303 304 304 305 305 304 305 305 305 305 306 307 306 305 306 311 313 318 317 323 325 321 320 320 320 319 319 318 318 318 319 319 320 320 321 322 324 326 328 329 330 331 331 331 331
303 303 303 303 304 304 304 305 306 305 305 305 306 305 305 305 306 305 305 307 312 317 315 319 329 322 321 321 320 321 320 320 319 318 318 319 319 320 321 322 323 325 327 328 329 330 331 331 332
303 304 304 304 305 304 306 306 307 306 306 306 306 305 305 305 305 306 305 305 309 313 317 317 328 332 322 322 321 321 319 320 320 319 319 320 320 320 321 323 324 324 323 325 328 329 332 332 332
304 304 305 305 306 307 307 307 307 307 307 306 307 307 307 305 305 305 305 304 307 312 319 318 321 333 332 323 321 321 321 320 321 321 320 321 322 322 322 322 324 325 325 326 328 330 332 332 332
305 305 307 307 307 308 307 308 308 307 306 306 305 306 305 305 305 304 305 304 306 310 313 316 318 324 335 333 330 328 328 326 326 325 323 322 322 323 326 326 329 331 332 331 329 331 333 332 331
307 305 306 306 309 311 308 309 307 308 308 308 305 305 304 304 303 304 304 304 307 310 313 315 321 328 334 335 335 334 334 334 334 333 330 327 325 326 332 332 334 334 332 334 333 333 333 331 331
307 305 307 308 310 309 307 307 308 310 310 308 308 309 313 313 307 304 304 305 310 312 314 314 322 332 334 336 336 336 337 337 337 337 337 335 331 332 334 333 334 332 330 332 334 335 335 333 332
307 308 310 309 309 307 307 308 311 310 311 310 314 310 309 310 309 310 312 312 316 317 315 313 316 330 334 336 336 337 337 338 338 337 335 336 335 334 333 332 326 324 330 330 330 332 333 334 333
309 310 311 309 309 308 307 310 310 313 310 307 309 304 304 303 303 304 305 307 311 315 320 322 322 325 330 334 338 337 337 336 336 335 336 336 334 333 331 327 326 324 326 328 328 329 330 331 331
308 310 312 313 311 311 309 311 314 308 306 302 303 300 303 302 301 300 300 301 303 305 320 321 325 326 328 331 333 335 334 333 336 334 334 329 327 324 323 324 323 323 325 328 329 330 330 330 330
313 313 311 311 310 311 311 312 312 305 305 303 301 300 300 300 300 299 299 301 300 304 309 313 314 316 321 324 327 327 327 329 330 331 331 329 326 323 322 322 322 325 329 330 331 331 332 330 329
311 311 314 312 313 313 314 313 308 305 303 303 301 299 298 298 298 297 297 298 299 303 305 306 308 308 310 311 313 313 313 313 315 317 321 323 326 327 327 327 327 328 329 332 334 335 334 333 332
311 310 311 311 313 316 317 311 304 303 302 301 300 297 297 296 296 295 295 295 298 300 302 304 306 306 308 308 310 310 309 310 312 311 312 313 313 313 313 314 314 314 316 321 327 331 333 333 331
307 308 310 313 315 314 315 308 304 302 301 299 298 296 296 295 294 294 294 295 296 297 299 301 302 304 304 305 306 308 309 310 310 310 310 310 311 311 311 312 312 312 312 313 315 324 332 333 331